[[{"header":{"parameterUnit":"m.s-1","parameterCategory":1,"la1":30.6,"la2":29.2853,"lo1":-89.7004,"lo2":-87.6739,"dy":0.0162,"dx":0.0183,"nx":112,"ny":82,"refTime":"2023-03-20T00:00:00:Z","depth":0,"parameterNumber":2,"parameterNumberName":"U-component_of_WINDS"},"data":[0.0,0.0,0.0,0.0,0.0,0.0,0.0,0.0,0.0,0.0,0.0,0.0,0.0,0.0,0.0,0.0,0.0,0.0,0.0,0.0,0.0,0.0,0.0,0.0,0.0,0.0,0.0,0.0,0.0,0.0,0.0,0.0,0.0,0.0,0.0,0.0,0.0,0.0,0.0,0.0,0.0,0.0,0.0,0.0,0.0,0.0,0.0,0.0,0.0,0.0,0.0,0.0,0.0,0.0,0.0,0.0,0.0,0.0,0.0,0.0,0.0,0.0,0.0,0.0,0.0,0.0,0.0,0.0,0.0,0.0,0.0,0.0,0.0,0.0,0.0,0.0,0.0,0.0,0.0,0.0,0.0,0.0,0.0,0.0,0.0,0.0,0.0,0.0,0.0,0.0,-0.4767,-0.6026,-0.7284,-0.7841,-0.7351,-0.635,-0.532,-0.4309,0.0,0.0,0.0,0.0,0.0,0.0,0.0,0.0,0.0,0.0,0.0,0.0,0.0,0.0,0.0,0.0,0.0,0.0,0.0,0.0,0.0,0.0,0.0,0.0,0.0,0.0,0.0,0.0,0.0,0.0,0.0,0.0,0.0,0.0,0.0,0.0,0.0,0.0,0.0,0.0,0.0,0.0,0.0,0.0,0.0,0.0,0.0,0.0,0.0,0.0,0.0,0.0,0.0,0.0,0.0,0.0,0.0,0.0,0.0,0.0,0.0,0.0,0.0,0.0,0.0,0.0,0.0,0.0,0.0,0.0,0.0,0.0,0.0,0.0,0.0,0.0,0.0,0.0,0.0,0.0,0.0,0.0,0.0,0.0,0.0,0.0,0.0,0.0,0.0,0.0,0.0,0.0,0.0,0.0,0.0,0.0,0.0,0.0,0.0,0.0,0.0,0.0,0.0,0.0,-0.5282,-0.6782,-0.7135,-0.706,-0.6525,-0.5657,-0.468,-0.3624,0.0,0.0,0.0,0.0,0.0,0.0,0.0,0.0,0.0,0.0,0.0,0.0,0.0,0.0,0.0,0.0,0.0,0.0,0.0,0.0,0.0,0.0,0.0,0.0,0.0,0.0,0.0,0.0,0.0,0.0,0.0,0.0,0.0,0.0,0.0,0.0,0.0,0.0,0.0,0.0,0.0,0.0,0.0,0.0,0.0,0.0,0.0,0.0,0.0,0.0,0.0,0.0,0.0,0.0,0.0,0.0,0.0,0.0,0.0,0.0,0.0,0.0,0.0,0.0,0.0,0.0,0.0,0.0,0.0,0.0,0.0,0.0,0.0,0.0,0.0,0.0,0.0,0.0,0.0,0.0,0.0,0.0,0.0,0.0,0.0,0.0,0.0,0.0,0.0,0.0,0.0,0.0,0.0,0.0,0.0,0.0,0.0,0.0,0.0,0.0,0.0,0.0,0.0,-0.534,-0.5984,-0.7336,-0.7116,-0.6791,-0.6541,-0.5281,-0.4313,-0.3816,-0.3278,0.0,0.0,0.0,0.0,0.0,0.0,0.0,0.0,0.0,0.0,0.0,0.0,0.0,0.0,0.0,0.0,0.0,0.0,0.0,0.0,0.0,0.0,0.0,0.0,0.0,0.0,0.0,0.0,0.0,0.0,0.0,0.0,0.0,0.0,0.0,0.0,0.0,0.0,0.0,0.0,0.0,0.0,0.0,0.0,0.0,0.0,0.0,0.0,0.0,0.0,0.0,0.0,0.0,0.0,0.0,0.0,0.0,0.0,0.0,0.0,0.0,0.0,0.0,0.0,0.0,0.0,0.0,0.0,0.0,0.0,0.0,0.0,0.0,0.0,0.0,0.0,0.0,0.0,0.0,0.0,0.0,0.0,0.0,0.0,0.0,0.0,0.0,0.0,0.0,0.0,0.0,0.0,0.0,0.0,0.0,0.0,0.0,0.0,0.0,0.0,0.0,0.0,-0.6002,-0.6384,-0.7418,-0.6889,-0.6426,-0.6284,-0.4884,-0.3958,-0.3878,-0.301,0.0,0.0,0.0,0.0,0.0,0.0,0.0,0.0,0.0,0.0,0.0,0.0,0.0,0.0,0.0,0.0,0.0,0.0,0.0,0.0,0.0,0.0,0.0,0.0,0.0,0.0,0.0,0.0,0.0,0.0,0.0,0.0,0.0,0.0,0.0,0.0,0.0,0.0,0.0,0.0,0.0,0.0,0.0,0.0,0.0,0.0,0.0,0.0,0.0,0.0,0.0,0.0,0.0,0.0,0.0,0.0,0.0,0.0,0.0,0.0,0.0,0.0,0.0,0.0,0.0,0.0,0.0,0.0,0.0,0.0,0.0,0.0,0.0,0.0,0.0,0.0,0.0,0.0,0.0,0.0,0.0,0.0,0.0,0.0,0.0,0.0,0.0,0.0,0.0,0.0,0.0,0.0,0.0,0.0,0.0,0.0,0.0,0.0,0.0,0.0,0.0,0.0,-0.6002,-0.6179,-0.6634,-0.6138,-0.5581,-0.507,-0.4231,-0.3571,-0.3204,-0.2919,0.0,0.0,0.0,0.0,0.0,0.0,0.0,0.0,0.0,0.0,0.0,0.0,0.0,0.0,0.0,0.0,0.0,0.0,0.0,0.0,0.0,0.0,0.0,0.0,0.0,0.0,0.0,0.0,0.0,0.0,0.0,0.0,0.0,0.0,0.0,0.0,0.0,0.0,0.0,0.0,0.0,0.0,0.0,0.0,0.0,0.0,0.0,0.0,0.0,0.0,0.0,0.0,0.0,0.0,0.0,0.0,0.0,0.0,0.0,0.0,0.0,0.0,0.0,0.0,0.0,0.0,0.0,0.0,0.0,0.0,0.0,0.0,0.0,0.0,0.0,0.0,0.0,0.0,0.0,0.0,0.0,0.0,0.0,0.0,0.0,0.0,0.0,0.0,0.0,0.0,0.0,0.0,0.0,0.0,0.0,0.0,0.0,0.0,0.0,0.0,0.0,0.0,-0.5625,-0.5778,-0.6179,-0.5659,-0.5131,-0.4806,-0.4119,-0.3562,-0.3235,0.0,0.0,0.0,0.0,0.0,0.0,0.0,0.0,0.0,0.0,0.0,0.0,0.0,0.0,0.0,0.0,0.0,0.0,0.0,0.0,0.0,0.0,0.0,0.0,0.0,0.0,0.0,0.0,0.0,0.0,0.0,0.0,0.0,0.0,0.0,0.0,0.0,0.0,0.0,0.0,0.0,0.0,0.0,0.0,0.0,0.0,0.0,0.0,0.0,0.0,0.0,0.0,0.0,0.0,0.0,0.0,0.0,0.0,0.0,0.0,0.0,0.0,0.0,0.0,0.0,0.0,0.0,0.0,0.0,0.0,0.0,0.0,0.0,0.0,0.0,0.0,0.0,0.0,0.0,0.0,0.0,0.0,0.0,0.0,0.0,0.0,0.0,0.0,0.0,0.0,0.0,0.0,0.0,0.0,0.0,0.0,0.0,0.0,0.0,0.0,0.0,0.0,-0.5351,-0.5388,-0.5497,-0.5778,-0.5339,-0.4927,-0.4628,-0.4126,-0.3703,-0.3411,0.0,0.0,0.0,0.0,0.0,0.0,0.0,0.0,0.0,0.0,0.0,0.0,0.0,0.0,0.0,0.0,0.0,0.0,0.0,0.0,0.0,0.0,0.0,0.0,0.0,0.0,0.0,0.0,0.0,0.0,0.0,0.0,0.0,0.0,0.0,0.0,0.0,0.0,0.0,0.0,0.0,0.0,0.0,0.0,0.0,0.0,0.0,0.0,0.0,0.0,0.0,0.0,0.0,0.0,0.0,0.0,0.0,0.0,0.0,0.0,0.0,0.0,0.0,0.0,0.0,0.0,0.0,0.0,0.0,0.0,0.0,0.0,0.0,0.0,0.0,0.0,0.0,0.0,0.0,0.0,0.0,0.0,0.0,0.0,0.0,0.0,0.0,0.0,0.0,0.0,0.0,0.0,0.0,0.0,0.0,0.0,0.0,0.0,0.0,0.0,0.0,0.0,-0.5333,-0.5388,-0.5388,-0.5388,-0.5216,-0.4904,-0.4436,-0.4219,-0.3958,0.0,0.0,0.0,0.0,0.0,0.0,0.0,0.0,0.0,0.0,0.0,0.0,0.0,0.0,0.0,0.0,0.0,0.0,0.0,0.0,0.0,0.0,0.0,0.0,0.0,0.0,0.0,0.0,0.0,0.0,0.0,0.0,0.0,0.0,0.0,0.0,0.0,0.0,0.0,0.0,0.0,0.0,0.0,0.0,0.0,0.0,0.0,0.0,0.0,0.0,0.0,0.0,0.0,0.0,0.0,0.0,0.0,0.0,0.0,0.0,0.0,0.0,0.0,0.0,0.0,0.0,0.0,0.0,0.0,0.0,0.0,0.0,0.0,0.0,0.0,0.0,0.0,0.0,0.0,0.0,0.0,0.0,0.0,0.0,0.0,0.0,0.0,0.0,0.0,0.0,0.0,0.0,0.0,0.0,0.0,0.0,0.0,0.0,0.0,0.0,0.0,0.0,0.0,-0.4968,-0.4976,-0.4976,-0.4976,-0.4924,-0.4768,-0.4493,-0.4406,-0.4209,-0.3769,0.0,0.0,0.0,0.0,0.0,0.0,0.0,0.0,0.0,0.0,0.0,0.0,0.0,0.0,0.0,0.0,0.0,0.0,0.0,0.0,0.0,0.0,0.0,0.0,0.0,0.0,0.0,0.0,0.0,0.0,0.0,0.0,0.0,0.0,0.0,0.0,0.0,0.0,0.0,0.0,0.0,0.0,0.0,0.0,0.0,0.0,0.0,0.0,0.0,0.0,0.0,0.0,0.0,0.0,0.0,0.0,0.0,0.0,0.0,0.0,0.0,0.0,0.0,0.0,0.0,0.0,0.0,0.0,0.0,0.0,0.0,0.0,0.0,0.0,0.0,0.0,0.0,0.0,0.0,0.0,0.0,0.0,0.0,0.0,0.0,0.0,0.0,0.0,0.0,0.0,0.0,0.0,0.0,0.0,0.0,0.0,0.0,0.0,0.0,0.0,0.0,0.0,-0.5105,-0.5082,-0.509,-0.5111,-0.508,-0.4916,-0.4634,-0.4624,-0.4453,-0.4071,0.0,0.0,0.0,0.0,0.0,0.0,0.0,0.0,0.0,0.0,0.0,0.0,0.0,0.0,0.0,0.0,0.0,0.0,0.0,0.0,0.0,0.0,0.0,0.0,0.0,0.0,0.0,0.0,0.0,0.0,0.0,0.0,0.0,0.0,0.0,0.0,0.0,0.0,0.0,0.0,0.0,0.0,0.0,0.0,0.0,0.0,0.0,0.0,0.0,0.0,0.0,0.0,0.0,0.0,0.0,0.0,0.0,0.0,0.0,0.0,0.0,0.0,0.0,0.0,0.0,0.0,0.0,0.0,0.0,0.0,0.0,0.0,0.0,0.0,0.0,0.0,0.0,0.0,0.0,0.0,0.0,0.0,0.0,0.0,0.0,0.0,0.0,0.0,0.0,0.0,0.0,0.0,0.0,0.0,0.0,0.0,0.0,0.0,0.0,0.0,0.0,0.0,-0.5549,-0.5502,-0.5498,-0.558,-0.5465,-0.5197,-0.484,-0.4793,-0.4684,-0.4423,0.0,0.0,0.0,0.0,0.0,0.0,0.0,0.0,0.0,0.0,0.0,0.0,0.0,0.0,0.0,0.0,0.0,0.0,0.0,0.0,0.0,0.0,0.0,0.0,0.0,0.0,0.0,0.0,0.0,0.0,0.0,0.0,0.0,0.0,0.0,0.0,0.0,0.0,0.0,0.0,0.0,0.0,0.0,0.0,0.0,0.0,0.0,0.0,0.0,0.0,0.0,0.0,0.0,0.0,0.0,0.0,0.0,0.0,0.0,0.0,-1.232,-0.9639,0.0,0.0,0.0,0.0,0.0,0.0,0.0,0.0,0.0,0.0,0.0,0.0,0.0,0.0,0.0,0.0,0.0,0.0,0.0,0.0,0.0,0.0,0.0,0.0,0.0,0.0,0.0,0.0,0.0,0.0,0.0,0.0,0.0,0.0,0.0,0.0,0.0,0.0,0.0,0.0,-0.5549,-0.5311,-0.5225,-0.5557,-0.524,-0.4985,-0.4882,-0.4833,-0.4704,-0.4486,-0.4486,0.0,0.0,0.0,0.0,0.0,0.0,0.0,0.0,0.0,0.0,0.0,0.0,0.0,0.0,0.0,0.0,0.0,0.0,0.0,0.0,0.0,0.0,0.0,0.0,0.0,0.0,0.0,0.0,0.0,0.0,0.0,0.0,0.0,0.0,0.0,0.0,0.0,0.0,0.0,0.0,0.0,0.0,0.0,0.0,0.0,0.0,0.0,0.0,0.0,0.0,0.0,0.0,0.0,0.0,0.0,0.0,0.0,0.0,0.0,-1.6148,-1.3928,0.0,0.0,0.0,0.0,0.0,0.0,0.0,0.0,0.0,0.0,0.0,0.0,0.0,0.0,0.0,0.0,0.0,0.0,0.0,0.0,0.0,0.0,0.0,0.0,0.0,0.0,0.0,0.0,0.0,0.0,0.0,0.0,0.0,0.0,0.0,0.0,0.0,0.0,0.0,0.0,-0.6264,-0.6105,-0.5959,-0.5978,-0.57,-0.5365,-0.4989,-0.4912,-0.4833,-0.4696,-0.4686,0.0,0.0,0.0,0.0,0.0,0.0,0.0,0.0,0.0,0.0,0.0,0.0,0.0,0.0,0.0,0.0,0.0,0.0,0.0,0.0,0.0,0.0,0.0,0.0,0.0,0.0,0.0,0.0,0.0,0.0,0.0,0.0,0.0,0.0,0.0,0.0,0.0,0.0,0.0,0.0,0.0,0.0,0.0,0.0,0.0,0.0,0.0,0.0,0.0,0.0,0.0,0.0,0.0,-2.22,-2.2703,-2.2949,-2.3025,-2.3828,-2.4958,-2.1181,-1.9782,-1.9907,-1.6671,0.0,0.0,0.0,0.0,0.0,0.0,0.0,0.0,0.0,0.0,0.0,0.0,0.0,0.0,0.0,0.0,0.0,0.0,0.0,0.0,0.0,0.0,-1.1011,-1.2255,-1.2,-1.0865,-0.8474,0.0,0.0,0.0,0.0,0.0,0.0,0.0,0.0,0.0,0.0,0.0,-0.7051,-0.6972,-0.6804,-0.6545,-0.6342,-0.5932,-0.519,-0.5104,-0.5046,-0.4932,-0.4922,-0.4892,0.0,0.0,0.0,0.0,0.0,0.0,0.0,0.0,0.0,0.0,0.0,0.0,0.0,0.0,0.0,0.0,0.0,0.0,0.0,0.0,0.0,0.0,0.0,0.0,0.0,0.0,0.0,0.0,0.0,0.0,0.0,0.0,-1.6545,-1.5588,0.0,0.0,0.0,0.0,0.0,0.0,0.0,0.0,0.0,0.0,0.0,0.0,0.0,-2.2824,-2.5937,-2.7067,-2.7609,-2.7709,-2.9252,-2.9528,-2.8699,-2.9202,-2.9528,-2.9704,-2.9088,0.0,-2.1841,-2.041,0.0,0.0,0.0,0.0,0.0,0.0,0.0,0.0,0.0,0.0,0.0,0.0,0.0,0.0,0.0,0.0,0.0,0.0,0.0,0.0,0.0,0.0,-1.6713,-1.7316,-1.6478,-1.5305,-1.4427,-1.1068,-0.8051,-0.746,-0.7163,-0.6875,0.0,0.0,0.0,0.0,0.0,0.0,-0.7051,-0.6726,-0.6609,-0.6959,-0.6642,-0.6167,-0.5653,-0.5562,-0.5359,-0.5019,-0.4981,-0.4971,-0.498,-0.4813,0.0,0.0,0.0,0.0,0.0,0.0,0.0,0.0,0.0,0.0,0.0,0.0,0.0,0.0,0.0,0.0,0.0,0.0,0.0,0.0,0.0,0.0,0.0,0.0,0.0,0.0,0.0,0.0,0.0,-1.6232,-1.8035,-1.6344,-1.7657,-1.7288,0.0,0.0,0.0,0.0,0.0,0.0,0.0,0.0,0.0,-2.4563,-2.5234,-2.6716,-2.9126,-3.0231,-3.0934,-3.126,-3.2315,-3.2717,-3.2566,-3.2817,-3.2918,-3.2918,-3.2591,-3.0909,-2.8097,-2.4808,-2.2071,-1.9811,0.0,0.0,0.0,0.0,-1.7591,-1.7915,-2.0069,-2.0807,-2.098,-2.2095,0.0,0.0,0.0,0.0,0.0,0.0,0.0,-1.6881,0.0,-1.9293,-1.9376,-2.0338,-1.9894,-1.9123,-1.8851,-1.5826,-1.2399,-0.9745,-0.8664,-0.8027,-0.7612,-0.748,0.0,0.0,0.0,-0.7612,-0.7808,-0.7651,-0.75,-0.7447,-0.7044,-0.6596,-0.6125,-0.5862,-0.5628,-0.5412,-0.5183,-0.5039,-0.5009,-0.4912,-0.4872,0.0,0.0,0.0,0.0,0.0,0.0,0.0,0.0,0.0,0.0,0.0,0.0,0.0,0.0,0.0,0.0,0.0,0.0,0.0,0.0,0.0,0.0,0.0,0.0,0.0,0.0,0.0,0.0,-1.8267,-2.0294,-1.8478,-2.0733,-2.0709,0.0,0.0,0.0,0.0,0.0,0.0,-2.4702,-2.4972,-2.6238,-2.8695,-2.9454,-3.0655,-3.2499,-3.3156,-3.3745,-3.4281,-3.464,-3.4921,-3.5152,-3.5152,-3.5127,-3.5193,-3.4791,-3.4357,-3.3561,-2.8849,-2.6063,-2.4607,-2.2221,-2.079,-2.0211,-2.1468,-2.1948,-2.2326,-2.4782,-2.5628,-2.5837,-2.6977,-2.6675,-2.536,-2.2874,0.0,0.0,0.0,0.0,-2.0471,-2.2468,-2.26,-2.2506,-2.3716,-2.3477,-2.2924,-2.2739,-2.0437,-1.7123,-1.2794,-1.067,-0.9443,-0.8996,-0.8598,0.0,0.0,0.0,-0.8872,-0.8872,-0.8776,-0.8537,-0.8079,-0.7675,-0.7207,-0.6641,-0.6301,-0.6004,-0.5735,-0.5456,-0.5204,-0.5039,-0.502,-0.502,-0.502,0.0,0.0,0.0,0.0,0.0,0.0,0.0,0.0,0.0,0.0,0.0,0.0,0.0,0.0,0.0,0.0,0.0,0.0,0.0,0.0,0.0,0.0,0.0,0.0,0.0,0.0,0.0,0.0,0.0,-2.3216,-2.6329,0.0,0.0,0.0,0.0,-2.7993,-2.6569,-2.7773,-3.2751,-3.0708,-3.1126,-3.4922,-3.4589,-3.541,-3.7595,-3.716,-3.707,-3.7369,-3.7394,-3.6998,-3.6329,-3.6329,-3.6424,-3.6586,-3.6561,-3.6416,-3.5833,-3.1969,-2.9076,-2.6992,-2.5787,-2.433,-2.3095,-2.4757,-2.5335,-2.5586,-2.7344,-2.7946,-2.8122,-2.9252,-2.8209,-2.6122,-2.4381,-2.2673,0.0,0.0,-2.3753,-2.4224,-2.644,-2.7369,-2.7835,-2.8411,-2.777,-2.6876,-2.6348,-2.441,-2.1383,-1.6545,-1.3235,-1.1006,-1.0393,0.0,-0.9966,-0.9401,-0.9761,-1.0101,-1.0101,-0.9782,-0.938,-0.8989,-0.8571,-0.7984,-0.7129,-0.7051,-0.668,-0.5851,-0.5773,-0.5566,-0.5127,-0.5098,-0.5098,-0.5098,-0.5098,0.0,0.0,0.0,0.0,0.0,0.0,0.0,0.0,0.0,0.0,0.0,0.0,0.0,0.0,0.0,0.0,0.0,0.0,0.0,0.0,0.0,0.0,0.0,0.0,0.0,0.0,0.0,0.0,-2.7792,-3.1317,0.0,-2.8828,-2.9574,-3.0602,-3.1454,-3.2602,-3.4369,-3.6825,-3.6156,-3.6422,-3.8028,-3.7603,-3.7719,-3.8515,-3.8335,-3.8313,-3.8347,-3.8347,-3.8018,-3.7435,-3.7435,-3.7279,-3.6968,-3.6968,-3.6887,-3.6698,-3.4958,-3.2844,-3.0593,-2.929,-2.8247,-2.7544,-2.8473,-2.9051,-2.9453,-3.0407,-3.0758,-3.0708,-3.0407,-2.9302,-2.7946,-2.7308,-2.6766,-2.6414,-2.7017,-2.7444,-2.7921,-2.8699,-2.9051,-2.9252,-2.9428,-2.9176,-2.885,-2.8649,-2.6851,-2.4772,-2.3039,-1.9296,-1.6219,-1.5753,-1.4241,-1.2962,-1.2663,-1.2121,-1.1588,-1.1169,-1.0983,-1.0594,-0.9855,-0.941,-0.8824,-0.7999,-0.7656,-0.7232,-0.6673,-0.6348,-0.6113,-0.5946,-0.5946,-0.5946,-0.5946,-0.5934,-0.5923,0.0,0.0,0.0,0.0,0.0,0.0,0.0,0.0,0.0,0.0,0.0,0.0,0.0,0.0,0.0,0.0,0.0,0.0,0.0,0.0,0.0,0.0,0.0,0.0,0.0,-2.8971,-3.3209,-3.255,-3.6599,-3.8177,-3.4831,-3.5897,-3.6902,-3.7142,-3.8678,-4.0048,-4.114,-4.0729,-4.0695,-4.1113,-4.0629,-4.0271,-4.0144,-3.9961,-3.9537,-3.8946,-3.8946,-3.8512,-3.7698,-3.7698,-3.754,-3.7201,-3.7201,-3.732,-3.7341,-3.6908,-3.5615,-3.3871,-3.2701,-3.1909,-3.1453,-3.1833,-3.1978,-3.2138,-3.2407,-3.2516,-3.2365,-3.1461,-3.0658,-2.9966,-2.9829,-2.9754,-2.9754,-2.9754,-3.003,-3.0331,-3.0331,-3.0206,-3.008,-3.008,-2.993,-2.9804,-2.9804,-2.8661,-2.763,-2.763,-2.3599,-2.0029,-1.939,-1.7797,-1.65,-1.6216,-1.4951,-1.3962,-1.3674,-1.2855,-1.1953,-1.0981,-1.0512,-0.9818,-0.8707,-0.8444,-0.7985,-0.7162,-0.692,-0.6706,-0.6414,-0.6394,-0.6394,-0.6394,-0.6394,-0.6484,-0.6641,0.0,0.0,0.0,0.0,0.0,0.0,0.0,0.0,0.0,0.0,0.0,0.0,0.0,0.0,0.0,0.0,0.0,0.0,0.0,0.0,0.0,0.0,0.0,-2.8594,-3.3435,-3.7297,-3.7729,-4.2342,-4.4766,-4.286,-4.3778,-4.4766,-4.5364,-4.4579,-4.4589,-4.5795,-4.439,-4.3786,-4.4331,-4.374,-4.3204,-4.2792,-4.2222,-4.1036,-3.9239,-3.9288,-3.8523,-3.716,-3.718,-3.732,-3.7505,-3.7505,-3.7644,-3.7854,-3.7598,-3.724,-3.667,-3.5852,-3.5153,-3.4597,-3.4597,-3.4109,-3.3386,-3.3197,-3.3111,-3.3036,-3.2416,-3.224,-3.2139,-3.1612,-3.1436,-3.1436,-3.1411,-3.1386,-3.1386,-3.1361,-3.0959,-3.0583,-3.0583,-3.0181,-2.9804,-2.9804,-2.9804,-2.9804,-2.9804,-2.5862,-2.2167,-2.1062,-2.0732,-2.0428,-1.9853,-1.8191,0.0,-1.7701,-1.5503,-1.3523,-1.2524,-1.2057,-1.1132,-0.9398,-0.9608,-0.9133,-0.746,-0.7685,-0.7495,-0.6666,-0.6582,-0.6582,-0.6582,-0.657,-0.6816,-0.7285,0.0,0.0,0.0,0.0,0.0,0.0,0.0,0.0,0.0,0.0,0.0,0.0,0.0,0.0,0.0,0.0,0.0,0.0,0.0,0.0,0.0,-3.127,-3.468,-3.4258,-3.9271,-4.3758,-4.5783,-4.8536,-4.9912,-4.8895,-4.8686,-4.8476,-4.8251,-4.797,-4.7733,-4.7644,-4.6512,-4.5734,-4.5372,-4.4514,-4.3648,-4.2792,-4.2629,-4.1962,-4.0728,-4.094,-4.0309,-3.8912,-3.9144,-3.8747,-3.7808,-3.7808,-3.7854,-3.79,-3.7808,-3.7704,-3.7475,-3.6444,-3.5442,-3.4597,-3.4597,-3.4169,-3.3598,-3.3556,-3.3556,-3.3488,-3.3166,-3.3073,-3.3005,-3.2726,-3.2616,-3.2441,-3.1612,-3.1386,-3.121,-3.0432,-3.0131,-3.0005,-3.0005,-2.9905,-2.9804,-2.9804,-2.9804,-2.9804,-2.9804,-2.8674,-2.7519,-2.6756,-2.4976,-2.351,-2.3268,-2.1439,0.0,-1.9487,-1.8795,-1.8057,-1.7344,-1.7194,-1.6531,-1.5082,-1.5057,-1.4429,-1.2853,-1.2124,-1.1797,-1.1839,-1.0764,-1.0312,-1.0605,-1.0605,-1.0839,0.0,0.0,0.0,0.0,0.0,0.0,0.0,0.0,0.0,0.0,0.0,0.0,0.0,0.0,0.0,0.0,0.0,0.0,0.0,0.0,0.0,0.0,-3.6716,-4.0666,-4.2043,-4.4975,-4.7938,-5.0647,-5.1917,-5.2576,-5.2486,-5.1618,-5.09,-5.0511,-4.9972,-4.9494,-4.9134,-4.831,-4.755,-4.6874,-4.6305,-4.5356,-4.405,-4.3654,-4.2828,-4.1546,-4.151,-4.1053,-4.0213,-3.9887,-3.941,-3.8857,-3.8188,-3.79,-3.79,-3.79,-3.79,-3.7828,0.0,0.0,0.0,0.0,-3.4161,-3.3852,-3.3768,-3.3725,-3.3683,-3.3556,-3.3471,-3.3386,-3.3283,-3.3154,-3.2943,-3.229,-3.1913,-3.1637,-3.126,-3.0658,-3.0181,-3.0407,-3.0131,-2.9804,-2.9804,-2.9804,-2.9804,-2.9804,-2.9804,0.0,-2.9352,-2.757,-2.623,-2.6386,-2.4097,-2.2362,-2.2362,-2.1264,-2.0312,-1.9765,-1.9439,-1.8679,-1.7382,-1.7113,0.0,0.0,0.0,-1.4147,-1.3907,-1.3034,0.0,0.0,0.0,-1.2637,-1.2915,0.0,0.0,0.0,-1.1582,-1.18,0.0,0.0,0.0,0.0,0.0,0.0,0.0,0.0,0.0,0.0,0.0,0.0,0.0,0.0,0.0,0.0,-4.2312,-4.686,-5.0076,-5.0152,-5.0737,-5.3025,-5.3354,-5.3653,-5.4251,-5.3174,-5.2396,-5.2306,-5.1169,-5.0345,-5.0196,-4.9673,0.0,0.0,0.0,-4.7496,-4.5824,-4.4915,-4.3705,-4.2147,-4.1548,-4.1221,-4.1066,-3.9969,-3.9635,-3.9888,-3.8588,-3.7992,-3.79,-3.79,-3.79,-3.79,-3.7821,-3.7116,-3.5922,-3.4682,-3.4182,-3.4105,-3.3852,0.0,0.0,-3.3768,-3.3598,-3.3471,-3.3428,-3.3283,-3.3111,-3.3036,-3.2659,-3.2315,-3.2767,-3.1788,-3.0809,-3.121,-3.0583,-2.9854,-2.9804,-2.9804,-2.9804,-2.9804,-2.9804,-2.9804,-2.9804,-2.89,-2.8373,-2.8813,-2.6261,-2.4621,-2.5544,-2.3375,-2.1601,-2.1156,0.0,0.0,-1.8372,-1.7922,-1.72,-1.5935,-1.6111,-1.5697,-1.4513,-1.4485,-1.4208,-1.353,-1.3544,-1.3578,-1.3535,-1.3625,-1.4402,-1.5801,-1.4004,-1.3306,0.0,0.0,0.0,0.0,0.0,0.0,0.0,0.0,0.0,0.0,0.0,0.0,0.0,0.0,0.0,-4.0008,-4.5076,-4.9464,-5.2217,-5.2965,-5.3443,-5.3952,-5.4491,-5.485,-5.497,-5.4281,-5.3593,-5.3025,-5.2276,-5.1349,-5.0255,-5.0076,-4.9523,-4.8327,-4.8297,-4.7496,-4.5824,-4.5598,-4.4949,-4.3836,-4.3175,0.0,-4.1094,-4.1079,-4.0049,-3.8352,-3.8756,-3.8549,-3.79,-3.79,-3.79,-3.7848,-3.7351,-3.6724,-3.6018,-3.5322,-3.4773,-3.4314,-3.4272,-3.4272,-3.423,-3.4063,-3.3979,-3.3894,-3.3725,-3.3513,0.0,-3.2811,-3.2483,-3.2139,-3.1788,-3.1486,-3.116,-3.0834,-3.0608,-3.0331,-2.988,-2.9804,-2.9804,-2.9804,-2.9804,-2.9804,-2.9804,-2.9227,-2.8762,-2.8863,-2.796,-2.7147,-2.6781,-2.6188,-2.5772,-2.5502,-2.5335,-2.4982,-2.4312,-2.3782,-2.3018,-2.191,-2.0872,-1.9552,-1.7926,-1.8166,-1.8025,-1.7349,-1.7667,-1.7696,-1.7486,-1.804,-1.8375,-1.8477,-1.6055,-1.5664,0.0,0.0,0.0,0.0,0.0,0.0,0.0,0.0,0.0,0.0,0.0,-3.0941,0.0,0.0,-4.1324,-4.5603,-4.9374,-5.2306,-5.3952,-5.476,-5.5059,-5.473,-5.4999,-5.5059,-5.473,-5.4072,-5.3414,-5.2725,-5.2067,-5.1439,-5.0734,-5.0375,-4.9793,-4.8805,-4.8446,-4.7717,-4.655,-4.6077,-4.5424,-4.4762,-4.4294,-4.3737,-4.3109,-4.201,-4.1074,-4.0178,-3.9042,-3.8304,-3.79,-3.79,-3.79,-3.7874,-3.756,-3.6907,-3.6044,-3.5495,-3.492,-3.4397,-3.4397,-3.4397,-3.4397,-3.4272,-3.4189,-3.4089,-3.3937,-3.3725,-3.3505,-3.3224,-3.2777,-3.2382,-3.2382,-3.1896,-3.1386,-3.1411,-3.1009,-3.0532,-3.0256,-2.998,-2.9804,-2.9804,-2.9804,-2.9804,-2.9804,-2.9553,-2.9352,-2.9352,-2.8649,-2.806,-2.795,-2.7701,-2.739,-2.7033,-2.6664,-2.6223,-2.5713,-2.4821,-2.4067,-2.3526,-2.2587,-2.1627,-2.0631,-2.0773,-2.0693,-2.0213,-2.0384,-2.0176,-1.955,-1.9987,-1.9945,-1.9439,-1.822,-1.8014,0.0,0.0,0.0,0.0,0.0,0.0,0.0,0.0,-2.8637,-3.115,-3.3574,-3.6537,-4.0935,-4.3359,-4.6232,-5.084,-5.3054,-5.4491,-5.5269,-5.5628,-5.5598,-5.5059,-5.5119,-5.494,-5.4281,-5.3713,-5.3054,-5.2247,-5.1708,-5.1289,-5.1003,-5.0614,-5.0062,-4.9329,-4.879,-4.8147,-4.7489,-4.6358,-4.5722,-4.5608,-4.4994,-4.4738,-4.479,-4.284,-4.1992,-4.1965,-3.9301,-3.8057,-3.79,-3.79,-3.79,-3.79,-3.79,-3.7246,-3.6227,-3.5783,-3.5234,-3.4711,-3.4607,-3.458,-3.4554,-3.4424,-3.4272,-3.4147,-3.4147,-3.3979,-3.3768,-3.3768,-3.3308,-3.2911,-3.3284,-3.26,-3.187,-3.2139,-3.1562,-3.0884,-3.0783,-3.0407,-3.0105,-3.0105,-3.0105,-3.008,-2.9955,-2.9955,-2.9905,-2.9804,-2.9026,-2.8549,-2.8838,-2.8512,-2.8047,-2.7494,-2.6937,-2.6317,-2.5669,-2.469,-2.3966,-2.3737,-2.3318,-2.2994,-2.2805,-2.2772,-2.2601,-2.2241,-2.2181,-2.1704,-2.0713,-2.0889,-2.0571,-1.9862,-2.0119,-1.9909,-2.7859,-2.726,-2.7675,-2.9866,-2.8278,-2.741,0.0,0.0,-3.6686,-3.8751,-4.2162,-4.5125,-4.6322,-4.8147,-5.0242,-5.2576,-5.3653,-5.464,-5.5897,-5.5119,-5.4401,-5.4341,-5.485,-5.494,-5.4281,-5.4132,-5.3563,-5.2306,-5.2127,-5.1588,-5.0375,-5.084,-5.0541,-4.9359,-4.9239,-4.888,-4.8177,-4.6593,-4.624,-4.705,-4.5207,-4.4068,-4.36,-4.3255,-4.2129,-4.0323,-3.9419,-3.8639,-3.79,-3.79,-3.79,-3.79,-3.79,-3.7482,-3.6907,-3.6828,-3.6436,-3.5835,-3.5365,-3.5208,-3.5103,-3.458,-3.4397,-3.4356,-3.4356,-3.423,-3.4089,-3.4089,-3.3801,-3.3564,-3.3428,-3.331,-3.3022,-3.2357,-3.2114,-3.1888,-3.1411,-3.126,-3.121,-3.121,-3.121,-3.106,-3.0608,-3.0532,-3.0357,-2.9854,-2.9679,-2.9453,-2.8938,-2.8838,-2.8624,-2.8072,-2.7946,-2.7458,-2.6465,-2.6264,-2.5661,-2.4549,-2.4424,-2.4295,-2.4092,-2.4092,-2.3788,-2.3146,-2.2867,-2.2328,-2.1573,-2.1462,-2.1197,-2.0757,-2.112,-2.0808,-3.2048,-3.2108,-3.2467,0.0,-3.4233,-3.54,-3.8427,-4.0576,-4.2581,-4.4586,-4.7219,-4.9494,-5.0541,-5.2037,-5.3384,0.0,-5.5209,-5.5688,-5.5119,-5.4551,-5.3773,-5.2606,-5.2695,-5.2935,-5.3025,-5.3054,-5.2636,-5.1708,-5.1618,-5.1379,-5.0794,-5.0674,-5.0212,-4.9329,-4.894,-4.8386,-4.7728,-4.7006,-4.6801,-4.6931,-4.5727,-4.5247,-4.5258,-4.3585,-4.164,-3.959,-3.9319,-3.8988,-3.8684,-3.8684,-3.8684,-3.8594,-3.8103,-3.7743,-3.7456,-3.675,-3.6332,-3.6018,-3.5495,-3.5495,-3.5678,-3.5103,-3.492,-3.4868,-3.4502,-3.4356,-3.4272,-3.4272,-3.4105,-3.3894,-3.3641,-3.3471,-3.3292,-3.281,-3.2466,-3.2139,-3.1913,-3.1612,-3.1386,-3.1386,-3.1386,-3.1311,-3.111,-3.106,-3.0884,-3.0357,-3.0005,-2.9704,-2.9478,-2.9428,-2.9227,-2.8649,-2.8298,-2.7795,-2.7027,-2.6675,-2.6113,-2.5236,-2.4911,-2.4828,-2.5062,-2.5062,-2.5012,-2.4983,-2.4389,-2.3881,-2.3428,-2.261,-2.2101,-2.1928,-2.1759,-2.1439,-3.3694,0.0,0.0,-3.6896,-3.92,-4.1654,-4.3399,-4.5125,-4.689,-4.8716,-5.0361,-5.1828,-5.2965,-5.4132,-5.497,-5.5149,-5.5957,-5.6077,-5.467,-5.3862,-5.2785,-5.1139,-5.0481,-5.0391,-5.105,-5.1618,-5.1738,-5.1259,-5.1229,-5.1139,-5.0913,-5.0614,-5.0122,-4.9329,-4.885,-4.8237,-4.7578,-4.7108,-4.6875,-4.6852,-4.6146,-4.5953,-4.6094,-4.371,-4.1567,-3.9854,-3.9924,-3.9694,-3.921,-3.921,-3.9033,-3.8747,-3.8148,-3.79,-3.7769,-3.6724,-3.6462,-3.6488,-3.5783,-3.5783,-3.5992,-3.5286,-3.5051,-3.4972,-3.4528,-3.4528,-3.4659,-3.4659,-3.4533,-3.4364,-3.4084,-3.3811,-3.3513,-3.324,-3.2827,-3.2525,-3.2441,-3.2139,-3.1863,-3.1863,-3.1863,-3.1813,-3.1637,-3.1612,-3.1436,-3.0909,-3.0357,-2.9955,-2.9804,-2.9804,-2.9628,-2.9164,-2.88,-2.8348,-2.7795,-2.7369,-2.6876,-2.6113,-2.5711,-2.5611,-2.5837,-2.5837,-2.6004,-2.6292,-2.5264,-2.4671,-2.4528,-2.3128,-2.2419,-2.2381,-2.1911,-2.1683,0.0,0.0,-3.7225,-4.0427,-4.2252,-4.3988,-4.6561,-4.8177,-4.9569,-5.084,-5.1678,-5.2366,-5.3054,-5.3773,-5.4431,-5.5089,-5.5209,-5.5239,-5.5179,-5.2935,-5.105,-5.0315,-4.8596,-4.7668,0.0,-5.0122,-5.1229,-5.1229,-5.1229,-5.093,-5.0255,-5.0794,-5.0601,-4.9359,-4.9299,-4.897,-4.8267,-4.6667,-4.6329,-4.7296,-4.6255,-4.5459,-4.4806,-4.3429,-4.231,-4.1459,-4.1778,-4.0901,-3.921,-3.921,-3.8702,-3.7946,-3.79,-3.79,-3.7821,-3.7194,-3.7351,-3.7691,-3.6488,-3.6096,-3.5913,-3.4789,-3.4424,-3.4424,-3.4397,-3.4816,-3.526,-3.526,-3.526,-3.5174,-3.496,-3.4477,-3.3962,-3.3471,-3.3386,-3.3343,-3.3086,-3.3086,-3.3061,-3.3061,-3.3061,-3.2842,-3.229,-3.219,-3.1989,-3.1461,-3.0934,-3.0407,-2.9854,-2.9804,-2.9779,-2.9754,-2.9754,-2.9503,-2.8888,-2.8838,-2.8398,-2.7329,-2.7218,-2.7002,-2.6499,-2.6474,-2.6474,-2.6499,-2.4921,-2.4108,-2.4108,-2.2569,-2.1741,-2.155,-2.1512,-2.1397,0.0,0.0,-4.0883,-4.2851,-4.5334,-4.7638,-4.8955,-5.0272,-5.1079,-5.0614,-4.9703,-4.8745,-4.8087,-4.8865,-4.9853,-5.0511,-5.2815,-5.4371,-5.3922,-5.3084,-5.1468,-4.8626,-4.8087,0.0,0.0,0.0,0.0,-5.0435,-5.0182,-5.0212,-5.0794,-5.1109,-5.081,-4.9942,-4.9494,-4.9,-4.8297,-4.7302,-4.6975,-4.7309,-4.6975,-4.583,-4.4139,-4.3718,-4.2909,-4.1793,-4.1311,-4.0731,-4.0087,-3.9475,-3.9033,-3.8729,-3.8148,-3.79,-3.7874,-3.7665,-3.7743,-3.7795,-3.6985,-3.6959,-3.7168,-3.6384,-3.5861,-3.5521,-3.5521,-3.5417,-3.5365,-3.573,-3.5835,-3.5792,-3.5574,-3.5331,-3.5055,-3.4349,-3.4099,-3.3868,-3.3401,-3.3197,-3.3111,-3.3111,-3.3111,-3.3061,-3.2817,-3.2792,-3.2591,-3.2014,-3.1185,-3.0407,-2.9854,-2.9804,-2.9804,-2.9804,-2.9804,-2.9553,-2.8938,-2.8888,-2.8448,-2.7379,-2.7293,-2.7077,-2.6524,-2.6499,-2.6499,-2.6499,-2.5441,-2.4909,-2.4886,-2.335,-2.2553,-2.2478,-2.1949,-2.1645,0.0,-4.0696,-4.3878,-4.5633,-4.8027,-5.0062,-5.0435,-5.087,-5.084,-4.9763,-4.7578,-4.5544,-4.4436,-4.4945,-4.5843,-4.6711,-4.9613,-5.1917,-5.2396,-5.1887,-5.0661,-4.8596,-4.8117,-4.7519,0.0,0.0,0.0,-4.9404,-4.9583,-4.9972,-5.0794,-5.1079,-5.0853,-5.0226,-4.9613,-4.9,-4.8297,-4.7638,-4.7309,-4.7309,-4.6694,-4.5679,-4.432,-4.373,-4.3131,-4.2456,-4.1852,-4.1365,-4.1029,-4.0475,-3.9826,-3.9166,-3.8594,-3.8194,-3.79,-3.79,-3.79,-3.7821,-3.722,-3.7246,-3.7482,-3.6881,-3.641,-3.6096,-3.6096,-3.6018,-3.5992,-3.6332,-3.6436,-3.6392,-3.6259,-3.6059,-3.5755,-3.5156,-3.4948,-3.462,-3.3885,-3.3629,-3.3449,-3.3162,-3.3111,-3.3111,-3.3111,-3.3111,-3.2893,-3.229,-3.1461,-3.0708,-3.0156,-2.9905,-2.9804,-2.9804,-2.9804,-2.9654,-2.9277,-2.9227,-2.885,-2.7921,-2.7695,-2.7344,-2.6826,-2.66,-2.6499,-2.6499,-2.5711,-2.5158,-2.4874,-2.3607,-2.2852,-2.2553,-2.2025,-2.1797,-3.9313,-4.2611,-4.6172,-4.876,-5.0301,-5.1199,-5.1139,-5.0092,-4.897,-4.8177,-4.5274,-4.2671,0.0,0.0,-4.2351,-4.3688,-4.5813,-4.8207,-5.081,-4.9703,-4.9045,0.0,0.0,0.0,0.0,0.0,0.0,-4.8207,-4.9434,-5.0136,-5.0255,-5.0823,-5.0883,-5.0255,-4.9643,-4.906,-4.8386,-4.7698,-4.7339,-4.7309,-4.5654,-4.5052,-4.5233,-4.3617,-4.3013,-4.329,-4.325,-4.2739,-4.2005,-4.1893,-4.0817,-3.921,-3.9166,-3.8639,-3.79,-3.79,-3.79,-3.7821,-3.7246,-3.7063,-3.6959,-3.6384,-3.6175,-3.6149,-3.6175,-3.6567,-3.7011,-3.7063,-3.7063,-3.7063,-3.709,-3.6645,-3.6157,-3.5911,-3.5867,-3.5579,-3.4557,-3.4343,-3.4078,-3.3287,-3.3187,-3.3162,-3.3162,-3.3136,-3.2893,-3.234,-3.1763,-3.121,-3.0683,-3.0131,-2.9804,-2.9804,-2.9804,-2.9804,-2.9804,-2.9804,-2.9553,-2.8938,-2.8423,-2.7896,-2.7293,-2.6826,-2.6524,-2.6499,-2.5746,-2.4945,-2.4108,-2.3423,-2.2628,-2.1797,-2.1797,-2.1797,-4.3389,-4.6698,-4.9209,-5.0421,-5.096,-5.096,-5.0002,-4.8356,-4.6591,-4.4945,-4.0397,-3.6387,0.0,0.0,0.0,-3.8093,-4.3449,0.0,-5.0136,-5.2187,0.0,-5.1122,0.0,-5.0242,-4.8446,-4.8416,0.0,-4.8297,-4.8596,-4.9434,-5.09,-5.1139,-5.1139,-5.0913,-5.0331,-4.9912,-4.9687,-4.8596,-4.7788,-4.7309,-4.6364,-4.5679,-4.5274,-4.434,-4.3686,-4.325,-4.2618,-4.2211,-4.1893,-4.0518,-3.9651,-3.9121,-3.8459,-3.8103,-3.79,-3.79,-3.79,-3.7874,-3.7717,-3.7665,-3.7665,-3.7508,-3.7142,-3.6854,-3.7299,-3.7246,-3.7194,-3.8031,-3.7978,-3.7769,-3.8161,-3.7874,-3.7325,-3.6791,-3.6418,-3.5994,-3.5251,-3.4553,-3.4086,-3.4248,-3.3972,-3.3696,-3.3696,-3.3345,-3.3061,-3.2867,-3.2014,-3.121,-3.0683,-3.0131,-2.9804,-2.9804,-2.9804,-2.9804,-2.9804,-2.9804,-2.9553,-2.8938,-2.8762,-2.8298,-2.7318,-2.7178,-2.6927,-2.6499,-2.6302,-2.5511,-2.4108,-2.3913,-2.3106,-2.1797,-2.1797,-2.1797,-4.6877,-4.9763,-5.1558,-5.1618,-5.1439,-5.0481,-4.7728,-4.5334,-4.2821,-3.9679,-3.5459,0.0,-3.0582,-3.0582,0.0,0.0,0.0,0.0,-4.9598,-5.1858,-5.2905,0.0,-5.2606,0.0,-5.0571,-5.0242,-5.0092,-5.0002,-4.9464,-4.9613,-5.0674,-5.105,-5.1229,-5.1229,-5.0823,-5.0391,-4.9823,-4.9075,-4.8237,-4.7309,-4.6458,-4.5968,-4.5681,-4.4917,-4.4235,-4.3708,-4.3223,-4.2638,-4.1935,-4.1281,-4.0532,-3.9826,-3.9722,-3.9441,-3.9042,-3.8594,-3.8485,-3.844,-3.8037,-3.79,-3.79,-3.79,-3.7665,-3.7456,-3.7795,-3.7665,-3.7534,-3.8161,-3.8135,-3.7978,-3.8266,-3.8135,-3.7776,-3.7345,-3.7013,-3.6585,-3.5794,-3.5187,-3.476,-3.47,-3.4474,-3.4198,-3.3947,-3.3646,-3.3345,-3.3162,-3.2315,-3.1562,-3.1035,-3.0281,-2.9804,-2.9804,-2.9804,-2.9804,-2.9804,-2.9804,-2.9654,-2.9327,-2.9038,-2.8612,-2.8021,-2.777,-2.7394,-2.6876,-2.6851,-2.6107,-2.4636,-2.4276,-2.3511,-2.2327,-2.1949,-2.1797,-4.9823,-5.1887,-5.3193,-5.2486,-5.1648,-4.9763,-4.5095,-4.1833,-3.8482,-3.4023,0.0,-2.8723,-2.7555,-2.8098,-3.0073,-3.4173,0.0,-4.1765,-4.8581,-4.9777,-5.0973,-5.3862,-5.3683,-5.3324,-5.3324,-5.2217,-5.1678,-5.2157,-5.105,-5.0315,-5.0315,-5.0853,-5.1259,-5.1349,-5.1259,-5.069,-4.9523,-4.9389,-4.8656,-4.7429,-4.6359,-4.6079,-4.6399,-4.5345,-4.4785,-4.4586,-4.4393,-4.3614,-4.2424,-4.3042,-4.2395,-4.1027,-4.1692,-4.1382,-4.0457,-3.9546,-3.9121,-3.8926,-3.8148,-3.79,-3.79,-3.79,-3.79,-3.79,-3.79,-3.79,-3.7926,-3.8004,-3.7952,-3.7926,-3.8004,-3.7952,-3.7854,-3.7551,-3.7459,-3.7165,-3.6192,-3.5999,-3.5755,-3.4926,-3.4826,-3.465,-3.4098,-3.3947,-3.3721,-3.3169,-3.2591,-3.2039,-3.1562,-3.0557,-2.988,-2.9804,-2.9804,-2.9804,-2.9804,-2.9804,-2.9804,-2.9804,-2.9327,-2.8963,-2.8888,-2.8473,-2.7946,-2.7394,-2.7247,-2.6522,-2.5278,-2.4371,-2.3548,-2.2815,-2.2138,-2.1797,-5.1383,-5.305,-5.4157,-5.3223,-5.1289,-4.8431,-4.3788,-3.9409,0.0,0.0,-2.8517,-2.6213,-2.6004,-2.7859,-2.9834,-3.115,-3.5908,-4.0995,-4.5514,-4.7578,-5.0032,0.0,-5.4102,-5.4042,-5.4042,-5.3294,0.0,0.0,-5.1498,-5.105,-5.105,-5.1169,-5.1468,-5.2007,-5.1498,-5.1109,-5.087,-4.9823,-4.894,-4.8087,-4.6837,-4.6539,-4.71,-4.5794,-4.5466,-4.5878,-4.5008,0.0,-4.4196,-4.358,-4.3133,-4.275,-4.1975,-4.11,-4.0185,-3.9489,-3.8747,-3.8103,-3.7946,-3.79,-3.79,-3.79,-3.79,-3.79,-3.79,-3.79,-3.8004,-3.8449,-3.824,-3.8004,-3.8449,-3.824,-3.7854,-3.7551,-3.732,-3.7036,-3.6654,-3.6442,-3.6103,-3.5504,-3.5357,-3.5182,-3.4675,-3.4198,-3.3721,-3.3169,-3.2591,-3.219,-3.2089,-3.1135,-3.0306,-2.9854,-2.9804,-2.9804,-2.9804,-2.9804,-2.9804,-2.9804,-2.9704,-2.9428,-2.8913,-2.8787,-2.8524,-2.7971,-2.6882,-2.59,-2.5071,-2.3809,-2.2777,-2.1987,-2.1894,-2.1797,-5.2004,-5.3465,-5.4296,-5.3032,-5.0451,-4.6681,-4.0703,0.0,0.0,0.0,-2.4926,-2.3969,-2.364,-2.6303,0.0,-3.0283,-3.3784,-3.8302,-4.3988,-4.5603,0.0,-5.3084,-5.3683,-5.3832,0.0,-5.3264,-5.2546,-5.2217,-5.1588,-5.1229,-5.1229,-5.1229,-5.1528,-5.2187,-5.1887,-5.1558,-5.1229,-5.0272,-4.9028,-4.7523,-4.742,-4.7227,-4.7051,-4.7271,-4.7078,-4.6476,-4.5927,-4.4955,-4.3678,-4.4305,-4.4259,-4.3778,-4.3434,-4.2975,-4.2374,-4.0384,-3.941,-3.8956,-3.8188,-3.79,-3.79,-3.79,-3.79,-3.79,-3.79,-3.79,-3.7952,-3.8214,-3.8109,-3.7978,-3.8214,-3.8109,-3.7854,-3.7551,-3.7201,-3.6828,-3.6593,-3.6452,-3.6329,-3.6006,-3.5981,-3.5705,-3.4876,-3.45,-3.4048,-3.3194,-3.2842,-3.2541,-3.224,-3.1763,-3.1135,-3.0306,-2.9955,-2.9804,-2.9804,-2.9804,-2.9804,-2.9804,-2.9804,-2.9679,-2.9377,-2.9377,-2.9126,-2.8549,-2.7213,-2.621,-2.558,-2.3854,-2.2815,-2.2402,-2.1987,-2.1797,-5.2178,-5.3567,-5.4153,-5.263,-4.9569,-4.5035,-3.8093,-3.3604,0.0,0.0,-2.1994,-2.2164,-2.1754,-2.4829,-2.7884,0.0,-3.145,-3.525,-4.2073,-4.3299,-4.5723,0.0,-5.2785,0.0,-5.3922,-5.2905,0.0,-5.2187,-5.1588,-5.1229,-5.1229,-5.1349,-5.1678,-5.2187,-5.2187,-5.1947,-5.1439,-5.0511,-4.9143,-4.7524,-4.803,-4.8015,-4.757,-4.8759,-4.8472,-4.7079,-4.6846,-4.5543,-4.3731,-4.5354,-4.5513,-4.4912,-4.4969,-4.4758,-4.4048,-4.1306,-4.0167,-3.9811,-3.8543,-3.8083,-3.8057,-3.7952,-3.79,-3.79,-3.79,-3.79,-3.79,-3.79,-3.79,-3.79,-3.79,-3.79,-3.7808,-3.7505,-3.7062,-3.6615,-3.6452,-3.6405,-3.6405,-3.6405,-3.6405,-3.6056,-3.5077,-3.4756,-3.4374,-3.3395,-3.3144,-3.2918,-3.2466,-3.229,-3.1888,-3.1035,-3.0357,-2.993,-2.9804,-2.9804,-2.9804,-2.9804,-2.9804,-2.9804,-2.9804,-2.9804,-2.9578,-2.9088,-2.76,-2.6542,-2.6041,-2.3936,-2.2891,-2.2891,-2.2143,-2.1859,-5.2017,-5.352,-5.3789,-5.2795,-4.8984,-4.3898,-3.7853,0.0,0.0,-2.2682,-2.1276,-2.1066,-2.1605,-2.4418,-2.6776,0.0,0.0,-3.2677,0.0,0.0,0.0,0.0,0.0,0.0,-5.3204,-5.2636,-5.2187,-5.2187,-5.1588,-5.1229,-5.1229,-5.1798,-5.2127,-5.2187,-5.2187,-5.2187,-5.2127,-5.0272,-4.9538,-4.9849,-4.882,-4.885,-4.9895,-4.9448,-4.8946,-4.8354,-4.7389,-4.682,0.0,-4.6813,-4.6862,-4.6694,-4.5976,-4.4571,-4.2787,-4.1428,-4.0368,-3.9537,-3.8841,-3.8632,-3.8553,-3.8057,-3.79,-3.79,-3.79,-3.79,-3.79,-3.79,-3.79,-3.79,-3.79,-3.79,-3.7762,-3.7248,-3.6922,-3.6615,-3.6452,-3.6405,-3.6405,-3.6405,-3.6405,-3.6182,-3.5533,-3.5006,-3.4525,-3.3922,-3.3395,-3.3068,-3.2993,-3.2541,-3.2164,-3.2064,-3.116,-3.0331,-2.9829,-2.9804,-2.9804,-2.9804,-2.9804,-2.9804,-2.9804,-2.9804,-2.9754,-2.9704,-2.7639,-2.6278,-2.5808,-2.3604,-2.2556,-2.2535,-2.2042,-2.2025,-5.0096,-5.2063,-5.2472,-5.1151,-4.7722,-4.294,-3.6207,0.0,-2.7171,-2.2143,-2.0868,-2.0897,-2.1575,-2.4059,-2.6004,0.0,0.0,0.0,-3.5789,0.0,0.0,-4.8057,-4.9523,0.0,0.0,0.0,-5.2187,-5.2187,-5.1588,-5.1229,-5.1229,-5.1858,-5.2366,-5.2785,-5.2396,-5.2187,-5.2187,-4.9656,-4.8727,-4.9345,-4.8433,-4.8416,-4.9298,-4.9445,-4.9049,-4.8198,-4.7124,-4.6613,0.0,-4.7349,-4.7403,-4.7003,-4.6357,-4.4993,-4.315,-4.1288,-4.0408,-4.0017,-3.9442,-3.9024,-3.8684,-3.8449,-3.8161,-3.79,-3.79,-3.79,-3.79,-3.79,-3.79,-3.79,-3.79,-3.79,-3.7808,-3.7413,-3.7155,-3.6875,-3.664,-3.6499,-3.6405,-3.6405,-3.6405,-3.6182,-3.5583,-3.5031,-3.4525,-3.3972,-3.342,-3.3111,-3.3111,-3.2867,-3.2591,-3.224,-3.126,-3.0532,-3.0306,-2.998,-2.9804,-2.9804,-2.9804,-2.9804,-2.9804,-2.9287,-2.9248,-2.9804,-2.7095,-2.5876,-2.6223,-2.3982,-2.2915,-2.2915,-2.2729,-2.2729,-4.7609,-5.0005,-5.053,-4.9384,-4.5781,-4.0905,0.0,0.0,-2.6153,-2.1615,-2.0539,-2.0677,-2.1545,-2.3191,-2.4567,0.0,0.0,-2.8188,-3.3066,0.0,0.0,0.0,0.0,-4.7698,-4.9942,-5.1229,-5.1917,-5.1917,-5.1468,-5.1379,-5.1768,-5.1858,-5.2127,-5.2576,-5.2546,-5.2217,-5.1618,-4.9075,-4.805,-4.8486,-4.78,-4.7775,-4.824,-4.8818,-4.8501,-4.7508,-4.6881,-4.6523,0.0,-4.7587,-4.7477,-4.6562,-4.602,-4.4798,-4.3111,-4.1334,-4.0697,-4.0592,-4.0043,-3.9468,-3.8945,-3.8762,-3.8344,-3.79,-3.79,-3.79,-3.79,-3.79,-3.79,-3.79,-3.79,-3.79,-3.7854,-3.7551,-3.7366,-3.7108,-3.6756,-3.6593,-3.6452,-3.6405,-3.6405,-3.6279,-3.5855,-3.5203,-3.46,-3.4198,-3.3545,-3.3111,-3.3111,-3.3111,-3.2918,-3.2516,-3.1637,-3.1009,-3.0859,-3.0357,-3.003,-3.003,-2.988,-2.9804,-2.9804,-2.8949,-2.8791,-2.9404,-2.6754,-2.5639,-2.6086,-2.429,-2.3391,-2.3391,-2.3246,-2.3184,-4.4749,-4.7323,-4.8037,-4.8037,-4.3201,-3.7404,0.0,0.0,-2.3887,-2.1226,-2.0168,-2.0127,-2.1455,-2.1724,-2.2143,-2.343,0.0,0.0,-2.9562,-3.3605,0.0,0.0,0.0,-4.3858,-4.5244,-4.8925,-5.1229,-5.1229,-5.1229,-5.1798,-5.3084,-5.1947,-5.1229,-5.1229,-5.2486,-5.2247,-5.0226,-4.8635,-4.7771,-4.7771,-4.7131,-4.6918,-4.7137,-4.7587,-4.7283,-4.6451,-4.6896,-4.6828,0.0,-4.7587,-4.7022,-4.5475,-4.4851,-4.3627,-4.2133,-4.1507,-4.1298,-4.1219,-4.0618,-4.0043,-3.9494,-3.8893,-3.8344,-3.79,-3.79,-3.79,-3.79,-3.79,-3.79,-3.79,-3.79,-3.79,-3.7854,-3.7551,-3.7505,-3.7366,-3.6803,-3.6709,-3.6615,-3.6452,-3.6405,-3.6405,-3.6405,-3.5454,-3.468,-3.468,-3.3771,-3.3111,-3.3111,-3.3111,-3.3111,-3.3111,-3.2541,-3.1964,-3.1436,-3.0909,-3.0608,-3.0608,-3.0105,-2.9804,-2.9804,-2.8949,-2.849,-2.849,-2.673,-2.5579,-2.5201,-2.4302,-2.3867,-2.3867,-2.3412,-2.3184,-3.6722,-3.8769,-3.9047,-3.8557,-3.6446,-3.3306,-2.8816,0.0,-2.3738,-2.0647,-1.9857,-2.0127,-2.1455,-2.1695,-2.2862,-2.6422,-2.75,0.0,0.0,0.0,0.0,-3.8482,-4.3479,-4.7578,-4.9793,-5.075,-5.1409,-5.1858,-5.1468,-5.1588,-5.2456,-5.1678,-5.1618,-5.2546,-5.1648,-5.0823,-5.0196,-4.8148,-4.7687,-4.8816,-4.7453,-4.7293,-4.8114,-4.7506,-4.7306,-4.7457,-4.6881,-4.696,-4.7508,-4.7415,-4.6384,-4.4901,-4.5016,-4.4096,-4.2574,-4.2413,-4.2333,-4.2208,-4.1337,-4.0409,-3.9573,-3.939,-3.8684,-3.79,-3.79,-3.79,-3.79,-3.79,-3.79,-3.7978,-3.837,-3.8449,-3.8402,-3.8356,-3.8101,-3.7689,-3.7092,-3.6734,-3.6499,-3.6405,-3.6405,-3.6405,-3.6405,-3.5755,-3.5107,-3.4776,-3.4098,-3.3495,-3.3162,-3.3111,-3.3111,-3.3111,-3.2918,-3.2566,-3.2014,-3.1461,-3.116,-3.116,-3.0658,-3.0055,-2.9471,-2.8241,-2.7545,-2.7545,-2.5799,-2.5147,-2.56,-2.4724,-2.4322,-2.4322,-2.4178,-2.4073,0.0,-3.3441,-3.3846,-3.3332,-3.1824,0.0,0.0,0.0,-2.2482,-2.0168,-2.0307,-2.1026,-2.1575,-2.2293,-2.367,-2.6303,-2.8038,-2.9415,0.0,0.0,0.0,-3.9439,-4.3718,-4.7638,-5.078,-5.1169,-5.1379,-5.1798,-5.1439,-5.1498,-5.2157,-5.1349,-5.1349,-5.2396,-5.1259,-5.0315,-4.9883,-4.8341,-4.7951,-4.8725,-4.7224,-4.6833,-4.7383,-4.6467,-4.6326,-4.6736,-4.6286,-4.6313,0.0,-4.6565,-4.5504,-4.4023,-4.413,-4.3335,-4.2235,-4.2235,-4.2479,-4.262,-4.1383,-4.0601,-4.0071,-3.948,-3.8658,-3.79,-3.79,-3.79,-3.79,-3.79,-3.8057,-3.8292,-3.8632,-3.8893,-3.905,-3.905,-3.8562,-3.8071,-3.7775,-3.7086,-3.655,-3.6681,-3.6556,-3.6405,-3.6405,-3.5906,-3.5307,-3.4756,-3.4424,-3.3922,-3.3212,-3.3269,-3.3294,-3.3093,-3.3111,-3.2943,-3.2566,-3.2014,-3.1712,-3.1712,-3.121,-3.0422,-2.9325,-2.8093,-2.7181,-2.6607,-2.5232,-2.4786,-2.5295,-2.4786,-2.4507,-2.4507,-2.4507,-2.4507,0.0,0.0,0.0,0.0,0.0,0.0,0.0,0.0,0.0,-1.9857,-2.1295,-2.2523,-2.1874,-2.3319,-2.4455,-2.4029,-2.8192,-3.0195,0.0,-3.2048,0.0,0.0,-4.2551,-4.5214,-4.894,-5.0451,-5.1229,-5.1229,-5.1229,-5.1498,-5.2157,-5.096,-5.0495,-5.1199,-5.1169,-5.0541,-4.9329,-4.8992,-4.8494,-4.7864,-4.6718,-4.5984,-4.5581,-4.4932,-4.4696,0.0,-4.5387,-4.5311,-4.4832,-4.5227,-4.443,-4.2996,-4.242,-4.1894,-4.1445,-4.1448,-4.2016,-4.2566,-4.0935,-4.0643,-4.0734,-3.9169,-3.8318,-3.79,-3.79,-3.79,-3.7926,-3.7952,-3.8318,-3.8736,-3.8815,-3.9259,-3.9677,-3.9629,-3.9016,-3.8493,-3.8669,-3.7613,-3.6767,-3.7059,-3.6757,-3.6405,-3.6405,-3.5956,-3.5382,-3.4831,-3.4776,-3.4399,-3.3345,-3.3646,-3.3746,-3.3194,-3.3187,-3.3162,-3.3111,-3.2591,-3.2265,-3.2265,-3.1763,-3.0778,-2.9316,-2.8444,-2.7273,-2.5757,-2.4893,-2.4507,-2.4507,-2.4507,-2.4507,-2.4507,-2.4507,-2.4507,-2.0238,0.0,-2.2239,-2.2576,-2.2405,-2.1944,0.0,0.0,0.0,0.0,0.0,0.0,0.0,-2.3618,-2.5232,-2.7111,-2.9717,-3.0823,-2.8936,-3.3574,-3.911,-4.4317,-4.6681,-4.8281,-4.9209,-5.0451,-5.1229,-5.1229,-5.1229,-5.1498,-5.2157,-5.096,-5.0495,-5.1199,-5.0674,-5.0092,-4.9329,-4.9222,-4.9086,-4.8937,-4.7788,-4.7031,-4.6668,-4.6451,-4.6256,-4.6032,-4.6542,-4.6472,-4.5898,-4.4722,-4.3891,-4.3352,-4.2861,-4.2753,-4.2783,-4.2533,-4.2598,-4.2566,-4.0935,-4.0189,-3.9749,-3.8516,-3.8004,-3.79,-3.79,-3.79,-3.8004,-3.8397,-3.8606,-3.8919,-3.9782,-4.0122,-4.0177,-3.9959,-3.9298,-3.8566,-3.797,-3.7121,-3.6477,-3.6581,-3.6505,-3.6405,-3.6405,-3.6304,-3.5981,-3.5382,-3.5307,-3.5056,-3.4424,-3.4449,-3.4324,-3.3771,-3.3696,-3.3545,-3.3119,-3.2943,-3.2867,-3.2867,-3.234,-3.1073,-2.9005,-2.8337,-2.6979,-2.4828,-2.4615,-2.4507,-2.4507,-2.4507,-2.4507,-2.4507,-2.4507,-2.4507,-1.7349,-1.8506,-1.9554,-1.9743,-2.0309,-2.07,0.0,0.0,0.0,0.0,0.0,0.0,0.0,-2.3789,-2.5442,-2.6578,-2.867,-3.0881,-3.2886,-3.537,-3.908,-4.4695,-4.6352,-4.7578,-4.9179,-4.9912,-5.0571,-5.1169,-5.1498,-5.1558,-5.1319,-5.0853,-5.0674,-5.0734,-5.0674,-5.0361,-4.9733,-5.0002,-4.9922,-4.9427,-4.8297,-4.7398,-4.668,-4.6168,-4.5964,-4.5967,-4.5717,-4.5445,-4.502,-4.3621,-4.2835,-4.2492,-4.2221,-4.2242,-4.2385,-4.2177,-4.2431,-4.2511,-4.0694,-3.952,-3.8736,-3.8109,-3.79,-3.79,-3.79,-3.79,-3.8031,-3.8553,-3.8919,-3.9311,-4.02,-4.052,-4.0579,-4.043,-3.9693,-3.8911,-3.8483,-3.7531,-3.6782,-3.6782,-3.6581,-3.6405,-3.6405,-3.6405,-3.6182,-3.5583,-3.5755,-3.5629,-3.4781,-3.4906,-3.4831,-3.4324,-3.4048,-3.3771,-3.347,-3.3219,-3.2896,-3.2438,-3.2099,-3.0841,-2.854,-2.7957,-2.669,-2.455,-2.4507,-2.4507,-2.4507,-2.4507,-2.4507,-2.4507,-2.4507,-2.4507,-1.6864,-1.8573,-2.0056,-1.9827,-2.0351,-2.0903,-2.0857,0.0,0.0,0.0,0.0,0.0,0.0,-2.4059,0.0,-2.5531,-2.8008,-3.2078,-3.8212,-3.8542,-3.9888,-4.4646,-4.5484,-4.6621,-4.909,-4.9509,-5.0032,-5.1139,-5.1648,-5.1409,-5.0255,-5.0734,-5.0734,-5.0076,-5.0674,-5.0674,-4.9897,-5.0594,-5.0478,-4.9465,-4.8204,-4.7086,-4.6102,-4.5023,-4.4679,-4.4848,-4.4016,0.0,-4.3233,-4.2224,-4.1581,-4.1235,-4.1235,-4.1182,-4.1104,-4.1209,-4.1754,-4.2183,-4.0228,-3.8867,-3.79,-3.79,-3.79,-3.79,-3.79,-3.79,-3.8031,-3.8553,-3.9128,-3.9756,-4.0383,-4.0707,-4.0896,-4.0846,-3.9954,-3.9195,-3.9221,-3.8111,-3.7086,-3.7161,-3.6782,-3.6405,-3.6405,-3.6405,-3.6207,-3.5683,-3.6056,-3.6078,-3.5102,-3.5332,-3.5408,-3.4856,-3.4349,-3.3997,-3.3897,-3.3395,-3.2612,-3.1448,-3.1536,-3.0498,-2.8006,-2.728,-2.6193,-2.4507,-2.4507,-2.4507,-2.4507,-2.4507,-2.4507,-2.4507,-2.4507,-2.4507,-1.747,-1.9183,-2.0445,-1.9857,-2.0636,-2.1565,-2.1545,0.0,0.0,0.0,0.0,0.0,0.0,-2.5016,-2.7141,-2.9265,-3.3245,-3.8542,-4.5633,-4.6052,-4.6561,-4.9,-5.081,-5.1139,-4.9479,-5.0272,-5.099,-5.1199,-5.0764,-5.0405,-5.0196,-5.0285,-5.0092,-4.9434,-5.0032,-4.9823,-4.8596,-4.9416,-4.9543,-4.8923,-4.6885,-4.5547,-4.4878,-4.4238,-4.3493,-4.2677,0.0,-4.2101,-4.155,-4.0458,-4.0394,-4.1066,-4.1066,-4.0722,-4.0345,-4.083,-4.0914,-4.0631,-3.9882,-3.8867,-3.79,-3.79,-3.79,-3.79,-3.79,-3.79,-3.8031,-3.8553,-3.9128,-3.986,-4.0906,-4.1019,-4.0846,-4.0593,-3.9497,-3.8638,-3.8919,-3.7662,-3.6681,-3.7086,-3.6782,-3.6405,-3.6405,-3.6405,-3.638,-3.6304,-3.6355,-3.6355,-3.6179,-3.6229,-3.6031,-3.5433,-3.4881,-3.4399,-3.3947,-3.3395,-3.2351,-3.0531,-3.1158,-3.0334,-2.7613,-2.6209,-2.5199,-2.4507,-2.4507,-2.4507,-2.4507,-2.4507,-2.4507,-2.4507,-2.4507,-2.4507,-1.7029,-1.871,-2.0295,-2.0696,-2.1754,-2.2622,0.0,0.0,0.0,0.0,0.0,0.0,0.0,0.0,-2.9924,-3.3634,-3.6626,-4.0157,-4.4945,-4.5663,-4.6411,-4.8416,-4.9134,-4.9434,-4.9329,-4.9823,-5.0301,-5.0614,-5.1079,-5.084,-4.9763,-5.0391,-5.0301,-4.9329,-4.9912,-4.9356,-4.7568,-4.787,-4.7706,-4.7097,-4.5045,-4.3877,-4.3584,-4.277,-4.2305,-4.2008,0.0,-4.1021,-4.0627,-3.9917,-3.9675,-3.9761,-4.0106,-4.0053,-3.9894,-4.0452,-4.0562,-4.0331,-3.9808,-3.9259,-3.8762,-3.8449,-3.8344,-3.8344,-3.8344,-3.8135,-3.8031,-3.8553,-3.8919,-3.9311,-4.0174,-4.0063,-3.9717,-3.9618,-3.8888,-3.8163,-3.8014,-3.741,-3.6832,-3.6807,-3.6581,-3.6405,-3.6405,-3.6405,-3.6405,-3.6405,-3.6405,-3.6405,-3.6405,-3.6405,-3.6304,-3.6006,-3.5458,-3.5031,-3.4781,-3.3529,-3.2224,-3.1048,-2.9897,-2.8808,-2.7742,-2.6584,-2.5627,-2.4879,-2.4879,-2.4755,-2.4507,-2.4507,-2.4507,-2.4507,-2.4507,-2.4507,-1.6981,-1.857,-2.0284,-2.1415,0.0,0.0,0.0,0.0,0.0,0.0,0.0,0.0,0.0,-2.8816,-3.3155,-3.7015,-3.9948,-4.2491,-4.4605,-4.5663,-4.6681,-4.8057,-4.7908,-4.8177,-4.9374,-4.9494,-4.9643,-5.0002,-5.081,-5.0631,-4.9179,-4.9972,-4.9942,-4.8626,-4.9224,-4.8491,-4.6314,-4.6001,-4.5598,-4.5125,-4.3432,-4.2521,-4.2268,-4.1191,-4.0874,-4.1113,-4.0197,-3.9738,-3.9634,-3.9327,-3.8945,-3.8553,-3.9233,-3.9512,-3.9517,-3.9856,-3.9939,-3.9808,-3.9651,-3.952,-3.9337,-3.9024,-3.8919,-3.8893,-3.8762,-3.8423,-3.8161,-3.8449,-3.8606,-3.8893,-3.9599,-3.9291,-3.8825,-3.8953,-3.8383,-3.7764,-3.7613,-3.7262,-3.7033,-3.7008,-3.6681,-3.6455,-3.6581,-3.648,-3.6405,-3.6405,-3.6405,-3.6405,-3.6405,-3.6405,-3.6405,-3.6405,-3.5881,-3.534,-3.4959,-3.3153,-3.1886,-3.1416,-2.8814,-2.7474,-2.7834,-2.7037,-2.6185,-2.5399,-2.523,-2.5003,-2.4652,-2.4549,-2.4507,-2.4507,-2.4507,-2.4507,-1.8207,-1.9552,-2.0827,-2.1515,-2.2652,0.0,-2.5884,-2.6273,0.0,-2.7106,0.0,0.0,0.0,-3.1719,-3.6537,-3.8063,-4.4118,-4.8835,-4.9598,-5.084,-5.1468,-5.099,-5.1439,-5.1349,-5.0226,-5.0136,-4.9942,-4.9419,-4.8865,-4.8506,-4.8356,-4.8446,-4.7908,-4.6591,-4.716,-4.6548,-4.4534,-4.3688,-4.3387,-4.355,-4.2422,-4.1585,-4.109,-3.96,-3.8914,-3.8882,-3.8338,-3.8077,-3.8044,-3.805,-3.8004,-3.8044,-3.8899,-3.9257,-3.9204,-3.8932,-3.8527,-3.824,-3.9259,-3.9233,-3.8867,-3.939,-3.9547,-3.9442,-3.8893,-3.8684,-3.8553,-3.8083,-3.8318,-3.8972,-4.0069,-3.9576,-3.8928,-3.9515,-3.8409,-3.7513,-3.8592,-3.7561,-3.6908,-3.8441,-3.7486,-3.6581,-3.7036,-3.6757,-3.6405,-3.6405,-3.6405,-3.6405,-3.6405,-3.6405,-3.6405,-3.6405,-3.5881,-3.4888,-3.3423,-3.1925,-3.1044,-3.0859,-2.8636,-2.7336,-2.7342,-2.69,-2.6376,-2.5834,-2.544,-2.5168,-2.5148,-2.4714,-2.4507,-2.4507,-2.4507,-2.4507,-1.7818,-1.9373,-2.0957,-2.2074,-2.358,0.0,0.0,-2.9086,-3.0193,-3.2108,-3.2197,0.0,0.0,-3.4891,-3.8512,-4.1055,-4.5514,-4.8895,-4.9553,-5.0062,-5.0272,-5.0032,-5.0212,-5.0182,-4.9673,-4.9643,-4.9523,-4.9329,-4.909,-4.876,-4.8297,-4.8297,-4.7698,-4.6309,-4.6561,-4.565,-4.3507,-4.3714,-4.337,-4.2539,-4.0935,-4.0377,-4.0692,-3.9002,-3.8214,-3.8187,-3.8004,-3.79,-3.79,-3.79,-3.79,-3.7946,-3.8258,-3.8607,-3.8879,-3.8772,-3.8815,-3.9024,-3.9468,-3.9468,-3.9364,-3.9939,-3.9886,-3.9573,-3.9337,-3.8998,-3.8606,-3.8057,-3.8057,-3.8397,-3.9155,-3.8825,-3.8441,-3.8979,-3.813,-3.7387,-3.8165,-3.7839,-3.7563,-3.8216,-3.7814,-3.7337,-3.7211,-3.701,-3.6933,-3.6933,-3.6631,-3.6531,-3.6835,-3.6631,-3.6405,-3.6405,-3.6182,-3.5149,-3.2911,-3.2248,-3.1205,-2.9564,-2.8088,-2.7573,-2.8139,-2.7453,-2.6832,-2.6356,-2.6144,-2.5916,-2.5627,-2.5461,-2.5378,-2.5378,-2.5378,-2.5233,-1.7503,-1.9014,-2.0707,-2.2044,0.0,0.0,-3.1061,-3.2437,-3.3573,-3.6447,-3.6178,-3.522,-3.4623,0.0,-3.917,-4.2491,-4.5454,-4.7788,-4.912,-4.9299,-4.9299,-4.9299,-4.9299,-4.9239,-4.903,-4.9,-4.882,-4.8356,-4.8327,-4.8057,-4.7369,-4.7339,-4.683,-4.5681,-4.5693,-4.4834,-4.3131,-4.3704,-4.3305,-4.1976,-4.0584,-4.0233,-4.0826,-3.8978,-3.8161,-3.8161,-3.8161,-3.8057,-3.79,-3.79,-3.79,-3.79,-3.79,-3.8135,-3.8475,-3.8658,-3.8972,-3.9337,-3.9547,-3.9599,-3.9677,-4.0043,-3.9913,-3.9573,-3.939,-3.9024,-3.8632,-3.8266,-3.8161,-3.8318,-3.905,-3.8618,-3.8108,-3.8646,-3.8104,-3.7588,-3.8165,-3.814,-3.8115,-3.8467,-3.8241,-3.7889,-3.7513,-3.7287,-3.7136,-3.696,-3.6656,-3.6556,-3.6885,-3.6631,-3.6405,-3.6405,-3.6405,-3.5424,-3.294,-3.2584,-3.1386,-2.8799,-2.7883,-2.7783,-2.8426,-2.7704,-2.7164,-2.6832,-2.6687,-2.6459,-2.6148,-2.5982,-2.5875,-2.5875,-2.5875,-2.5709,-1.7503,-1.8702,-2.0067,-2.1395,0.0,0.0,-3.5639,-3.6447,-3.6477,-3.9768,-3.8871,-3.6866,-3.4923,-3.6148,-3.8542,-4.1871,-4.4018,-4.6232,-4.894,-4.9299,-4.9299,-4.9299,-4.9299,-4.903,-4.8327,-4.8267,-4.7728,-4.6399,-4.6279,-4.6022,-4.5334,-4.5304,-4.4975,-4.4347,-4.4317,-4.4018,-4.3319,-4.3319,-4.289,-4.2005,-4.1667,-4.1471,-4.1427,-3.9566,-3.871,-3.871,-3.871,-3.8423,-3.7926,-3.7926,-3.79,-3.79,-3.79,-3.79,-3.7978,-3.8501,-3.871,-3.8789,-3.939,-3.9599,-3.9599,-3.9599,-3.9599,-3.9494,-3.8893,-3.871,-3.871,-3.871,-3.871,-3.8972,-4.0095,-3.9188,-3.806,-3.8672,-3.8409,-3.8165,-3.8793,-3.8442,-3.8341,-3.9471,-3.8793,-3.8015,-3.8015,-3.7563,-3.7059,-3.6505,-3.6405,-3.6405,-3.6405,-3.6405,-3.6405,-3.6405,-3.6405,-3.5523,-3.34,-3.2791,-3.1408,-2.8799,-2.8193,-2.7924,-2.7875,-2.7489,-2.7309,-2.7309,-2.6853,-2.6625,-2.6625,-2.6169,-2.5896,-2.5896,-2.5896,-2.5896,-1.7652,-1.972,0.0,-2.3999,0.0,0.0,0.0,-3.8123,0.0,0.0,-4.3,-4.1534,-3.911,-4.0277,-4.1773,-4.2321,-4.4796,-4.698,-4.7788,-4.7878,-4.7878,-4.7878,-4.7878,-4.7818,-4.7608,-4.7189,-4.692,-4.701,-4.6142,-4.5514,-4.5304,-4.5304,-4.4975,-4.4347,-4.4766,-4.4915,-4.4706,-4.4706,-4.4057,-4.2715,-4.2335,-4.1625,-4.0521,-3.9694,-3.9337,-3.9337,-3.9337,-3.9259,-3.9076,-3.8658,-3.824,-3.79,-3.79,-3.79,-3.7926,-3.8083,-3.8397,-3.8736,-3.8919,-3.8972,-3.905,-3.9468,-3.9311,-3.8945,-3.8762,-3.871,-3.8632,-3.824,-3.8135,-3.8318,-3.9024,-3.9139,-3.9263,-3.985,-3.9297,-3.8768,-3.932,-3.932,-3.9295,-3.9622,-3.9421,-3.8944,-3.814,-3.7864,-3.7588,-3.701,-3.6656,-3.6405,-3.6405,-3.6405,-3.6405,-3.6405,-3.6405,-3.5523,-3.34,-3.3063,-3.1873,-2.9277,-2.8669,-2.8131,-2.7489,-2.7372,-2.7309,-2.7309,-2.7164,-2.7102,-2.7102,-2.6957,-2.6895,-2.6895,-2.6895,-2.6729,-1.8745,-2.0946,0.0,-2.5824,-2.8667,-3.2527,-3.8631,0.0,0.0,0.0,-4.5574,-4.4466,-4.2342,-4.2521,-4.318,-4.3838,-4.5155,-4.6411,-4.7189,-4.7309,-4.7309,-4.7309,-4.7309,-4.7219,-4.695,-4.6561,-4.6262,-4.6142,-4.5603,-4.5185,-4.4915,-4.4915,-4.4736,-4.4317,-4.4706,-4.4915,-4.4915,-4.5155,-4.4531,-4.3005,-4.327,-4.2603,-4.1058,-4.0245,-3.9939,-3.9913,-3.9703,-3.9599,-3.9573,-3.8972,-3.8527,-3.8214,-3.7978,-3.79,-3.7926,-3.8135,-3.8423,-3.871,-3.871,-3.871,-3.8736,-3.8893,-3.8684,-3.8397,-3.8397,-3.8397,-3.837,-3.8266,-3.8057,-3.8135,-3.9128,-3.9139,-3.9135,-3.9979,-3.9855,-3.9546,-3.9672,-3.9697,-3.9697,-3.9697,-3.9697,-3.9396,-3.8492,-3.8165,-3.7814,-3.7262,-3.6757,-3.6405,-3.6405,-3.6405,-3.6405,-3.6405,-3.6405,-3.5523,-3.34,-3.3201,-3.2096,-2.9485,-2.9042,-2.8483,-2.7572,-2.7392,-2.7309,-2.7309,-2.7309,-2.7309,-2.7309,-2.7309,-2.7309,-2.7309,-2.7309,-2.7061,-2.0438,-2.2293,-2.4537,-2.7285,-3.0283,0.0,-3.8601,-4.4047,-4.7967,-4.7489,0.0,-4.6202,-4.4915,-4.3658,-4.3609,-4.5933,-4.5304,-4.5125,-4.689,-4.713,-4.713,-4.713,-4.713,-4.689,-4.6249,-4.619,-4.5693,-4.4407,-4.4825,-4.4825,-4.4167,-4.4137,-4.4137,-4.4137,-4.4257,-4.4287,-4.4227,-4.4945,-4.4501,-4.2918,-4.4124,-4.3887,-4.2385,-4.1254,-4.0732,-4.0608,-4.0013,-3.973,-3.9651,-3.905,-3.8762,-3.8658,-3.8109,-3.79,-3.7978,-3.8449,-3.8658,-3.871,-3.8658,-3.8658,-3.8632,-3.8083,-3.79,-3.79,-3.79,-3.79,-3.8004,-3.8501,-3.8292,-3.8266,-3.9812,-3.9088,-3.8239,-3.9314,-3.9981,-4.0224,-3.9722,-3.9622,-3.9622,-3.9622,-3.9622,-3.9446,-3.8894,-3.8341,-3.7789,-3.7211,-3.6732,-3.6405,-3.6405,-3.6405,-3.6405,-3.6405,-3.6405,-3.5523,-3.34,-3.3201,-3.2096,-2.9548,-2.9332,-2.8938,-2.8041,-2.7614,-2.7392,-2.7309,-2.7351,-2.7351,-2.7309,-2.7309,-2.7309,-2.7262,-2.7262,-2.7034,-2.1126,-2.367,0.0,0.0,-3.5756,-4.0928,-4.1594,-4.4347,-4.701,-4.7908,-4.8386,-4.8386,-4.7578,-4.677,-4.6262,-4.6279,-4.6082,-4.5843,-4.5753,-4.5723,-4.5723,-4.5723,-4.5723,-4.5663,-4.5514,-4.5514,-4.5185,-4.4377,-4.3917,-4.3479,-4.286,-4.283,-4.283,-4.283,-4.3778,-4.4077,-4.3499,-4.4706,-4.4264,-4.2208,-4.3443,-4.3227,-4.1767,-4.2925,-4.3033,-4.2215,-4.1331,-4.0671,-4.02,-3.9651,-3.9128,-3.8658,-3.8109,-3.79,-3.7926,-3.8031,-3.8344,-3.8658,-3.8214,-3.8344,-3.8632,-3.8083,-3.79,-3.79,-3.79,-3.79,-3.7926,-3.8057,-3.8004,-3.8037,-3.8657,-3.8733,-3.8728,-3.9269,-3.9297,-3.9195,-3.9069,-3.9044,-3.9044,-3.9044,-3.9044,-3.8868,-3.8291,-3.809,-3.7663,-3.6732,-3.648,-3.6405,-3.6405,-3.6405,-3.6405,-3.6405,-3.6405,-3.5523,-3.34,-3.3201,-3.2252,-3.0005,-2.9497,-2.9208,-2.9021,-2.8566,-2.7986,-2.7309,-2.7593,-2.7614,-2.7309,-2.7309,-2.7167,-2.6996,-2.6996,-2.6839,-2.2362,0.0,0.0,-3.4322,0.0,-4.329,-4.3299,-4.4616,-4.6112,-4.713,-4.7878,-4.8117,-4.7459,-4.707,-4.6621,-4.5933,-4.5843,-4.5693,-4.5334,-4.5304,-4.5304,-4.5304,-4.5304,-4.5155,-4.4855,-4.4526,-4.4077,-4.3419,-4.306,-4.2731,-4.241,-4.241,-4.241,-4.241,-4.3329,-4.3648,-4.329,-4.4646,-4.4411,-4.2648,-4.3465,-4.3041,-4.1631,-4.2657,-4.2549,-4.1612,-4.1127,-4.0566,-4.0017,-3.973,-3.9416,-3.9102,-3.8841,-3.8553,-3.8292,-3.8292,-3.8318,-3.8292,-3.8004,-3.8083,-3.8266,-3.8004,-3.79,-3.79,-3.79,-3.79,-3.79,-3.79,-3.7808,-3.7846,-3.8298,-3.8075,-3.797,-3.8712,-3.9095,-3.927,-3.927,-3.9069,-3.8919,-3.8919,-3.8642,-3.8366,-3.8065,-3.7789,-3.7337,-3.6531,-3.6405,-3.6405,-3.6405,-3.6405,-3.6405,-3.6405,-3.5953,-3.4969,-3.335,-3.275,-3.1739,-3.0099,-2.9766,-2.9539,-2.9311,-2.929,-2.8731,-2.7593,-2.78,-2.7696,-2.7309,-2.7309,-2.7167,-2.69,-2.69,-2.6635,-2.3379,0.0,-3.055,-3.8571,-4.1803,0.0,-4.3838,-4.4556,-4.5274,-4.5843,-4.6501,-4.683,-4.6411,-4.6232,-4.5963,-4.5394,-4.5185,-4.5035,-4.4825,-4.4796,-4.4736,-4.4646,-4.4706,-4.4526,-4.3868,-4.3499,-4.3,-4.2291,-4.2321,-4.2351,-4.2231,-4.2231,-4.2231,-4.2231,-4.2821,-4.308,-4.2961,-4.4124,-4.4184,-4.314,-4.3453,-4.2812,-4.1427,-4.1397,-4.0998,-4.0364,-4.0275,-4.0017,-3.9599,-3.9599,-3.9599,-3.9599,-3.9494,-3.9155,-3.871,-3.8606,-3.8292,-3.79,-3.79,-3.79,-3.79,-3.79,-3.79,-3.79,-3.79,-3.79,-3.79,-3.7854,-3.7644,-3.7609,-3.7981,-3.7394,-3.6941,-3.798,-3.8743,-3.9295,-3.9396,-3.9044,-3.8793,-3.8894,-3.8391,-3.7965,-3.7889,-3.7412,-3.6885,-3.648,-3.6405,-3.6405,-3.6405,-3.6405,-3.6405,-3.6405,-3.5427,-3.4385,-3.33,-3.2246,-3.1124,-3.0047,-2.9994,-2.9829,-2.9435,-2.9787,-2.9373,-2.8069,-2.8048,-2.7779,-2.7309,-2.7262,-2.7071,-2.6853,-2.6805,-2.6411,-2.2832,0.0,-3.4083,0.0,-4.1444,-4.1803,0.0,0.0,-4.4466,0.0,-4.5095,-4.5723,-4.619,-4.5843,-4.5394,-4.5304,-4.4825,-4.4047,-4.295,-4.28,-4.259,-4.1983,-4.244,-4.253,-4.1833,-4.2701,-4.2821,-4.1594,-4.2081,-4.2141,-4.1572,-4.1504,-4.1504,-4.1504,-4.2201,-4.2261,-4.1654,-4.2195,-4.246,-4.2491,-4.2368,-4.1582,-4.0286,-3.9771,-3.9816,-4.0221,-3.9849,-3.9677,-3.9599,-3.9599,-3.9599,-3.9547,-3.9024,-3.8789,-3.8658,-3.8187,-3.7978,-3.79,-3.79,-3.79,-3.79,-3.79,-3.79,-3.79,-3.79,-3.79,-3.7854,-3.7598,-3.7505,-3.7413,-3.6998,-3.6807,-3.6839,-3.7232,-3.7461,-3.7638,-3.814,-3.8165,-3.8266,-3.8768,-3.8391,-3.7864,-3.7387,-3.6835,-3.648,-3.6405,-3.6405,-3.6405,-3.6405,-3.6405,-3.6405,-3.6405,-3.5427,-3.4385,-3.33,-3.2246,-3.1124,-3.0047,-2.9994,-2.9973,-2.9911,-2.9973,-2.9539,-2.8545,-2.8524,-2.811,-2.7309,-2.7071,-2.6805,-2.6544,-2.6304,-2.6022,-2.334,-2.9295,-3.4983,0.0,-4.0008,-4.0546,-4.1602,-4.2252,-4.2671,-4.2671,-4.291,-4.3539,-4.4945,-4.4646,-4.3958,-4.321,-4.2851,-4.2462,-4.1931,-4.1841,-4.1752,-4.1452,-4.1662,-4.1722,-4.1452,-4.1564,-4.1594,-4.1384,-4.1362,-4.1294,-4.1422,-4.1422,-4.1422,-4.1422,-4.2051,-4.2261,-4.1961,-4.2495,-4.2309,-4.1377,-4.1401,-4.0168,-3.7892,-3.8475,-3.8809,-3.8884,-3.8346,-3.7952,-3.7665,-3.8004,-3.8161,-3.8214,-3.8945,-3.8815,-3.8318,-3.871,-3.8449,-3.79,-3.79,-3.79,-3.79,-3.79,-3.79,-3.79,-3.79,-3.79,-3.7854,-3.7551,-3.7413,-3.7201,-3.6803,-3.6615,-3.655,-3.6707,-3.6782,-3.696,-3.7814,-3.8015,-3.799,-3.7939,-3.7713,-3.7462,-3.7236,-3.6782,-3.6505,-3.6832,-3.6606,-3.6405,-3.6405,-3.6405,-3.6405,-3.6405,-3.4872,-3.3697,-3.325,-3.1637,-3.0495,-3.0047,-2.9994,-2.9994,-2.9994,-2.9994,-2.9684,-2.9021,-2.8752,-2.8173,-2.7309,-2.7044,-2.6757,-2.6496,-2.6207,-2.5965,0.0,0.0,-3.2826,-3.528,-3.6537,-3.7644,0.0,0.0,-4.0606,-4.1482,-4.1662,-4.2132,-4.3778,-4.3389,-4.2581,-4.1773,-4.1542,-4.1324,-4.1145,-4.1145,-4.1055,-4.0905,-4.1175,-4.1324,-4.1145,-4.0995,-4.1025,-4.1392,-4.1085,-4.1025,-4.1354,-4.1572,-4.1662,-4.1662,-4.2141,-4.247,-4.265,-4.309,-4.2176,-4.008,-4.0614,-3.9299,-3.6332,-3.7367,-3.7652,-3.7429,-3.6959,-3.6515,-3.6149,-3.675,-3.709,-3.7377,-3.8815,-3.8945,-3.8449,-3.9285,-3.8972,-3.8109,-3.8109,-3.8031,-3.79,-3.79,-3.79,-3.79,-3.79,-3.79,-3.7854,-3.7505,-3.7248,-3.7015,-3.6734,-3.6499,-3.6405,-3.6405,-3.6405,-3.6707,-3.7764,-3.8241,-3.8266,-3.7713,-3.7613,-3.7513,-3.7236,-3.6883,-3.6707,-3.6935,-3.6681,-3.6405,-3.6405,-3.6405,-3.6405,-3.6405,-3.4483,-3.3201,-3.3201,-3.1249,-2.9994,-2.9994,-2.9994,-2.9994,-2.9994,-2.9994,-2.9766,-2.9311,-2.8856,-2.8227,-2.7517,-2.7051,-2.6701,-2.656,-2.615,-2.5868,0.0,-2.3439,0.0,-2.8607,-3.0043,-3.1809,0.0,0.0,-3.8512,-4.1692,-4.2351,-4.256,-4.32,-4.2342,-4.1722,-4.2261,-4.1811,-4.1175,-4.0546,-4.0457,-4.0217,-3.9589,-4.0636,-4.1145,-4.0516,-4.1602,-4.2051,-4.1482,-4.1961,-4.2051,-4.1414,-4.2021,-4.2351,-4.2351,-4.2381,-4.2641,-4.323,-4.326,-4.1657,-3.8553,-3.9953,-3.9337,-3.6933,-3.6428,-3.6219,-3.6201,-3.6175,-3.6123,-3.6149,-3.675,-3.7351,-3.7926,-3.8527,-3.9076,-3.952,-3.9599,-3.9207,-3.8658,-3.8658,-3.8344,-3.79,-3.79,-3.79,-3.79,-3.79,-3.79,-3.7808,-3.7248,-3.7108,-3.6968,-3.6546,-3.6405,-3.6405,-3.6405,-3.6405,-3.6707,-3.7764,-3.8843,-3.9446,-3.8944,-3.8844,-3.8492,-3.7362,-3.7161,-3.7033,-3.6531,-3.643,-3.6405,-3.6405,-3.6405,-3.6405,-3.6405,-3.4483,-3.3201,-3.3201,-3.1249,-2.9994,-2.9994,-2.9994,-2.9994,-2.9994,-2.9994,-2.9766,-2.9311,-2.8856,-2.8457,-2.8166,-2.7065,-2.662,-2.6755,-2.6065,-2.5693,0.0,0.0,0.0,-2.6273,-2.7649,-2.9202,-3.124,-3.2377,-3.3574,-3.5609,-3.6058,-3.6626,-3.8571,-4.0277,-4.1482,-4.1722,-4.1572,-4.1145,-4.0487,-4.0397,-4.0157,-3.9499,-3.9828,-4.0038,-3.9798,-4.0187,-4.0546,-4.0726,-4.0965,-4.1175,-4.1422,-4.1632,-4.1782,-4.1782,-4.1782,-4.2081,-4.2701,-4.2282,-4.1123,-3.9241,-3.9732,-3.873,-3.6436,-3.6593,-3.6279,-3.5574,-3.5574,-3.5365,-3.5025,-3.5234,-3.5469,-3.5757,-3.6671,-3.7403,-3.7978,-3.837,-3.8606,-3.8658,-3.8318,-3.8057,-3.79,-3.79,-3.79,-3.79,-3.79,-3.79,-3.7808,-3.7459,-3.7201,-3.7015,-3.6687,-3.6499,-3.6405,-3.6405,-3.6958,-3.7538,-3.7914,-3.8894,-3.9521,-3.8969,-3.8919,-3.8793,-3.8341,-3.7663,-3.7236,-3.7387,-3.6857,-3.6405,-3.6405,-3.6405,-3.6405,-3.6405,-3.4483,-3.3201,-3.3201,-3.1249,-2.9994,-2.9994,-2.9994,-2.9994,-2.9994,-2.9994,-2.9859,-2.9486,-2.8747,-2.8357,-2.8457,-2.7134,-2.6669,-2.7061,-2.6133,-2.5693,-1.827,0.0,0.0,0.0,0.0,-2.5458,-2.747,-2.8577,-2.9774,-3.175,-3.2706,-3.3844,-3.6088,-3.8631,-4.0457,-4.0696,-4.0726,-4.0576,-4.0127,-4.0068,-3.9918,-3.9433,-3.9619,-3.9738,-3.9738,-3.9948,-4.0247,-4.0696,-4.0726,0.0,-4.1025,-4.1055,-4.1055,-4.1055,-4.1265,-4.1632,-4.2081,-4.1632,-4.0637,-3.9099,-3.9438,-3.8401,-3.6123,-3.6724,-3.6593,-3.5835,-3.5469,-3.4946,-3.4397,-3.4397,-3.4528,-3.4789,-3.573,-3.6593,-3.7403,-3.8187,-3.8579,-3.8684,-3.8527,-3.8214,-3.79,-3.79,-3.79,-3.79,-3.79,-3.79,-3.7808,-3.7459,-3.7273,-3.7015,-3.6687,-3.6499,-3.6405,-3.6405,-3.7211,-3.8015,-3.8015,-3.8894,-3.9597,-3.922,-3.9145,-3.9019,-3.8642,-3.8115,-3.7688,-3.7487,-3.6985,-3.6606,-3.643,-3.6405,-3.6263,-3.5906,-3.4288,-3.3051,-3.27,-3.1043,-2.9994,-2.9994,-2.9994,-2.9994,-2.9994,-2.9994,-2.9889,-2.9606,-2.8656,-2.8318,-2.8532,-2.7097,-2.6572,-2.6913,-2.6084,-2.5693,0.0,0.0,0.0,0.0,0.0,0.0,-2.3738,0.0,-2.744,-3.0644,-3.2916,-3.4773,-3.6148,-3.7404,-3.8482,-3.923,-3.9373,-3.9439,-3.9439,-3.9439,-3.9403,-3.9373,-3.9978,-4.0367,-4.0367,-4.0935,-4.1324,-4.1324,-4.1324,-4.1055,-4.0397,-4.0367,-4.0367,-4.0367,-4.0995,-4.1324,-4.1354,-4.1324,-4.0206,-3.7918,-3.9045,-3.8373,-3.6123,-3.675,-3.7011,-3.6933,-3.5809,-3.4972,-3.4424,-3.4397,-3.4737,-3.5338,-3.5861,-3.6802,-3.8004,-3.9128,-3.9181,-3.8789,-3.939,-3.8841,-3.79,-3.79,-3.79,-3.79,-3.79,-3.79,-3.7808,-3.7248,-3.7108,-3.6968,-3.6499,-3.6405,-3.6405,-3.6405,-3.7186,-3.799,-3.799,-3.8868,-3.9672,-3.9697,-3.9697,-3.9346,-3.8216,-3.8492,-3.8341,-3.6681,-3.6835,-3.696,-3.648,-3.6405,-3.6026,-3.4921,-3.3845,-3.275,-3.1688,-3.0651,-2.9994,-2.9994,-2.9994,-2.9994,-2.9994,-2.9994,-2.9889,-2.9606,-2.8676,-2.8279,-2.8488,-2.6893,-2.6182,-2.6367,-2.5937,-2.5693,-1.716,0.0,0.0,0.0,0.0,0.0,0.0,0.0,-2.4956,-2.6817,-2.8846,-3.1061,-3.3814,-3.4622,-3.5549,-3.7614,-3.917,-4.0127,-4.0127,-4.0127,-3.9948,-3.9433,-3.9589,-3.9679,-3.9679,-3.9858,-3.9948,0.0,-3.9948,-3.9888,-3.9709,-3.9679,-3.9679,-3.9679,-3.9858,-4.0187,-4.0666,-4.0217,-3.9287,-3.7889,-3.8555,-3.7878,-3.6149,-3.7194,-3.7403,-3.6959,-3.6201,-3.5574,-3.5025,-3.458,-3.4502,-3.4659,-3.4816,-3.5835,-3.7299,-3.7612,-3.8135,-3.8736,-3.8893,-3.8501,-3.79,-3.79,-3.79,-3.79,-3.79,-3.79,-3.7854,-3.7716,-3.7413,-3.6968,-3.6499,-3.6405,-3.6405,-3.6405,-3.6933,-3.7412,-3.7412,-3.8291,-3.922,-3.9622,-3.9697,-3.9471,-3.8743,-3.8417,-3.7939,-3.7086,-3.6782,-3.6581,-3.643,-3.6405,-3.6026,-3.4921,-3.3845,-3.275,-3.1688,-3.0651,-2.9994,-2.9994,-2.9994,-2.9994,-2.9994,-2.9816,-2.9554,-2.9237,-2.8517,-2.8038,-2.7917,-2.6695,-2.628,-2.6646,-2.6035,-2.5693,0.0,0.0,0.0,0.0,0.0,0.0,-2.0049,-2.1994,-2.3819,-2.4597,-2.6572,-2.8996,-3.1749,-3.2258,-3.3215,-3.6148,-3.7584,-3.8542,-3.908,-3.914,-3.902,-3.8631,-3.8571,-3.8571,-3.8571,-3.8571,-3.8571,-3.8571,-3.8571,-3.8691,-3.896,-3.899,-3.911,-3.9373,-3.9373,-3.9619,-3.9978,-3.9261,-3.8414,-3.7496,-3.763,-3.716,-3.6149,-3.709,-3.7482,-3.7351,-3.675,-3.6149,-3.56,-3.4999,-3.4633,-3.4397,-3.4397,-3.5312,-3.6671,-3.6907,-3.7586,-3.8397,-3.8632,-3.8344,-3.79,-3.79,-3.79,-3.79,-3.79,-3.79,-3.7854,-3.7762,-3.7366,-3.6875,-3.6499,-3.6405,-3.6405,-3.6405,-3.6832,-3.7186,-3.7186,-3.7889,-3.8668,-3.9245,-3.9546,-3.9521,-3.8969,-3.8592,-3.809,-3.7312,-3.691,-3.6681,-3.643,-3.6405,-3.581,-3.4288,-3.3549,-3.26,-3.1043,-3.0339,-2.9994,-2.9994,-2.9994,-2.9994,-2.9994,-2.9711,-2.9448,-2.9132,-2.8428,-2.787,-2.7402,-2.6595,-2.6281,-2.634,-2.5908,-2.5693,0.0,0.0,0.0,0.0,0.0,0.0,-1.9588,-2.1724,-2.358,-2.352,-2.5578,-2.7944,-2.9744,-3.0073,-3.1061,-3.4143,-3.4801,-3.5519,-3.7195,-3.7404,-3.7404,-3.7404,-3.7404,-3.7404,-3.7404,-3.7404,-3.7404,-3.7404,-3.7404,-3.7674,-3.8242,-3.8362,-3.8661,-3.929,-3.9343,-3.9373,-3.9373,-3.8686,-3.7872,-3.6894,-3.6741,-3.6458,-3.6123,-3.6724,-3.7325,-3.7874,-3.7273,-3.6671,-3.607,-3.5521,-3.4946,-3.4397,-3.4397,-3.5103,-3.6175,-3.6776,-3.7377,-3.7978,-3.8527,-3.8344,-3.79,-3.79,-3.79,-3.79,-3.79,-3.79,-3.7854,-3.7551,-3.7108,-3.6662,-3.6452,-3.6405,-3.6405,-3.6405,-3.6782,-3.7086,-3.7086,-3.7538,-3.8065,-3.8642,-3.912,-3.9346,-3.8868,-3.8718,-3.8416,-3.7412,-3.7236,-3.7059,-3.6556,-3.6505,-3.5645,-3.3449,-3.3201,-3.2348,-3.0203,-2.9994,-2.9994,-2.9994,-2.9994,-2.9994,-2.9994,-2.9711,-2.9396,-2.9132,-2.8488,-2.7759,-2.709,-2.6621,-2.6191,-2.5752,-2.5713,-2.5693,0.0,0.0,0.0,0.0,0.0,0.0,-1.9779,-2.1724,-2.346,-2.2972,-2.4537,-2.6273,-2.7171,-2.735,-2.7739,-2.8963,-3.0432,-3.2856,-3.6836,-3.7404,-3.7404,-3.7404,-3.7404,-3.7404,-3.7404,-3.7404,-3.7404,-3.7404,-3.7404,-3.7464,-3.7584,-3.8093,-3.8452,-3.8571,-3.914,-3.9373,-3.9373,-3.9228,-3.8397,-3.6894,-3.7342,-3.7016,-3.6123,-3.6724,-3.7325,-3.7874,-3.7273,-3.6671,-3.607,-3.5521,-3.4946,-3.4397,-3.4397,-3.5103,-3.6175,-3.6776,-3.7377,-3.7978,-3.8527,-3.8344,-3.79,-3.79,-3.79,-3.79,-3.79,-3.79,-3.7808,-3.732,-3.6968,-3.6662,-3.6452,-3.6405,-3.6405,-3.6405,-3.648,-3.6581,-3.6581,-3.7008,-3.7387,-3.7487,-3.7965,-3.8291,-3.8191,-3.7814,-3.7588,-3.7814,-3.7462,-3.7136,-3.7036,-3.701,-3.6038,-3.3496,-3.3201,-3.2348,-3.0203,-2.9994,-2.9994,-2.9994,-2.9994,-2.9994,-2.9994,-2.9501,-2.9185,-2.9079,-2.8575,-2.8002,-2.7539,-2.6758,-2.6348,-2.625,-2.5898,-2.5693,0.0,0.0,0.0,-2.0617,0.0,0.0,0.0,-2.1724,-2.3062,-2.2763,-2.3191,-2.4148,-2.5794,-2.4633,-2.4208,-2.6722,-2.8327,-3.0413,-3.3514,-3.4831,-3.5459,-3.5459,-3.5459,-3.5459,-3.5459,-3.5759,-3.6088,-3.6447,-3.6447,-3.6596,-3.6926,-3.7255,-3.7734,-3.8362,-3.8721,-3.908,-3.9373,-3.901,-3.8173,-3.6894,-3.6797,-3.6537,-3.6123,-3.641,-3.7037,-3.7874,-3.7586,-3.7116,-3.6515,-3.594,-3.5365,-3.4816,-3.4528,-3.5103,-3.6096,-3.6149,-3.6907,-3.7952,-3.8214,-3.8135,-3.7952,-3.8214,-3.8135,-3.79,-3.79,-3.79,-3.7808,-3.7248,-3.7015,-3.6828,-3.6499,-3.6405,-3.6405,-3.6405,-3.6405,-3.6405,-3.6405,-3.6631,-3.6832,-3.6832,-3.6985,-3.7362,-3.7914,-3.7538,-3.7287,-3.7563,-3.7136,-3.6616,-3.6061,-3.6013,-3.5064,-3.2672,-3.2398,-3.1739,-3.0151,-2.9994,-2.9994,-2.9994,-2.9994,-2.9994,-2.9994,-2.9396,-2.8973,-2.8708,-2.8441,-2.8184,-2.7988,-2.7109,-2.6602,-2.6387,-2.5937,-2.5693,0.0,0.0,0.0,0.0,0.0,-2.0139,0.0,0.0,0.0,-2.2134,-2.1684,-2.1944,0.0,0.0,0.0,-2.4186,0.0,0.0,0.0,-3.0225,0.0,-3.3335,-3.3484,-3.3484,-3.3484,-3.3634,-3.3993,-3.4681,-3.4741,-3.504,-3.5699,-3.6207,-3.6956,-3.7973,-3.8153,-3.8482,-3.8985,-3.8524,-3.7783,-3.6957,-3.6251,-3.602,-3.62,-3.6131,-3.6645,-3.756,-3.7795,-3.7429,-3.6645,-3.6253,-3.573,-3.5077,-3.458,-3.5025,-3.5887,-3.5469,-3.6253,-3.756,-3.7691,-3.7743,-3.7821,-3.837,-3.8266,-3.79,-3.79,-3.7854,-3.7644,-3.7201,-3.7015,-3.6875,-3.6499,-3.6405,-3.6405,-3.6405,-3.6405,-3.6405,-3.6405,-3.6405,-3.643,-3.6556,-3.648,-3.6732,-3.7688,-3.7387,-3.7111,-3.7312,-3.6933,-3.6175,-3.509,-3.4919,-3.4087,-3.1841,-3.1586,-3.1197,-3.0099,-2.9994,-2.9994,-2.9994,-2.9994,-2.9994,-2.9994,-2.9396,-2.8867,-2.8281,-2.8301,-2.8301,-2.8301,-2.7519,-2.6914,-2.6504,-2.6074,-2.5771,0.0,0.0,0.0,0.0,-2.1156,0.0,-2.0067,0.0,-2.0767,-2.0157,0.0,0.0,0.0,0.0,0.0,0.0,0.0,0.0,-2.0745,-2.2974,-2.6901,-3.2796,-3.3484,-3.3484,-3.3484,-3.1958,-3.124,-3.1899,-3.1959,-3.2258,-3.2946,-3.519,-3.6567,-3.6686,-3.7225,-3.7554,-3.7644,-3.8142,-3.7984,-3.7155,-3.691,-3.6666,-3.6452,-3.6207,-3.6175,-3.6358,-3.7429,-3.6985,-3.5521,-3.594,-3.5469,-3.4502,-3.4424,-3.4816,-3.5391,-3.5312,-3.573,-3.6384,-3.6933,-3.7116,-3.7194,-3.7795,-3.7952,-3.79,-3.79,-3.7551,-3.7155,-3.7108,-3.6781,-3.6452,-3.6405,-3.6405,-3.6405,-3.6405,-3.6405,-3.6405,-3.6405,-3.6405,-3.6556,-3.6985,-3.6757,-3.6606,-3.7161,-3.6883,-3.6784,-3.7764,-3.7437,-3.6747,-3.5621,-3.5522,-3.4487,-3.1885,-3.1586,-3.1197,-3.0099,-2.9994,-2.9994,-2.9994,-2.9994,-2.9994,-2.9994,-2.9396,-2.8867,-2.8281,-2.8301,-2.8301,-2.8301,-2.7832,-2.7363,-2.6934,-2.6504,-2.6113,0.0,0.0,0.0,0.0,0.0,0.0,-2.0976,0.0,-2.0509,0.0,0.0,0.0,0.0,0.0,0.0,0.0,-1.8902,0.0,0.0,0.0,-2.44,-2.7385,0.0,0.0,-2.8846,-2.8517,-2.8517,-2.9175,-3.0283,-3.1212,-3.1869,-3.4083,-3.5701,-3.6477,-3.6746,-3.7045,-3.7404,-3.8063,-3.7758,-3.6447,-3.6739,-3.6518,-3.5838,-3.6008,-3.6305,-3.6671,-3.7534,-3.7299,-3.6279,-3.6149,-3.5626,-3.4894,-3.4528,-3.4763,-3.526,-3.4894,-3.5547,-3.6671,-3.6907,-3.722,-3.7612,-3.8187,-3.8161,-3.7932,-3.8153,-3.7764,-3.7248,-3.6968,-3.6734,-3.6546,-3.6452,-3.6405,-3.6405,-3.6405,-3.6405,-3.6405,-3.6405,-3.6405,-3.648,-3.6707,-3.6556,-3.648,-3.6707,-3.6556,-3.6681,-3.7412,-3.6552,-3.5526,-3.4772,-3.3885,-3.26,-3.0858,-3.0681,-3.0495,-3.0047,-2.9994,-2.9994,-2.9994,-2.9994,-2.9837,-2.9501,-2.9237,-2.8867,-2.8281,-2.8301,-2.8301,-2.8301,-2.7924,-2.763,-2.7383,-2.6953,-2.666,-2.471,0.0,0.0,0.0,0.0,0.0,0.0,0.0,0.0,0.0,0.0,0.0,0.0,0.0,0.0,0.0,0.0,-1.853,0.0,-1.9982,0.0,0.0,0.0,0.0,0.0,-2.4967,-2.5305,-2.6417,-2.8158,-2.9385,-2.9866,-3.2826,-3.4803,-3.537,-3.5938,-3.6447,-3.6896,-3.7524,-3.7246,-3.6005,-3.6409,-3.6191,-3.5431,-3.5913,-3.6253,-3.6593,-3.7508,-3.7377,-3.6515,-3.6227,-3.5678,-3.4999,-3.458,-3.4659,-3.4999,-3.4554,-3.5312,-3.6567,-3.6698,-3.7351,-3.8161,-3.8397,-3.8272,-3.8048,-3.8143,-3.7723,-3.7201,-3.6803,-3.6662,-3.6593,-3.6452,-3.6405,-3.6405,-3.6405,-3.6405,-3.6405,-3.6405,-3.6405,-3.6455,-3.6606,-3.6505,-3.6455,-3.6606,-3.6505,-3.6556,-3.6933,-3.5843,-3.4695,-3.388,-3.2632,-3.1327,-3.012,-2.9994,-2.9994,-2.9994,-2.9994,-2.9994,-2.9994,-2.9994,-2.9732,-2.9132,-2.9079,-2.8867,-2.8281,-2.8301,-2.8301,-2.8301,-2.7988,-2.7832,-2.7832,-2.7402,-2.7129,0.0,0.0,0.0,-2.5704,0.0,0.0,0.0,0.0,-2.1485,0.0,0.0,0.0,0.0,0.0,0.0,0.0,0.0,0.0,0.0,0.0,0.0,0.0,0.0,0.0,0.0,-2.1896,-2.1344,-2.3558,-2.4986,-2.5764,-2.5794,-3.133,-3.3903,-3.2677,-3.4532,-3.5549,-3.5579,-3.6207,-3.6462,-3.6179,-3.6014,-3.5831,-3.5696,-3.596,-3.5835,-3.5443,-3.7168,-3.6933,-3.5391,-3.5887,-3.5443,-3.4424,-3.4397,-3.4397,-3.4424,-3.4397,-3.4816,-3.5417,-3.594,-3.7246,-3.8606,-3.8083,-3.8127,-3.8277,-3.7686,-3.7134,-3.6709,-3.6709,-3.6546,-3.6405,-3.6405,-3.6405,-3.6405,-3.6405,-3.6405,-3.6405,-3.6405,-3.6405,-3.6556,-3.7061,-3.6782,-3.6581,-3.7061,-3.6757,-3.6405,-3.643,-3.5893,-3.493,-3.3442,-3.267,-3.1693,-3.014,-2.9994,-2.9994,-2.9994,-2.9994,-2.9994,-2.9994,-2.9994,-2.9732,-2.9132,-2.9079,-2.8867,-2.8281,-2.8301,-2.8301,-2.8301,-2.8281,-2.8262,-2.8262,-2.7904,-2.7422,0.0,0.0,-2.7769,-2.7106,0.0,0.0,0.0,0.0,0.0,0.0,0.0,0.0,0.0,0.0,0.0,0.0,0.0,0.0,0.0,0.0,0.0,0.0,0.0,0.0,0.0,0.0,-1.8796,-2.027,-2.2024,-2.3969,-2.6153,-2.9804,-3.2437,-3.3754,-3.4921,-3.5231,-3.471,-3.5355,-3.5337,-3.4612,-3.4992,-3.5046,-3.4853,-3.5335,-3.5469,-3.5338,-3.6305,-3.6175,-3.5312,-3.5495,-3.5103,-3.4397,-3.4397,-3.4397,-3.445,-3.4842,-3.5338,-3.5966,-3.6959,-3.7691,-3.8266,-3.8841,-3.8444,-3.7893,-3.8247,-3.7603,-3.6662,-3.6546,-3.6452,-3.6405,-3.6405,-3.6405,-3.6405,-3.6405,-3.6405,-3.6405,-3.6405,-3.6405,-3.6455,-3.6656,-3.6531,-3.6455,-3.6656,-3.6784,-3.6769,-3.6382,-3.5551,-3.4642,-3.3726,-3.2189,-3.1021,-3.0523,-3.018,-2.9994,-2.9994,-2.9994,-2.9994,-2.9994,-2.9994,-2.9732,-2.9132,-2.9413,-2.9166,-2.8301,-2.8574,-2.8574,-2.8301,-2.8301,-2.8301,-2.8281,-2.8144,-2.8008,-3.2677,-3.1689,0.0,-2.9564,-2.8008,0.0,-2.5398,0.0,-2.5338,0.0,0.0,0.0,0.0,0.0,0.0,0.0,0.0,0.0,0.0,-1.4746,0.0,0.0,0.0,0.0,0.0,-1.6369,-1.7003,-1.8578,-2.0348,-2.2263,0.0,-2.7497,-2.9848,-3.127,-3.2346,-3.3008,-3.3264,-3.3503,-3.3684,-3.3815,-3.426,-3.442,-3.4424,-3.5025,-3.5286,-3.5338,-3.5861,-3.5913,-3.5574,-3.5391,-3.5077,-3.4685,-3.4476,-3.4397,-3.4476,-3.5077,-3.5783,-3.6567,-3.756,-3.8031,-3.8318,-3.8908,-3.8459,-3.7758,-3.8239,-3.7566,-3.6593,-3.6452,-3.6405,-3.6405,-3.6405,-3.6556,-3.6656,-3.6455,-3.6556,-3.6656,-3.6455,-3.6405,-3.6405,-3.6405,-3.6405,-3.6405,-3.6405,-3.681,-3.6872,-3.5935,-3.5273,-3.4525,-3.3385,-3.1911,-3.0864,-3.0698,-3.0263,-2.9994,-2.9994,-2.9994,-2.9994,-2.9994,-2.9942,-2.9688,-2.9353,-2.9547,-2.9376,-2.875,-2.8867,-2.8789,-2.8516,-2.8359,-2.8301,-2.8301,-2.8301,-2.8301]},{"header":{"parameterUnit":"m.s-1","parameterCategory":1,"la1":30.6,"la2":29.2853,"lo1":-89.7004,"lo2":-87.6739,"dy":0.0162,"dx":0.0183,"nx":112,"ny":82,"refTime":"2023-03-20T00:00:00:Z","depth":0,"parameterNumber":3,"parameterNumberName":"V-component_of_WINDS"},"data":[0.0,0.0,0.0,0.0,0.0,0.0,0.0,0.0,0.0,0.0,0.0,0.0,0.0,0.0,0.0,0.0,0.0,0.0,0.0,0.0,0.0,0.0,0.0,0.0,0.0,0.0,0.0,0.0,0.0,0.0,0.0,0.0,0.0,0.0,0.0,0.0,0.0,0.0,0.0,0.0,0.0,0.0,0.0,0.0,0.0,0.0,0.0,0.0,0.0,0.0,0.0,0.0,0.0,0.0,0.0,0.0,0.0,0.0,0.0,0.0,0.0,0.0,0.0,0.0,0.0,0.0,0.0,0.0,0.0,0.0,0.0,0.0,0.0,0.0,0.0,0.0,0.0,0.0,0.0,0.0,0.0,0.0,0.0,0.0,0.0,0.0,0.0,0.0,0.0,0.0,0.9012,1.1484,1.4219,1.5514,1.4624,1.3503,1.2127,1.0434,0.0,0.0,0.0,0.0,0.0,0.0,0.0,0.0,0.0,0.0,0.0,0.0,0.0,0.0,0.0,0.0,0.0,0.0,0.0,0.0,0.0,0.0,0.0,0.0,0.0,0.0,0.0,0.0,0.0,0.0,0.0,0.0,0.0,0.0,0.0,0.0,0.0,0.0,0.0,0.0,0.0,0.0,0.0,0.0,0.0,0.0,0.0,0.0,0.0,0.0,0.0,0.0,0.0,0.0,0.0,0.0,0.0,0.0,0.0,0.0,0.0,0.0,0.0,0.0,0.0,0.0,0.0,0.0,0.0,0.0,0.0,0.0,0.0,0.0,0.0,0.0,0.0,0.0,0.0,0.0,0.0,0.0,0.0,0.0,0.0,0.0,0.0,0.0,0.0,0.0,0.0,0.0,0.0,0.0,0.0,0.0,0.0,0.0,0.0,0.0,0.0,0.0,0.0,0.0,1.0066,1.3028,1.4469,1.4636,1.3159,1.3088,1.1843,0.8858,0.0,0.0,0.0,0.0,0.0,0.0,0.0,0.0,0.0,0.0,0.0,0.0,0.0,0.0,0.0,0.0,0.0,0.0,0.0,0.0,0.0,0.0,0.0,0.0,0.0,0.0,0.0,0.0,0.0,0.0,0.0,0.0,0.0,0.0,0.0,0.0,0.0,0.0,0.0,0.0,0.0,0.0,0.0,0.0,0.0,0.0,0.0,0.0,0.0,0.0,0.0,0.0,0.0,0.0,0.0,0.0,0.0,0.0,0.0,0.0,0.0,0.0,0.0,0.0,0.0,0.0,0.0,0.0,0.0,0.0,0.0,0.0,0.0,0.0,0.0,0.0,0.0,0.0,0.0,0.0,0.0,0.0,0.0,0.0,0.0,0.0,0.0,0.0,0.0,0.0,0.0,0.0,0.0,0.0,0.0,0.0,0.0,0.0,0.0,0.0,0.0,0.0,0.0,1.0123,1.1373,1.4017,1.4391,1.4159,1.3412,1.2441,1.1273,0.9749,0.8825,0.0,0.0,0.0,0.0,0.0,0.0,0.0,0.0,0.0,0.0,0.0,0.0,0.0,0.0,0.0,0.0,0.0,0.0,0.0,0.0,0.0,0.0,0.0,0.0,0.0,0.0,0.0,0.0,0.0,0.0,0.0,0.0,0.0,0.0,0.0,0.0,0.0,0.0,0.0,0.0,0.0,0.0,0.0,0.0,0.0,0.0,0.0,0.0,0.0,0.0,0.0,0.0,0.0,0.0,0.0,0.0,0.0,0.0,0.0,0.0,0.0,0.0,0.0,0.0,0.0,0.0,0.0,0.0,0.0,0.0,0.0,0.0,0.0,0.0,0.0,0.0,0.0,0.0,0.0,0.0,0.0,0.0,0.0,0.0,0.0,0.0,0.0,0.0,0.0,0.0,0.0,0.0,0.0,0.0,0.0,0.0,0.0,0.0,0.0,0.0,0.0,0.0,1.1408,1.2134,1.4062,1.3894,1.3511,1.3102,1.1718,1.0656,1.0269,0.8589,0.0,0.0,0.0,0.0,0.0,0.0,0.0,0.0,0.0,0.0,0.0,0.0,0.0,0.0,0.0,0.0,0.0,0.0,0.0,0.0,0.0,0.0,0.0,0.0,0.0,0.0,0.0,0.0,0.0,0.0,0.0,0.0,0.0,0.0,0.0,0.0,0.0,0.0,0.0,0.0,0.0,0.0,0.0,0.0,0.0,0.0,0.0,0.0,0.0,0.0,0.0,0.0,0.0,0.0,0.0,0.0,0.0,0.0,0.0,0.0,0.0,0.0,0.0,0.0,0.0,0.0,0.0,0.0,0.0,0.0,0.0,0.0,0.0,0.0,0.0,0.0,0.0,0.0,0.0,0.0,0.0,0.0,0.0,0.0,0.0,0.0,0.0,0.0,0.0,0.0,0.0,0.0,0.0,0.0,0.0,0.0,0.0,0.0,0.0,0.0,0.0,0.0,1.1408,1.1712,1.2576,1.2869,1.2353,1.0781,1.0845,1.0297,0.8686,0.8538,0.0,0.0,0.0,0.0,0.0,0.0,0.0,0.0,0.0,0.0,0.0,0.0,0.0,0.0,0.0,0.0,0.0,0.0,0.0,0.0,0.0,0.0,0.0,0.0,0.0,0.0,0.0,0.0,0.0,0.0,0.0,0.0,0.0,0.0,0.0,0.0,0.0,0.0,0.0,0.0,0.0,0.0,0.0,0.0,0.0,0.0,0.0,0.0,0.0,0.0,0.0,0.0,0.0,0.0,0.0,0.0,0.0,0.0,0.0,0.0,0.0,0.0,0.0,0.0,0.0,0.0,0.0,0.0,0.0,0.0,0.0,0.0,0.0,0.0,0.0,0.0,0.0,0.0,0.0,0.0,0.0,0.0,0.0,0.0,0.0,0.0,0.0,0.0,0.0,0.0,0.0,0.0,0.0,0.0,0.0,0.0,0.0,0.0,0.0,0.0,0.0,0.0,1.0635,1.0952,1.1712,1.1539,1.1098,1.0516,1.0259,0.9886,0.9297,0.0,0.0,0.0,0.0,0.0,0.0,0.0,0.0,0.0,0.0,0.0,0.0,0.0,0.0,0.0,0.0,0.0,0.0,0.0,0.0,0.0,0.0,0.0,0.0,0.0,0.0,0.0,0.0,0.0,0.0,0.0,0.0,0.0,0.0,0.0,0.0,0.0,0.0,0.0,0.0,0.0,0.0,0.0,0.0,0.0,0.0,0.0,0.0,0.0,0.0,0.0,0.0,0.0,0.0,0.0,0.0,0.0,0.0,0.0,0.0,0.0,0.0,0.0,0.0,0.0,0.0,0.0,0.0,0.0,0.0,0.0,0.0,0.0,0.0,0.0,0.0,0.0,0.0,0.0,0.0,0.0,0.0,0.0,0.0,0.0,0.0,0.0,0.0,0.0,0.0,0.0,0.0,0.0,0.0,0.0,0.0,0.0,0.0,0.0,0.0,0.0,0.0,1.0117,1.0186,1.0394,1.0952,1.0651,1.033,1.0125,0.9749,0.9583,0.9732,0.0,0.0,0.0,0.0,0.0,0.0,0.0,0.0,0.0,0.0,0.0,0.0,0.0,0.0,0.0,0.0,0.0,0.0,0.0,0.0,0.0,0.0,0.0,0.0,0.0,0.0,0.0,0.0,0.0,0.0,0.0,0.0,0.0,0.0,0.0,0.0,0.0,0.0,0.0,0.0,0.0,0.0,0.0,0.0,0.0,0.0,0.0,0.0,0.0,0.0,0.0,0.0,0.0,0.0,0.0,0.0,0.0,0.0,0.0,0.0,0.0,0.0,0.0,0.0,0.0,0.0,0.0,0.0,0.0,0.0,0.0,0.0,0.0,0.0,0.0,0.0,0.0,0.0,0.0,0.0,0.0,0.0,0.0,0.0,0.0,0.0,0.0,0.0,0.0,0.0,0.0,0.0,0.0,0.0,0.0,0.0,0.0,0.0,0.0,0.0,0.0,0.0,1.0083,1.0186,1.0186,1.0186,1.0319,1.0082,0.9353,0.9367,0.9438,0.0,0.0,0.0,0.0,0.0,0.0,0.0,0.0,0.0,0.0,0.0,0.0,0.0,0.0,0.0,0.0,0.0,0.0,0.0,0.0,0.0,0.0,0.0,0.0,0.0,0.0,0.0,0.0,0.0,0.0,0.0,0.0,0.0,0.0,0.0,0.0,0.0,0.0,0.0,0.0,0.0,0.0,0.0,0.0,0.0,0.0,0.0,0.0,0.0,0.0,0.0,0.0,0.0,0.0,0.0,0.0,0.0,0.0,0.0,0.0,0.0,0.0,0.0,0.0,0.0,0.0,0.0,0.0,0.0,0.0,0.0,0.0,0.0,0.0,0.0,0.0,0.0,0.0,0.0,0.0,0.0,0.0,0.0,0.0,0.0,0.0,0.0,0.0,0.0,0.0,0.0,0.0,0.0,0.0,0.0,0.0,0.0,0.0,0.0,0.0,0.0,0.0,0.0,0.9392,0.9432,0.9432,0.9432,0.9459,0.9408,0.9239,0.9237,0.9372,0.9599,0.0,0.0,0.0,0.0,0.0,0.0,0.0,0.0,0.0,0.0,0.0,0.0,0.0,0.0,0.0,0.0,0.0,0.0,0.0,0.0,0.0,0.0,0.0,0.0,0.0,0.0,0.0,0.0,0.0,0.0,0.0,0.0,0.0,0.0,0.0,0.0,0.0,0.0,0.0,0.0,0.0,0.0,0.0,0.0,0.0,0.0,0.0,0.0,0.0,0.0,0.0,0.0,0.0,0.0,0.0,0.0,0.0,0.0,0.0,0.0,0.0,0.0,0.0,0.0,0.0,0.0,0.0,0.0,0.0,0.0,0.0,0.0,0.0,0.0,0.0,0.0,0.0,0.0,0.0,0.0,0.0,0.0,0.0,0.0,0.0,0.0,0.0,0.0,0.0,0.0,0.0,0.0,0.0,0.0,0.0,0.0,0.0,0.0,0.0,0.0,0.0,0.0,0.9452,0.9508,0.9548,0.9537,0.9554,0.9419,0.9169,0.9174,0.9258,0.9475,0.0,0.0,0.0,0.0,0.0,0.0,0.0,0.0,0.0,0.0,0.0,0.0,0.0,0.0,0.0,0.0,0.0,0.0,0.0,0.0,0.0,0.0,0.0,0.0,0.0,0.0,0.0,0.0,0.0,0.0,0.0,0.0,0.0,0.0,0.0,0.0,0.0,0.0,0.0,0.0,0.0,0.0,0.0,0.0,0.0,0.0,0.0,0.0,0.0,0.0,0.0,0.0,0.0,0.0,0.0,0.0,0.0,0.0,0.0,0.0,0.0,0.0,0.0,0.0,0.0,0.0,0.0,0.0,0.0,0.0,0.0,0.0,0.0,0.0,0.0,0.0,0.0,0.0,0.0,0.0,0.0,0.0,0.0,0.0,0.0,0.0,0.0,0.0,0.0,0.0,0.0,0.0,0.0,0.0,0.0,0.0,0.0,0.0,0.0,0.0,0.0,0.0,1.001,1.0081,1.0127,1.0171,1.0145,0.9801,0.915,0.9087,0.9143,0.9273,0.0,0.0,0.0,0.0,0.0,0.0,0.0,0.0,0.0,0.0,0.0,0.0,0.0,0.0,0.0,0.0,0.0,0.0,0.0,0.0,0.0,0.0,0.0,0.0,0.0,0.0,0.0,0.0,0.0,0.0,0.0,0.0,0.0,0.0,0.0,0.0,0.0,0.0,0.0,0.0,0.0,0.0,0.0,0.0,0.0,0.0,0.0,0.0,0.0,0.0,0.0,0.0,0.0,0.0,0.0,0.0,0.0,0.0,0.0,0.0,1.5804,1.2937,0.0,0.0,0.0,0.0,0.0,0.0,0.0,0.0,0.0,0.0,0.0,0.0,0.0,0.0,0.0,0.0,0.0,0.0,0.0,0.0,0.0,0.0,0.0,0.0,0.0,0.0,0.0,0.0,0.0,0.0,0.0,0.0,0.0,0.0,0.0,0.0,0.0,0.0,0.0,0.0,1.001,0.9606,0.9475,1.0051,0.9601,0.9206,0.9039,0.9066,0.9133,0.9199,0.9199,0.0,0.0,0.0,0.0,0.0,0.0,0.0,0.0,0.0,0.0,0.0,0.0,0.0,0.0,0.0,0.0,0.0,0.0,0.0,0.0,0.0,0.0,0.0,0.0,0.0,0.0,0.0,0.0,0.0,0.0,0.0,0.0,0.0,0.0,0.0,0.0,0.0,0.0,0.0,0.0,0.0,0.0,0.0,0.0,0.0,0.0,0.0,0.0,0.0,0.0,0.0,0.0,0.0,0.0,0.0,0.0,0.0,0.0,0.0,1.9897,1.7471,0.0,0.0,0.0,0.0,0.0,0.0,0.0,0.0,0.0,0.0,0.0,0.0,0.0,0.0,0.0,0.0,0.0,0.0,0.0,0.0,0.0,0.0,0.0,0.0,0.0,0.0,0.0,0.0,0.0,0.0,0.0,0.0,0.0,0.0,0.0,0.0,0.0,0.0,0.0,0.0,1.1043,1.0818,1.0586,1.0621,1.0284,0.9755,0.907,0.9023,0.9066,0.9093,0.9099,0.0,0.0,0.0,0.0,0.0,0.0,0.0,0.0,0.0,0.0,0.0,0.0,0.0,0.0,0.0,0.0,0.0,0.0,0.0,0.0,0.0,0.0,0.0,0.0,0.0,0.0,0.0,0.0,0.0,0.0,0.0,0.0,0.0,0.0,0.0,0.0,0.0,0.0,0.0,0.0,0.0,0.0,0.0,0.0,0.0,0.0,0.0,0.0,0.0,0.0,0.0,0.0,0.0,2.6398,2.6996,2.735,2.744,2.8397,2.9744,2.5468,2.3838,2.3936,2.0679,0.0,0.0,0.0,0.0,0.0,0.0,0.0,0.0,0.0,0.0,0.0,0.0,0.0,0.0,0.0,0.0,0.0,0.0,0.0,0.0,0.0,0.0,1.5799,1.6638,1.6292,1.5233,1.3174,0.0,0.0,0.0,0.0,0.0,0.0,0.0,0.0,0.0,0.0,0.0,1.2212,1.2168,1.1904,1.1422,1.1267,1.0646,0.9316,0.9185,0.9127,0.9012,0.9018,0.9034,0.0,0.0,0.0,0.0,0.0,0.0,0.0,0.0,0.0,0.0,0.0,0.0,0.0,0.0,0.0,0.0,0.0,0.0,0.0,0.0,0.0,0.0,0.0,0.0,0.0,0.0,0.0,0.0,0.0,0.0,0.0,0.0,1.9414,1.8536,0.0,0.0,0.0,0.0,0.0,0.0,0.0,0.0,0.0,0.0,0.0,0.0,0.0,2.72,3.0911,3.2258,3.2976,3.3096,3.4861,3.519,3.4203,3.4801,3.519,3.54,3.4743,0.0,2.6087,2.4432,0.0,0.0,0.0,0.0,0.0,0.0,0.0,0.0,0.0,0.0,0.0,0.0,0.0,0.0,0.0,0.0,0.0,0.0,0.0,0.0,0.0,0.0,2.228,2.2113,2.1329,2.0357,1.9453,1.5807,1.2517,1.1967,1.201,1.1908,0.0,0.0,0.0,0.0,0.0,0.0,1.2212,1.1678,1.1475,1.2085,1.1591,1.0873,1.0042,0.9958,0.9669,0.9054,0.8985,0.8991,0.903,0.9076,0.0,0.0,0.0,0.0,0.0,0.0,0.0,0.0,0.0,0.0,0.0,0.0,0.0,0.0,0.0,0.0,0.0,0.0,0.0,0.0,0.0,0.0,0.0,0.0,0.0,0.0,0.0,0.0,0.0,1.8549,2.0656,1.8555,2.0312,2.0064,0.0,0.0,0.0,0.0,0.0,0.0,0.0,0.0,0.0,2.9209,3.0073,3.1839,3.4711,3.6028,3.6866,3.7255,3.8512,3.899,3.8811,3.911,3.923,3.923,3.8841,3.6836,3.3484,2.9564,2.6303,2.361,0.0,0.0,0.0,0.0,2.134,2.1732,2.4563,2.5523,2.5735,2.7043,0.0,0.0,0.0,0.0,0.0,0.0,0.0,2.1461,0.0,2.3985,2.4468,2.4948,2.4403,2.372,2.3488,2.0302,1.6871,1.4723,1.4207,1.3904,1.3151,1.2957,0.0,0.0,0.0,1.3151,1.3489,1.3219,1.299,1.2931,1.2262,1.1482,1.0717,1.0282,0.9921,0.9639,0.9231,0.8998,0.9014,0.9023,0.9044,0.0,0.0,0.0,0.0,0.0,0.0,0.0,0.0,0.0,0.0,0.0,0.0,0.0,0.0,0.0,0.0,0.0,0.0,0.0,0.0,0.0,0.0,0.0,0.0,0.0,0.0,0.0,0.0,1.9978,2.2147,1.9729,2.238,2.2403,0.0,0.0,0.0,0.0,0.0,0.0,2.7798,2.8601,3.045,3.3746,3.4639,3.6131,3.8305,3.9079,3.9861,4.0584,4.1099,4.1526,4.1893,4.1893,4.1863,4.1756,4.1279,4.0674,3.9556,3.423,3.1061,2.9325,2.6482,2.4777,2.414,2.5585,2.6099,2.6548,2.9535,3.061,3.0791,3.2079,3.172,3.0223,2.726,0.0,0.0,0.0,0.0,2.4889,2.6836,2.7234,2.7363,2.8389,2.7979,2.732,2.722,2.5069,2.1966,1.7936,1.6313,1.5334,1.4645,1.4065,0.0,0.0,0.0,1.4584,1.4584,1.4642,1.442,1.3647,1.316,1.2483,1.1502,1.0886,1.0426,1.0085,0.957,0.9174,0.8998,0.8964,0.8964,0.8964,0.0,0.0,0.0,0.0,0.0,0.0,0.0,0.0,0.0,0.0,0.0,0.0,0.0,0.0,0.0,0.0,0.0,0.0,0.0,0.0,0.0,0.0,0.0,0.0,0.0,0.0,0.0,0.0,0.0,2.3573,2.5537,0.0,0.0,0.0,0.0,2.6739,2.6685,2.8949,3.4512,3.3955,3.557,4.0085,3.9702,4.0645,4.3248,4.2747,4.2928,4.3753,4.3783,4.3607,4.32,4.32,4.3121,4.2931,4.2902,4.2357,4.1312,3.7679,3.4651,3.2168,3.0731,2.8996,2.7585,2.9505,3.0193,3.0492,3.2587,3.3305,3.3514,3.4861,3.3543,3.1062,2.9056,2.7021,0.0,0.0,2.8308,2.8933,3.1509,3.2617,3.3246,3.3934,3.3095,3.1959,3.1331,2.9944,2.7064,2.1129,1.7564,1.5324,1.4706,0.0,1.4433,1.3872,1.4336,1.4766,1.4766,1.5026,1.4866,1.4143,1.4264,1.3794,1.2348,1.2212,1.157,1.0109,0.9973,0.9641,0.8948,0.8919,0.8919,0.8919,0.8964,0.0,0.0,0.0,0.0,0.0,0.0,0.0,0.0,0.0,0.0,0.0,0.0,0.0,0.0,0.0,0.0,0.0,0.0,0.0,0.0,0.0,0.0,0.0,0.0,0.0,0.0,0.0,0.0,2.5467,2.9076,0.0,2.6648,2.7338,2.8412,2.9331,3.1074,3.3407,3.6426,3.7687,3.9315,4.1501,4.2409,4.3296,4.4209,4.4002,4.4074,4.4406,4.4406,4.4122,4.3542,4.3542,4.3264,4.2809,4.2809,4.2621,4.2216,4.0571,3.8371,3.5978,3.4829,3.3664,3.2826,3.3933,3.4622,3.51,3.6237,3.6656,3.6596,3.6237,3.4921,3.3305,3.2617,3.1898,3.148,3.2198,3.2706,3.3275,3.4203,3.4622,3.4861,3.507,3.4771,3.4382,3.4143,3.2285,3.0051,2.7886,2.4531,2.1819,2.1095,1.9202,1.7718,1.7549,1.7072,1.6588,1.6213,1.6245,1.6082,1.5582,1.517,1.4613,1.3785,1.3261,1.2558,1.1528,1.0994,1.0588,1.0324,1.0324,1.0324,1.0324,1.0331,1.0337,0.0,0.0,0.0,0.0,0.0,0.0,0.0,0.0,0.0,0.0,0.0,0.0,0.0,0.0,0.0,0.0,0.0,0.0,0.0,0.0,0.0,0.0,0.0,0.0,0.0,2.6143,2.9902,2.8109,3.238,3.4074,3.0546,3.1759,3.2864,3.3005,3.521,3.7183,3.8532,4.0199,4.1502,4.2295,4.319,4.3949,4.4487,4.4284,4.4297,4.4507,4.4507,4.4108,4.3366,4.3366,4.3089,4.2607,4.2607,4.2555,4.2485,4.2085,4.088,3.9136,3.8288,3.7526,3.699,3.7436,3.7774,3.8048,3.8536,3.8751,3.8571,3.7494,3.6537,3.5791,3.5549,3.5459,3.5459,3.5459,3.5789,3.6148,3.6148,3.5998,3.5848,3.5848,3.5669,3.5519,3.5519,3.4082,3.2856,3.2856,2.9143,2.5694,2.4706,2.2728,2.1214,2.1038,1.9841,1.8825,1.8649,1.794,1.719,1.6434,1.5996,1.5375,1.4455,1.4158,1.3522,1.2374,1.2017,1.1645,1.1137,1.1103,1.1103,1.1103,1.1103,1.1231,1.1502,0.0,0.0,0.0,0.0,0.0,0.0,0.0,0.0,0.0,0.0,0.0,0.0,0.0,0.0,0.0,0.0,0.0,0.0,0.0,0.0,0.0,0.0,0.0,2.4802,2.8937,3.1996,3.1729,3.5529,3.7563,3.5884,3.6734,3.7563,3.8065,3.8923,3.9972,4.1143,4.1576,4.21,4.2716,4.2147,4.2642,4.4312,4.3722,4.3718,4.4352,4.4309,4.3734,4.2747,4.2677,4.2555,4.2392,4.2392,4.2269,4.2133,4.231,4.2,4.1357,4.0881,4.035,3.9799,3.9799,3.9498,3.909,3.9301,3.9373,3.9284,3.8631,3.8422,3.8302,3.7674,3.7464,3.7464,3.7434,3.7404,3.7404,3.7375,3.6896,3.6447,3.6447,3.5968,3.5519,3.5519,3.5519,3.5519,3.5519,3.0821,2.6477,2.5212,2.4927,2.4672,2.4083,2.2414,0.0,2.2006,2.0158,1.8275,1.6925,1.7021,1.6427,1.4576,1.5045,1.4652,1.2697,1.3244,1.2948,1.1487,1.14,1.14,1.14,1.1408,1.1806,1.2618,0.0,0.0,0.0,0.0,0.0,0.0,0.0,0.0,0.0,0.0,0.0,0.0,0.0,0.0,0.0,0.0,0.0,0.0,0.0,0.0,0.0,2.6239,2.9164,2.8937,3.3172,3.688,3.8417,4.0727,4.1882,4.1028,4.0852,4.0676,4.0398,4.061,4.0768,4.0692,4.1513,4.1908,4.1667,4.2242,4.3081,4.4312,4.4144,4.451,4.5432,4.4289,4.3702,4.3598,4.2438,4.2008,4.2175,4.2175,4.2133,4.2092,4.2175,4.2058,4.1896,4.1557,4.0772,3.9799,3.9799,3.9394,3.8907,3.8943,3.8943,3.895,3.8918,3.8894,3.8901,3.8829,3.8871,3.8661,3.7674,3.7404,3.7195,3.6267,3.5908,3.5759,3.5759,3.5639,3.5519,3.5519,3.5519,3.5519,3.5519,3.4173,3.2796,3.1958,2.9831,2.8205,2.8101,2.6066,0.0,2.428,2.3682,2.3269,2.3174,2.3236,2.2754,2.1389,2.1454,2.0702,1.8658,1.8536,1.8607,1.8719,1.7959,1.7817,1.8415,1.8415,1.8821,0.0,0.0,0.0,0.0,0.0,0.0,0.0,0.0,0.0,0.0,0.0,0.0,0.0,0.0,0.0,0.0,0.0,0.0,0.0,0.0,0.0,0.0,3.0809,3.4123,3.5278,3.7739,4.0224,4.2404,4.3564,4.4116,4.4041,4.3313,4.271,4.2384,4.1932,4.153,4.1229,4.1535,4.1517,4.0927,4.1511,4.2202,4.3006,4.3464,4.406,4.4846,4.3647,4.3166,4.3312,4.1849,4.1439,4.1852,4.2042,4.2092,4.2092,4.2092,4.2092,4.2104,0.0,0.0,0.0,0.0,3.9039,3.8686,3.876,3.8797,3.8833,3.8943,3.9017,3.909,3.9228,3.9337,3.926,3.8482,3.8033,3.7704,3.7255,3.6537,3.5968,3.6237,3.5908,3.5519,3.5519,3.5519,3.5519,3.5519,3.5519,0.0,3.4981,3.2856,3.1329,3.1656,2.9038,2.7127,2.7431,2.6259,2.5421,2.5355,2.5163,2.4564,2.3437,2.3393,0.0,0.0,0.0,2.1272,2.1569,2.1012,0.0,0.0,0.0,2.1887,2.2313,0.0,0.0,0.0,2.0061,2.0386,0.0,0.0,0.0,0.0,0.0,0.0,0.0,0.0,0.0,0.0,0.0,0.0,0.0,0.0,0.0,0.0,3.5504,3.932,4.2112,4.2082,4.2479,4.4493,4.4769,4.502,4.5522,4.4618,4.3966,4.389,4.2936,4.2338,4.2213,4.1681,0.0,0.0,0.0,4.0745,4.1169,4.2159,4.2856,4.336,4.2744,4.2407,4.234,4.1119,4.0953,4.1577,4.1835,4.2009,4.2092,4.2092,4.2092,4.2092,4.2005,4.1221,3.9983,3.8943,3.8551,3.8464,3.8686,0.0,0.0,3.876,3.8907,3.9017,3.9053,3.9228,3.9373,3.9284,3.8835,3.8512,3.905,3.7883,3.6716,3.7195,3.6447,3.5579,3.5519,3.5519,3.5519,3.5519,3.5519,3.5519,3.5519,3.4442,3.3814,3.4414,3.1506,2.9669,3.0781,2.8419,2.6438,2.5894,0.0,0.0,2.3568,2.3569,2.3086,2.1883,2.2431,2.2627,2.2294,2.2358,2.2628,2.3085,2.3167,2.3283,2.3444,2.3482,2.4882,2.7368,2.4255,2.2989,0.0,0.0,0.0,0.0,0.0,0.0,0.0,0.0,0.0,0.0,0.0,0.0,0.0,0.0,0.0,3.3571,3.774,4.1505,4.3815,4.4443,4.4844,4.5271,4.5723,4.6024,4.6125,4.5547,4.497,4.4493,4.3865,4.3087,4.2263,4.2112,4.1555,4.0551,4.0526,4.0745,4.1169,4.1419,4.2008,4.289,4.2336,0.0,4.2368,4.09,4.0932,4.1946,4.1198,4.1339,4.2092,4.2092,4.2092,4.2034,4.1482,4.0786,4.0002,3.9315,3.8705,3.8277,3.8315,3.8315,3.8352,3.8501,3.8575,3.8649,3.8797,3.898,0.0,3.8502,3.837,3.8302,3.7883,3.7524,3.7135,3.6746,3.6477,3.6148,3.5609,3.5519,3.5519,3.5519,3.5519,3.5519,3.5519,3.4831,3.4354,3.4474,3.3395,3.2496,3.2344,3.1769,3.1403,3.1422,3.1356,3.0989,3.0224,2.9698,2.8808,2.7544,2.751,2.7222,2.6451,2.6996,2.7558,2.8035,2.8619,2.9379,3.0364,3.0856,3.1429,3.2002,2.7807,2.7131,0.0,0.0,0.0,0.0,0.0,0.0,0.0,0.0,0.0,0.0,0.0,2.5963,0.0,0.0,3.4675,3.8266,4.143,4.389,4.5271,4.5949,4.62,4.5924,4.615,4.62,4.5924,4.5372,4.4819,4.4242,4.3689,4.3162,4.2665,4.2363,4.1781,4.0953,4.0651,4.0485,4.0465,4.0945,4.1898,4.3226,4.185,4.1869,4.3015,4.1014,4.0628,4.1515,4.1412,4.1619,4.2092,4.2092,4.2092,4.2063,4.1715,4.0989,4.0031,3.9421,3.8783,3.8202,3.8202,3.8202,3.8202,3.8315,3.8389,3.853,3.8612,3.8797,3.8884,3.8559,3.8377,3.8251,3.8251,3.7844,3.7404,3.7434,3.6956,3.6387,3.6058,3.5729,3.5519,3.5519,3.5519,3.5519,3.5519,3.522,3.4981,3.4981,3.4143,3.3515,3.3607,3.3306,3.3006,3.2794,3.2491,3.2095,3.1401,3.0516,2.972,2.9052,2.8652,2.8505,2.8659,2.8989,2.9621,3.0467,3.0869,3.1517,3.2457,3.2695,3.2949,3.325,3.0931,3.0735,0.0,0.0,0.0,0.0,0.0,0.0,0.0,0.0,2.4029,2.6138,2.8172,3.0658,3.4349,3.6383,3.8793,4.266,4.4518,4.5723,4.6376,4.6677,4.6652,4.62,4.625,4.61,4.5547,4.507,4.4518,4.384,4.3388,4.3037,4.2891,4.2564,4.2007,4.13,4.0849,4.04,3.9848,4.0744,4.1805,4.2904,4.1501,4.1719,4.3253,4.128,4.064,4.1059,4.1596,4.1897,4.2092,4.2092,4.2092,4.2092,4.2092,4.1366,4.0234,3.9741,3.9131,3.8551,3.8434,3.8405,3.8376,3.8231,3.8315,3.8427,3.8427,3.8575,3.876,3.876,3.8486,3.8364,3.8971,3.8424,3.7814,3.8302,3.7614,3.6806,3.6686,3.6237,3.5878,3.5878,3.5878,3.5848,3.5699,3.5699,3.5639,3.5519,3.4592,3.4023,3.4444,3.4054,3.3425,3.2766,3.2316,3.1713,3.0932,3.0018,2.9399,2.9182,2.8667,2.8778,2.972,2.9745,3.0266,3.1397,3.1678,3.2101,3.2749,3.2869,3.3161,3.3636,3.3483,3.3381,2.3376,2.2874,2.317,2.5116,2.3728,2.3,0.0,0.0,3.0783,3.2516,3.5378,3.7864,3.8868,4.04,4.2158,4.4116,4.502,4.5849,4.6903,4.625,4.5648,4.5598,4.6024,4.61,4.5547,4.5422,4.4945,4.389,4.374,4.3288,4.2363,4.266,4.2409,4.1326,4.1225,4.0924,4.0425,4.0951,4.082,4.0185,4.1789,4.237,4.2012,4.1862,4.1672,4.1483,4.0998,4.1254,4.2092,4.2092,4.2092,4.2092,4.2092,4.1628,4.0989,4.0902,4.0466,3.9799,3.9276,3.9102,3.8986,3.8405,3.8202,3.824,3.824,3.8352,3.853,3.853,3.8627,3.8782,3.9053,3.9,3.8835,3.8476,3.8272,3.8003,3.7434,3.7255,3.7195,3.7195,3.7195,3.7015,3.6477,3.6387,3.6178,3.5579,3.537,3.51,3.4563,3.4444,3.4113,3.3455,3.3305,3.2796,3.1539,3.13,3.0786,2.978,2.9629,2.9735,2.995,2.995,3.0242,3.0785,3.1911,3.2716,3.3219,3.4263,3.4931,3.5239,3.4977,3.4207,2.6892,2.6942,2.7243,0.0,2.8725,2.9704,3.2173,3.4048,3.573,3.7412,3.9622,4.153,4.2409,4.3664,4.4794,0.0,4.6326,4.6728,4.625,4.5773,4.5121,4.4141,4.4217,4.4418,4.4493,4.4518,4.4166,4.3388,4.3313,4.3112,4.2715,4.2615,4.2133,4.13,4.0974,4.0601,4.0049,4.0236,4.0594,4.1158,4.1626,4.1918,4.202,4.1632,4.1278,4.0997,4.0716,4.0817,4.1212,4.1212,4.1212,4.1296,4.1856,4.1918,4.1599,4.0815,4.035,4.0002,3.9421,3.9421,3.9625,3.8986,3.8783,3.8725,3.8318,3.824,3.8315,3.8315,3.8464,3.8649,3.887,3.9017,3.9066,3.9014,3.8691,3.8302,3.8033,3.7674,3.7404,3.7404,3.7404,3.7315,3.7075,3.7015,3.6806,3.6178,3.5759,3.54,3.513,3.507,3.4831,3.4143,3.3724,3.3125,3.2138,3.172,3.112,3.0276,2.9886,2.9853,3.0268,3.0268,3.0613,3.1338,3.2146,3.2719,3.2997,3.408,3.4691,3.4754,3.4906,3.4645,2.8273,0.0,0.0,3.0959,3.2893,3.4951,3.6335,3.7864,3.9346,4.0877,4.2258,4.3489,4.4443,4.5422,4.6125,4.6276,4.6954,4.7054,4.5874,4.5196,4.4292,4.2911,4.2359,4.2283,4.2836,4.3313,4.3413,4.3011,4.2986,4.2911,4.2816,4.2564,4.2057,4.13,4.0899,4.0475,3.9923,4.0056,4.0568,4.1542,4.1278,4.1376,4.1686,4.076,4.0405,4.0467,4.0012,4.013,4.0603,4.0603,4.0774,4.1099,4.1814,4.2092,4.1947,4.0786,4.0495,4.0525,3.9741,3.9741,3.9973,3.9189,3.8928,3.8841,3.8347,3.8347,3.8492,3.8492,3.8606,3.8756,3.8951,3.8981,3.898,3.9265,3.8949,3.859,3.8661,3.8302,3.7973,3.7973,3.7973,3.7913,3.7704,3.7674,3.7464,3.6836,3.6178,3.5699,3.5519,3.5519,3.531,3.4833,3.4322,3.3784,3.3125,3.2617,3.1959,3.112,3.0642,3.0522,3.0791,3.0791,3.1059,3.1683,3.241,3.2815,3.2922,3.3968,3.444,3.4464,3.4811,3.4954,0.0,0.0,3.1235,3.3922,3.5454,3.691,3.9069,4.0425,4.1501,4.266,4.3363,4.394,4.4518,4.5121,4.5673,4.6225,4.6326,4.6351,4.6301,4.4418,4.2836,4.2313,4.0777,3.9998,0.0,4.2057,4.2986,4.2986,4.2986,4.2735,4.2263,4.2715,4.2459,4.1326,4.1275,4.1,4.0501,4.0926,4.0719,3.9774,4.0743,4.0932,4.0432,3.9275,3.9282,4.0124,3.8535,3.8899,4.0603,4.0603,4.1141,4.2051,4.2092,4.2092,4.2005,4.1308,4.1482,4.186,4.0525,4.0089,3.9886,3.8638,3.8231,3.8231,3.8202,3.8667,3.916,3.916,3.916,3.9237,3.9428,3.8969,3.8642,3.9017,3.909,3.9126,3.9343,3.9343,3.9313,3.9313,3.9313,3.914,3.8482,3.8362,3.8123,3.7494,3.6866,3.6237,3.5579,3.5519,3.5489,3.5459,3.5459,3.516,3.4503,3.4444,3.3844,3.2497,3.2437,3.2108,3.1511,3.1481,3.1481,3.1511,3.2625,3.3182,3.3182,3.4341,3.4963,3.5081,3.5105,3.5175,0.0,0.0,3.4229,3.5956,3.804,3.9973,4.1078,4.2183,4.2861,4.2564,4.1706,4.0902,4.035,4.1003,4.1831,4.2384,4.4317,4.5623,4.5246,4.4543,4.3187,4.0802,4.035,0.0,0.0,0.0,0.0,4.2414,4.2108,4.2133,4.2715,4.2886,4.2635,4.1907,4.153,4.1025,4.0526,4.0311,4.0032,3.9697,4.0032,4.0103,3.983,3.9364,3.8976,3.8633,3.8692,3.9077,3.9738,4.0346,4.0774,4.117,4.1814,4.2092,4.2063,4.1831,4.1918,4.1976,4.1076,4.1047,4.1279,4.0408,3.9828,3.945,3.945,3.9334,3.9276,3.9683,3.9799,3.9838,4.0032,3.9934,3.9709,3.9601,3.9661,3.9654,3.9281,3.9301,3.9373,3.9373,3.9373,3.9313,3.911,3.908,3.8841,3.8153,3.7165,3.6237,3.5579,3.5519,3.5519,3.5519,3.5519,3.522,3.4563,3.4503,3.3903,3.2557,3.2527,3.2198,3.154,3.1511,3.1511,3.1511,3.2272,3.2683,3.2652,3.3815,3.4399,3.4448,3.4787,3.4977,0.0,3.4148,3.6737,3.8291,4.03,4.2007,4.2414,4.2685,4.266,4.1756,3.9923,3.8216,3.7287,3.7713,3.8467,3.9195,4.163,4.3564,4.3966,4.3539,4.2509,4.0777,4.0375,3.9873,0.0,0.0,0.0,4.1455,4.1605,4.1932,4.2715,4.2861,4.2766,4.2238,4.163,4.1025,4.0526,3.9973,3.9697,3.9697,3.988,3.9621,3.9039,3.9116,3.8496,3.7315,3.7933,3.8405,3.8765,3.9343,4.0,4.0646,4.1296,4.1773,4.2092,4.2092,4.2092,4.2005,4.1337,4.1366,4.1628,4.096,4.0437,4.0089,4.0089,4.0002,3.9973,4.035,4.0466,4.0506,4.0625,4.049,4.0237,4.0088,4.0115,4.0089,3.9587,3.9549,3.9599,3.9433,3.9373,3.9373,3.9373,3.9373,3.92,3.8482,3.7494,3.6596,3.5938,3.5639,3.5519,3.5519,3.5519,3.534,3.4891,3.4831,3.4382,3.3275,3.3006,3.2587,3.1899,3.163,3.1511,3.1511,3.2107,3.2492,3.2711,3.3636,3.4201,3.4399,3.4739,3.4883,3.3061,3.5755,3.8743,4.0824,4.2208,4.2961,4.2911,4.2032,4.1,4.0425,3.799,3.5805,0.0,0.0,3.5458,3.6659,3.8442,4.045,4.2635,4.1706,4.1153,0.0,0.0,0.0,0.0,0.0,0.0,4.045,4.148,4.2162,4.2263,4.274,4.2791,4.2263,4.1656,4.1075,4.0601,4.0023,3.9722,3.9697,4.0126,3.9509,3.8039,3.842,3.7805,3.6405,3.6452,3.6989,3.7821,3.7887,3.8988,4.0603,4.0646,4.1254,4.2092,4.2092,4.2092,4.2005,4.1366,4.1163,4.1047,4.0408,4.0176,4.0147,4.0176,4.0612,4.1105,4.1163,4.1163,4.1163,4.1192,4.0699,4.0245,4.0412,4.0451,4.0393,4.0194,4.0121,3.9988,3.9582,3.9463,3.9433,3.9433,3.9403,3.92,3.8542,3.7853,3.7195,3.6567,3.5908,3.5519,3.5519,3.5519,3.5519,3.5519,3.5519,3.522,3.4563,3.3873,3.3245,3.2527,3.1899,3.154,3.1511,3.2079,3.2656,3.3182,3.3764,3.4349,3.4883,3.4883,3.4883,3.6408,3.9271,4.1383,4.2308,4.276,4.276,4.1957,4.0576,3.9094,3.7713,3.3897,3.0532,0.0,0.0,0.0,3.1964,3.6458,0.0,4.2162,4.379,0.0,4.2992,0.0,4.2158,4.0651,4.0626,0.0,4.0526,4.0777,4.148,4.271,4.2911,4.2911,4.2816,4.2233,4.1882,4.1785,4.0777,4.0099,3.9697,3.9424,3.8842,3.799,3.7703,3.7146,3.6452,3.7129,3.7592,3.7887,3.9299,4.0173,4.0689,4.1423,4.1856,4.2092,4.2092,4.2092,4.2063,4.1889,4.1831,4.1831,4.1657,4.125,4.0931,4.1424,4.1366,4.1308,4.2237,4.2179,4.1947,4.2382,4.2063,4.1453,4.104,4.1163,4.1224,4.0731,4.0456,4.0442,4.0816,4.0487,4.0157,4.0157,3.9738,3.9313,3.917,3.8153,3.7195,3.6567,3.5908,3.5519,3.5519,3.5519,3.5519,3.5519,3.5519,3.522,3.4563,3.4354,3.3724,3.2557,3.2318,3.2019,3.1511,3.1625,3.2216,3.3182,3.3371,3.3935,3.4883,3.4883,3.4883,3.9422,4.1756,4.3263,4.3313,4.3162,4.2359,4.0049,3.804,3.5931,3.3294,2.9754,0.0,2.5661,2.5661,0.0,0.0,0.0,0.0,4.171,4.3514,4.4392,0.0,4.4141,0.0,4.2434,4.2158,4.2032,4.1957,4.1505,4.163,4.2615,4.2836,4.2986,4.2986,4.274,4.2283,4.1806,4.1178,4.0475,3.9697,3.9855,3.9347,3.8416,3.8532,3.7947,3.6757,3.7326,3.764,3.7841,3.8496,3.9227,4.0,4.0158,4.0488,4.0873,4.1296,4.1451,4.1493,4.1968,4.2092,4.2092,4.2092,4.1831,4.1599,4.1976,4.1831,4.1686,4.2382,4.2353,4.2179,4.2498,4.2353,4.2046,4.175,4.1836,4.1901,4.1449,4.1198,4.1151,4.1354,4.1085,4.0756,4.0457,4.0098,3.9738,3.9433,3.8512,3.7614,3.6985,3.6088,3.5519,3.5519,3.5519,3.5519,3.5519,3.5519,3.534,3.4951,3.4683,3.4174,3.3395,3.3095,3.2647,3.1959,3.1929,3.2239,3.2841,3.3108,3.3656,3.4546,3.4787,3.4883,4.1806,4.3539,4.4535,4.4041,4.3338,4.1756,3.7839,3.5102,3.229,2.8549,0.0,2.4048,2.307,2.3577,2.5234,2.8674,0.0,3.5123,4.0855,4.1861,4.2866,4.5196,4.5045,4.4744,4.4744,4.3815,4.3363,4.3765,4.2836,4.2313,4.2313,4.2766,4.3011,4.3087,4.3011,4.2534,4.1555,4.1351,4.0827,3.9798,4.0566,4.0233,3.902,3.9767,3.9102,3.7412,3.7581,3.783,3.8115,3.7416,3.8089,3.9446,3.8455,3.8674,3.9584,4.0331,4.0689,4.093,4.1814,4.2092,4.2092,4.2092,4.2092,4.2092,4.2092,4.2092,4.2121,4.2208,4.215,4.2121,4.2208,4.215,4.2133,4.2351,4.2433,4.2379,4.2189,4.2149,4.2049,4.1624,4.1504,4.1294,4.0636,4.0457,4.0187,3.9529,3.8841,3.8182,3.7614,3.6417,3.5609,3.5519,3.5519,3.5519,3.5519,3.5519,3.5519,3.5519,3.4951,3.4593,3.4503,3.3933,3.3305,3.2647,3.2616,3.2607,3.2647,3.3087,3.363,3.4226,3.4667,3.4883,4.2925,4.4219,4.4842,4.456,4.3037,4.0548,3.6661,3.3068,0.0,0.0,2.3929,2.1995,2.182,2.3376,2.5034,2.6138,3.0131,3.4399,3.8191,3.9923,4.1982,0.0,4.5397,4.5347,4.5347,4.4719,0.0,0.0,4.3212,4.2836,4.2836,4.2936,4.3187,4.3639,4.3212,4.2886,4.2685,4.1806,4.0974,4.035,3.9651,3.9398,3.9521,3.8767,3.849,3.8667,3.9558,0.0,4.0057,4.0728,4.1201,4.1373,4.0094,4.0213,4.1072,4.0714,4.1099,4.1856,4.2051,4.2092,4.2092,4.2092,4.2092,4.2092,4.2092,4.2092,4.2208,4.2702,4.2469,4.2208,4.2702,4.2469,4.2133,4.2351,4.2555,4.2699,4.2822,4.2952,4.2931,4.2312,4.2231,4.2021,4.1324,4.0756,4.0187,3.9529,3.8841,3.8362,3.8242,3.7105,3.6118,3.5579,3.5519,3.5519,3.5519,3.5519,3.5519,3.5519,3.54,3.507,3.4533,3.4384,3.3993,3.3335,3.327,3.345,3.3881,3.3924,3.425,3.4763,3.4868,3.4883,4.3155,4.4269,4.4858,4.4302,4.2333,3.917,3.4079,0.0,0.0,0.0,2.0916,2.0112,1.9836,2.2071,0.0,2.541,2.8348,3.2139,3.691,3.8266,0.0,4.4543,4.5045,4.5171,0.0,4.4694,4.4091,4.3815,4.3288,4.2986,4.2986,4.2986,4.3237,4.379,4.3539,4.3263,4.2986,4.2183,4.1597,4.1311,4.0232,4.0158,4.0901,4.0106,4.0031,4.0669,4.1172,4.183,4.2549,4.1952,4.2,4.2276,4.0769,4.0515,4.092,4.1095,4.1439,4.1867,4.2042,4.2092,4.2092,4.2092,4.2092,4.2092,4.2092,4.2092,4.215,4.244,4.2324,4.2179,4.244,4.2324,4.2133,4.2351,4.2607,4.293,4.313,4.325,4.32,4.291,4.288,4.2551,4.1564,4.1115,4.0576,3.9559,3.914,3.8781,3.8422,3.7853,3.7105,3.6118,3.5699,3.5519,3.5519,3.5519,3.5519,3.5519,3.5519,3.537,3.5011,3.5011,3.4711,3.4023,3.3907,3.3851,3.3793,3.3988,3.4226,3.4497,3.4763,3.4883,4.2821,4.3961,4.4541,4.3869,4.1501,3.7789,3.1964,2.8197,0.0,0.0,1.8455,1.8556,1.8254,2.0788,2.3346,0.0,2.6389,2.9578,3.5303,3.6332,3.8366,0.0,4.4292,0.0,4.5246,4.4392,0.0,4.379,4.3288,4.2986,4.2986,4.3087,4.3363,4.379,4.379,4.3589,4.3162,4.2384,4.2065,4.2138,4.1022,4.1099,4.2087,4.1552,4.1766,4.2577,4.2833,4.3598,4.4598,4.2946,4.2721,4.3182,4.1297,4.0834,4.1256,4.1668,4.1959,4.2136,4.2247,4.2295,4.2266,4.215,4.2092,4.2092,4.2092,4.2092,4.2092,4.2092,4.2092,4.2092,4.2092,4.2092,4.2175,4.2392,4.2729,4.3061,4.325,4.329,4.329,4.329,4.329,4.297,4.1803,4.1512,4.0965,3.9798,3.9499,3.923,3.8691,3.8482,3.8003,3.6985,3.6178,3.5669,3.5519,3.5519,3.5519,3.5519,3.5519,3.5519,3.5519,3.5519,3.525,3.4743,3.4698,3.4434,3.3785,3.4264,3.4503,3.4503,3.4757,3.4982,4.2029,4.3339,4.3752,4.3424,4.0739,3.6835,3.1763,0.0,0.0,1.9032,1.7852,1.7677,1.8129,2.0489,2.2418,0.0,0.0,2.7419,0.0,0.0,0.0,0.0,0.0,0.0,4.4644,4.4166,4.379,4.379,4.3288,4.2986,4.2986,4.3463,4.374,4.379,4.379,4.379,4.374,4.2183,4.1659,4.22,4.1056,4.1081,4.2145,4.1584,4.2174,4.373,4.4774,4.5312,0.0,4.5207,4.5156,4.4993,4.2222,4.2296,4.3827,4.2806,4.3006,4.3719,4.3137,4.2905,4.2818,4.2266,4.2092,4.2092,4.2092,4.2092,4.2092,4.2092,4.2092,4.2092,4.2092,4.2092,4.2216,4.2566,4.285,4.3061,4.325,4.329,4.329,4.329,4.329,4.312,4.244,4.1811,4.1145,4.0427,3.9798,3.9409,3.932,3.8781,3.8332,3.8212,3.7135,3.6148,3.5549,3.5519,3.5519,3.5519,3.5519,3.5519,3.5519,3.5519,3.5459,3.54,3.5858,3.5757,3.5037,3.5577,3.5836,3.5803,3.519,3.5247,4.0117,4.1972,4.2585,4.1979,3.969,3.6031,3.0382,0.0,2.2799,1.8581,1.7549,1.7574,1.8103,2.0188,2.182,0.0,0.0,0.0,3.003,0.0,0.0,4.0325,4.1555,0.0,0.0,0.0,4.379,4.379,4.3288,4.2986,4.2986,4.3514,4.394,4.4292,4.3966,4.379,4.379,4.2786,4.2545,4.3085,4.2288,4.2367,4.3138,4.3267,4.4067,4.534,4.6511,4.7022,0.0,4.6226,4.5777,4.5291,4.3704,4.383,4.4781,4.4179,4.4194,4.4443,4.3805,4.334,4.2963,4.2702,4.2382,4.2092,4.2092,4.2092,4.2092,4.2092,4.2092,4.2092,4.2092,4.2092,4.2175,4.2474,4.2648,4.289,4.309,4.321,4.329,4.329,4.329,4.312,4.25,4.1841,4.1145,4.0487,3.9828,3.9373,3.9373,3.917,3.8841,3.8422,3.7255,3.6387,3.6118,3.5729,3.5519,3.5519,3.5519,3.5519,3.5519,3.5846,3.5878,3.5519,3.6368,3.6529,3.5846,3.6405,3.6671,3.6671,3.6373,3.6373,3.7785,4.0044,4.101,4.0438,3.7992,3.4324,0.0,0.0,2.1945,1.8177,1.7272,1.735,1.8078,1.9459,2.0614,0.0,0.0,2.3653,2.7745,0.0,0.0,0.0,0.0,4.0023,4.1907,4.2986,4.3564,4.3564,4.3187,4.3112,4.3438,4.3514,4.374,4.4116,4.4091,4.3815,4.3313,4.3038,4.3075,4.3466,4.2945,4.3206,4.4204,4.4149,4.5129,4.6788,4.7086,4.7549,0.0,4.6764,4.6149,4.5856,4.5126,4.5191,4.5628,4.5306,4.5198,4.5082,4.4472,4.3834,4.3253,4.305,4.2586,4.2092,4.2092,4.2092,4.2092,4.2092,4.2092,4.2092,4.2092,4.2092,4.2133,4.2351,4.2514,4.2688,4.2941,4.313,4.325,4.329,4.329,4.314,4.2731,4.1953,4.1235,4.0756,3.9978,3.9373,3.9373,3.9373,3.923,3.8751,3.7704,3.6956,3.6776,3.6178,3.5789,3.5789,3.5609,3.5519,3.5519,3.607,3.6196,3.575,3.6909,3.7219,3.6572,3.7137,3.7433,3.7433,3.7201,3.7102,3.504,3.7643,3.8813,3.8813,3.5533,3.1386,0.0,0.0,2.0088,1.785,1.6923,1.6851,1.8003,1.8229,1.8581,1.966,0.0,0.0,2.475,2.8135,0.0,0.0,0.0,3.6883,3.7965,4.1053,4.2986,4.2986,4.2986,4.3463,4.4543,4.3589,4.2986,4.2986,4.4041,4.384,4.2238,4.2651,4.2919,4.2919,4.2344,4.3275,4.5321,4.3701,4.4772,4.7892,4.6185,4.6421,0.0,4.6764,4.6613,4.6988,4.6343,4.6377,4.6691,4.6098,4.5866,4.5779,4.5111,4.4472,4.3863,4.3195,4.2586,4.2092,4.2092,4.2092,4.2092,4.2092,4.2092,4.2092,4.2092,4.2092,4.2133,4.2351,4.2392,4.2514,4.29,4.2981,4.3061,4.325,4.329,4.329,4.329,4.2252,4.1422,4.1422,4.0247,3.9373,3.9373,3.9373,3.9373,3.9373,3.8781,3.8093,3.7464,3.6836,3.6477,3.6477,3.5878,3.5519,3.5519,3.607,3.6384,3.6384,3.7648,3.7922,3.7187,3.7873,3.8195,3.8195,3.7466,3.7102,2.8691,3.0701,3.1479,3.1153,2.9911,2.7762,2.418,0.0,1.9962,1.7325,1.6626,1.6851,1.8003,1.8204,1.9183,2.2171,2.3075,0.0,0.0,0.0,0.0,3.229,3.6483,3.9923,4.1781,4.2585,4.3137,4.3514,4.3187,4.3288,4.4016,4.3363,4.3313,4.4091,4.3338,4.274,4.2213,4.2318,4.219,4.1785,4.1983,4.2864,4.4282,4.4592,4.5484,4.684,4.7086,4.7063,4.6788,4.5989,4.5981,4.6294,4.4918,4.4677,4.506,4.489,4.4805,4.4869,4.5409,4.4879,4.395,4.3747,4.2963,4.2092,4.2092,4.2092,4.2092,4.2092,4.2092,4.2179,4.2615,4.2702,4.2744,4.2785,4.3065,4.3166,4.2858,4.301,4.321,4.329,4.329,4.329,4.329,4.2611,4.1931,4.1444,4.0636,3.9918,3.9433,3.9373,3.9373,3.9373,3.923,3.8811,3.8153,3.7494,3.7135,3.7135,3.6537,3.6378,3.6802,3.6971,3.7055,3.7055,3.8339,3.863,3.7954,3.8623,3.8924,3.8924,3.8692,3.8619,0.0,2.6481,2.7225,2.6992,2.606,0.0,0.0,0.0,1.8906,1.6923,1.7002,1.7603,1.8103,1.8706,1.9861,2.2071,2.3527,2.4682,0.0,0.0,0.0,3.3093,3.6684,3.9973,4.261,4.2936,4.3112,4.3463,4.3162,4.3212,4.3765,4.3087,4.3087,4.3966,4.3011,4.2313,4.1856,4.2394,4.2423,4.1892,4.2708,4.3768,4.5064,4.5563,4.6427,4.7559,4.7617,4.7645,0.0,4.6463,4.6305,4.6594,4.53,4.4874,4.4897,4.4897,4.4666,4.4424,4.5261,4.46,4.3443,4.356,4.2934,4.2092,4.2092,4.2092,4.2092,4.2092,4.2266,4.2528,4.2905,4.3195,4.3369,4.3369,4.3491,4.3507,4.3455,4.3326,4.327,4.3618,4.3469,4.329,4.329,4.2791,4.2171,4.1512,4.1025,4.0427,3.9493,3.9649,3.9679,3.9439,3.9373,3.926,3.8811,3.8153,3.7793,3.7793,3.7195,3.6987,3.7367,3.7621,3.7757,3.7735,3.8761,3.9094,3.8673,3.9094,3.9315,3.9315,3.9315,3.9315,0.0,0.0,0.0,0.0,0.0,0.0,0.0,0.0,0.0,1.6626,1.7829,1.8857,1.8355,1.961,2.0566,2.0162,2.3708,2.5393,0.0,2.6892,0.0,0.0,3.5705,3.7939,4.0974,4.2333,4.2986,4.2986,4.2986,4.3212,4.3765,4.276,4.2464,4.2961,4.2936,4.2409,4.13,4.2776,4.3282,4.2814,4.3948,4.5386,4.6995,4.6427,4.7409,0.0,4.7723,4.7957,4.9464,4.7659,4.723,4.7543,4.6906,4.6223,4.5627,4.573,4.5155,4.4368,4.4771,4.3872,4.2552,4.2839,4.2557,4.2092,4.2092,4.2092,4.2121,4.215,4.2557,4.3021,4.3108,4.3602,4.4066,4.4109,4.3714,4.3604,4.4385,4.3749,4.3239,4.4067,4.3708,4.329,4.329,4.2851,4.2261,4.1602,4.1444,4.0995,3.9738,4.0098,4.0217,3.9559,3.9463,3.9433,3.9373,3.8841,3.8452,3.8452,3.7853,3.7503,3.7523,3.8091,3.8412,3.8367,3.898,3.9315,3.9315,3.9315,3.9315,3.9315,3.9315,3.9315,1.6098,0.0,1.7849,1.8487,1.851,1.821,0.0,0.0,0.0,0.0,0.0,0.0,0.0,1.9862,2.1219,2.2749,2.4991,2.5921,2.428,2.8172,3.2817,3.7186,3.917,4.0423,4.12,4.2333,4.2986,4.2986,4.2986,4.3212,4.3765,4.276,4.2464,4.2961,4.2615,4.2032,4.13,4.167,4.1831,4.1704,4.284,4.4242,4.586,4.5747,4.6661,4.8296,4.6542,4.6777,4.8261,4.6412,4.5749,4.5884,4.5166,4.4079,4.3064,4.4237,4.4499,4.4368,4.4771,4.4341,4.3474,4.2589,4.2208,4.2092,4.2092,4.2092,4.2208,4.2644,4.2876,4.3224,4.4182,4.456,4.472,4.4967,4.4613,4.4268,4.4164,4.3656,4.328,4.3499,4.3409,4.329,4.329,4.317,4.288,4.2261,4.2171,4.1871,4.1025,4.1055,4.0905,4.0247,4.0157,3.9978,3.9469,3.926,3.917,3.917,3.8542,3.8371,3.8842,3.8559,3.8619,3.9067,3.9202,3.9315,3.9315,3.9315,3.9315,3.9315,3.9315,3.9315,1.4018,1.4886,1.5764,1.6275,1.6816,1.714,0.0,0.0,0.0,0.0,0.0,0.0,0.0,1.9962,2.1395,2.2351,2.4111,2.5912,2.7595,2.9679,3.2792,3.7586,3.8894,3.9923,4.1175,4.1882,4.2434,4.2936,4.3212,4.3263,4.3062,4.2766,4.2615,4.2665,4.2615,4.2258,4.1731,4.1957,4.2355,4.2872,4.3967,4.5275,4.668,4.7186,4.7494,4.76,4.7135,4.6855,4.6722,4.6168,4.5834,4.5567,4.5178,4.4514,4.3891,4.4737,4.4712,4.4311,4.4409,4.3892,4.3021,4.2324,4.2092,4.2092,4.2092,4.2092,4.2237,4.2818,4.3224,4.366,4.4647,4.52,4.5565,4.5698,4.5461,4.5158,4.4959,4.4333,4.3738,4.3738,4.3499,4.329,4.329,4.329,4.312,4.25,4.2611,4.2462,4.1542,4.1692,4.1602,4.0905,4.0576,4.0247,3.9888,3.9589,3.9553,3.9879,3.9551,3.9653,4.029,3.965,3.9292,3.9288,3.9315,3.9315,3.9315,3.9315,3.9315,3.9315,3.9315,3.9315,1.3809,1.5175,1.6386,1.6417,1.6888,1.7385,1.7501,0.0,0.0,0.0,0.0,0.0,0.0,2.0188,0.0,2.1471,2.3502,2.6917,3.2064,3.234,3.347,3.7462,3.8165,3.912,4.11,4.1451,4.1982,4.2911,4.3338,4.3137,4.2263,4.2665,4.2665,4.2112,4.2615,4.2615,4.1961,4.2831,4.3687,4.4539,4.5844,4.6881,4.774,4.86,4.8333,4.7157,4.7616,0.0,4.5459,4.608,4.5978,4.5396,4.5396,4.5338,4.5252,4.5367,4.4972,4.4355,4.4094,4.3166,4.2092,4.2092,4.2092,4.2092,4.2092,4.2092,4.2237,4.2818,4.3456,4.4153,4.485,4.5608,4.6225,4.6269,4.6063,4.5892,4.6024,4.5019,4.4197,4.4287,4.3738,4.329,4.329,4.329,4.315,4.262,4.297,4.2901,4.1833,4.2201,4.2291,4.1632,4.0935,4.0516,4.0397,3.9798,3.9737,4.0615,4.0547,4.0749,4.1326,4.0732,4.0046,3.9315,3.9315,3.9315,3.9315,3.9315,3.9315,3.9315,3.9315,3.9315,1.4242,1.5848,1.708,1.6626,1.7277,1.8055,1.8078,0.0,0.0,0.0,0.0,0.0,0.0,2.0991,2.2774,2.4556,2.7896,3.234,3.8291,3.8642,3.9069,4.1207,4.2635,4.2911,4.1426,4.2183,4.2785,4.2961,4.269,4.2389,4.2213,4.2288,4.2032,4.148,4.1982,4.1806,4.0777,4.3241,4.4219,4.3857,4.5973,4.6755,4.6371,4.6011,4.6234,4.6778,0.0,4.4755,4.5743,4.4835,4.3889,4.2992,4.2992,4.2725,4.2329,4.2838,4.3779,4.4731,4.4197,4.3166,4.2092,4.2092,4.2092,4.2092,4.2092,4.2092,4.2237,4.2818,4.3456,4.4269,4.543,4.5958,4.6269,4.6491,4.5838,4.534,4.6075,4.4784,4.3618,4.4197,4.3738,4.329,4.329,4.329,4.326,4.317,4.323,4.323,4.3021,4.308,4.294,4.2321,4.1662,4.0995,4.0457,3.9798,3.995,4.126,4.0789,4.053,4.0554,4.0455,4.0034,3.9315,3.9315,3.9315,3.9315,3.9315,3.9315,3.9315,3.9315,3.9315,1.41,1.5561,1.6954,1.7328,1.8254,1.8982,0.0,0.0,0.0,0.0,0.0,0.0,0.0,0.0,2.5109,2.8222,3.0733,3.3696,3.7713,3.8316,3.8944,4.0626,4.1229,4.148,4.13,4.1806,4.2208,4.2564,4.2861,4.266,4.1756,4.2283,4.2208,4.13,4.1882,4.1875,4.1259,4.2632,4.3049,4.2499,4.4557,4.5436,4.5231,4.5466,4.5367,4.4949,0.0,4.3894,4.3567,4.3849,4.3488,4.2825,4.3197,4.314,4.2968,4.357,4.4265,4.4792,4.4211,4.3602,4.305,4.2702,4.2586,4.2586,4.2586,4.2353,4.2237,4.2818,4.3224,4.366,4.4618,4.5084,4.5389,4.5475,4.5332,4.518,4.5203,4.4485,4.3798,4.3768,4.3499,4.329,4.329,4.329,4.329,4.329,4.329,4.329,4.329,4.329,4.317,4.291,4.2351,4.1841,4.1542,4.0855,4.0602,4.0922,4.1722,4.1819,4.1033,4.1329,4.1011,3.9912,3.9912,3.9713,3.9315,3.9315,3.9315,3.9315,3.9315,3.9315,1.428,1.5547,1.6907,1.7929,0.0,0.0,0.0,0.0,0.0,0.0,0.0,0.0,0.0,2.418,2.7821,3.106,3.352,3.5655,3.7511,3.8316,3.917,4.0325,4.0199,4.0425,4.143,4.153,4.1656,4.1957,4.2635,4.2484,4.1175,4.1932,4.1907,4.0802,4.1304,4.1324,4.0795,4.1147,4.1419,4.1531,4.3243,4.4031,4.4058,4.4854,4.4509,4.3324,4.3964,4.3272,4.1766,4.3012,4.3253,4.2818,4.3098,4.3214,4.3315,4.4168,4.4356,4.4211,4.4037,4.3892,4.3689,4.334,4.3224,4.3195,4.305,4.2673,4.2382,4.2702,4.2876,4.3195,4.3979,4.4411,4.4663,4.4811,4.4941,4.5005,4.4825,4.4407,4.4037,4.4007,4.3618,4.3349,4.3499,4.3379,4.329,4.329,4.329,4.329,4.329,4.329,4.329,4.329,4.2761,4.2398,4.2409,4.196,4.1461,4.1034,4.2619,4.3125,4.2053,4.2338,4.1905,4.0647,4.0475,4.0111,3.9547,3.9381,3.9315,3.9315,3.9315,3.9315,1.5311,1.6443,1.7476,1.8053,1.9007,0.0,2.1719,2.2046,0.0,2.2694,0.0,0.0,0.0,2.6615,3.0658,3.1938,3.6937,4.0978,4.171,4.266,4.3187,4.2785,4.3162,4.3087,4.2238,4.2162,4.1907,4.1376,4.1003,4.0701,4.0576,4.0651,4.0199,3.9094,3.9572,3.9145,3.7535,3.8398,3.9844,4.1781,4.2981,4.3251,4.2643,4.3027,4.3124,4.2994,4.2486,4.2196,4.2067,4.2167,4.2208,4.2067,4.1171,4.083,4.1042,4.258,4.2789,4.2469,4.3602,4.3573,4.3166,4.3747,4.3921,4.3805,4.3195,4.2963,4.2818,4.2295,4.2557,4.3282,4.4501,4.4732,4.4781,4.5357,4.4971,4.4706,4.5891,4.4665,4.3888,4.5711,4.4575,4.3499,4.4137,4.3708,4.329,4.329,4.329,4.329,4.329,4.329,4.329,4.329,4.2761,4.2417,4.2493,4.2462,4.2435,4.2473,4.3161,4.3535,4.3439,4.2841,4.2109,4.1342,4.0713,4.0376,4.0343,3.9647,3.9315,3.9315,3.9315,3.9315,1.4984,1.6292,1.7624,1.8481,1.9786,0.0,0.0,2.4406,2.5335,2.6942,2.6957,0.0,0.0,2.9277,3.2315,3.4449,3.8191,4.1028,4.158,4.2007,4.2183,4.1982,4.2133,4.2108,4.1681,4.1656,4.1555,4.13,4.11,4.0824,4.0526,4.0526,4.0023,3.8944,3.9069,3.8817,3.8071,3.7833,3.8286,3.9323,4.0935,4.1267,4.0515,4.1824,4.244,4.2411,4.2208,4.2092,4.2092,4.2092,4.2092,4.2051,4.166,4.1764,4.2151,4.2778,4.3108,4.334,4.3834,4.3834,4.3718,4.4356,4.4298,4.395,4.3689,4.3311,4.2876,4.2266,4.2266,4.2644,4.3485,4.3884,4.4221,4.484,4.4644,4.4556,4.5484,4.5095,4.4766,4.5544,4.5065,4.4496,4.4347,4.4107,4.3917,4.3917,4.3559,4.3439,4.3898,4.3559,4.329,4.329,4.312,4.3213,4.3774,4.378,4.4052,4.4561,4.3984,4.3386,4.3021,4.3092,4.2837,4.2075,4.1839,4.1475,4.1011,4.0746,4.0613,4.0613,4.0613,4.0382,1.4752,1.599,1.7375,1.8456,0.0,0.0,2.6063,2.7218,2.8234,3.0583,3.0357,2.9553,2.8988,0.0,3.2867,3.5655,3.814,4.0099,4.1125,4.1275,4.1275,4.1275,4.1275,4.1225,4.105,4.1025,4.0874,4.0576,4.0551,4.0325,3.9747,3.9722,3.9295,3.8416,3.8341,3.8208,3.7908,3.7245,3.7231,3.7795,3.9622,4.0145,3.9598,4.1525,4.2382,4.2382,4.2382,4.2266,4.2092,4.2092,4.2092,4.2092,4.2092,4.2353,4.2731,4.2934,4.3282,4.3689,4.3921,4.3979,4.4066,4.4472,4.4327,4.395,4.3747,4.334,4.2905,4.2498,4.2382,4.2557,4.3369,4.365,4.3838,4.4457,4.4614,4.4796,4.5484,4.5454,4.5424,4.5843,4.5574,4.5155,4.4706,4.4436,4.4257,4.4047,4.3589,4.3469,4.3958,4.3559,4.329,4.329,4.329,4.3745,4.4822,4.4745,4.4928,4.5753,4.4622,4.3715,4.3253,4.3487,4.3367,4.2837,4.2605,4.2241,4.1744,4.148,4.1409,4.1409,4.1409,4.1143,1.4752,1.5693,1.6801,1.7953,0.0,0.0,2.9905,3.0583,3.0608,3.337,3.2616,3.0934,2.9239,3.0331,3.234,3.5056,3.6935,3.8793,4.0974,4.1275,4.1275,4.1275,4.1275,4.105,4.0551,4.0501,4.0049,3.902,3.8919,3.8617,3.804,3.8015,3.7739,3.7211,3.7186,3.6935,3.643,3.643,3.6875,3.7821,3.9454,4.0223,4.0268,4.2152,4.2992,4.2992,4.2992,4.2673,4.2121,4.2121,4.2092,4.2092,4.2092,4.2092,4.2179,4.276,4.2992,4.3079,4.3747,4.3979,4.3979,4.3979,4.3979,4.3863,4.3195,4.2992,4.2992,4.2992,4.2992,4.3282,4.4531,4.4294,4.3879,4.4486,4.4971,4.5484,4.613,4.5813,4.5693,4.704,4.6232,4.5304,4.5304,4.4766,4.4067,4.3409,4.329,4.329,4.329,4.329,4.329,4.329,4.329,4.3966,4.5551,4.5029,4.496,4.5753,4.5119,4.4688,4.4718,4.3992,4.3598,4.3598,4.287,4.2506,4.2506,4.1778,4.1442,4.1442,4.1442,4.1442,1.4878,1.6547,0.0,2.0137,0.0,0.0,0.0,3.1989,0.0,0.0,3.6081,3.4851,3.2817,3.3796,3.5052,3.5433,3.7588,3.9421,4.0099,4.0174,4.0174,4.0174,4.0174,4.0124,3.9948,3.9597,3.9371,3.9446,3.8718,3.8191,3.8015,3.8015,3.7739,3.7211,3.7563,3.7688,3.7513,3.7513,3.7795,3.8376,3.9999,4.0905,4.1235,4.2941,4.3689,4.3689,4.3689,4.3602,4.3398,4.2934,4.2469,4.2092,4.2092,4.2092,4.2121,4.2295,4.2644,4.3021,4.3224,4.3282,4.3369,4.3834,4.366,4.3253,4.305,4.2992,4.2905,4.2469,4.2353,4.2557,4.334,4.4336,4.5266,4.5843,4.601,4.6202,4.686,4.686,4.683,4.7219,4.698,4.6411,4.5454,4.5125,4.4796,4.4107,4.3589,4.329,4.329,4.329,4.329,4.329,4.329,4.3966,4.5551,4.5507,4.5731,4.6514,4.5881,4.5019,4.3992,4.3698,4.3598,4.3598,4.3367,4.3267,4.3267,4.3035,4.2936,4.2936,4.2936,4.2671,1.5764,1.7576,0.0,2.1669,2.4054,2.7293,3.2416,0.0,0.0,0.0,3.8241,3.7312,3.5529,3.568,3.6232,3.6784,3.7889,3.8944,3.9597,3.9697,3.9697,3.9697,3.9697,3.9622,3.9396,3.9069,3.8818,3.8718,3.8266,3.7914,3.7688,3.7688,3.7538,3.7186,3.7513,3.7688,3.7688,3.7889,3.8201,3.8637,4.0086,4.0962,4.1418,4.3442,4.4356,4.4327,4.4095,4.3979,4.395,4.3282,4.2789,4.244,4.2179,4.2092,4.2121,4.2353,4.2673,4.2992,4.2992,4.2992,4.3021,4.3195,4.2963,4.2644,4.2644,4.2644,4.2615,4.2498,4.2266,4.2353,4.3456,4.4336,4.5119,4.599,4.6664,4.713,4.7279,4.7309,4.7309,4.7309,4.7309,4.695,4.5873,4.5484,4.5065,4.4407,4.3708,4.329,4.329,4.329,4.329,4.329,4.329,4.3966,4.5551,4.5697,4.6051,4.6844,4.6477,4.5582,4.4125,4.3731,4.3598,4.3598,4.3598,4.3598,4.3598,4.3598,4.3598,4.3598,4.3598,4.3201,1.7149,1.8706,2.0589,2.2844,2.541,0.0,3.239,3.696,4.0249,3.9848,0.0,3.8768,3.7688,3.6634,3.6511,3.8542,3.8015,3.7864,3.9346,3.9546,3.9546,3.9546,3.9546,3.9346,3.8894,3.8844,3.8341,3.7262,3.7613,3.7613,3.7061,3.7036,3.7036,3.7036,3.7136,3.7161,3.7111,3.7713,3.8176,3.8559,3.973,4.0569,4.102,4.3567,4.4744,4.4804,4.4342,4.4124,4.4037,4.3369,4.305,4.2934,4.2324,4.2092,4.2179,4.2702,4.2934,4.2992,4.2934,4.2934,4.2905,4.2295,4.2092,4.2092,4.2092,4.2092,4.2208,4.276,4.2528,4.2498,4.4313,4.4278,4.4086,4.5325,4.6915,4.7938,4.7339,4.7219,4.7219,4.7219,4.7219,4.701,4.6352,4.5693,4.5035,4.4347,4.3678,4.329,4.329,4.329,4.329,4.329,4.329,4.3966,4.5551,4.5697,4.6051,4.6944,4.6941,4.6311,4.4984,4.4191,4.3731,4.3598,4.3664,4.3664,4.3598,4.3598,4.3598,4.3628,4.3628,4.3264,1.7727,1.9861,0.0,0.0,3.0069,3.4419,3.4901,3.7211,3.9446,4.0199,4.0601,4.0601,3.9923,3.9245,3.8818,3.8919,3.8668,3.8467,3.8391,3.8366,3.8366,3.8366,3.8366,3.8316,3.8191,3.8191,3.7914,3.7236,3.6933,3.6483,3.5884,3.5859,3.5859,3.5859,3.6734,3.6985,3.6581,3.7513,3.7973,3.8004,3.9202,3.9959,4.0423,4.2367,4.3695,4.4486,4.5203,4.5169,4.4647,4.4037,4.3456,4.2934,4.2324,4.2092,4.2121,4.2237,4.2586,4.2934,4.244,4.2586,4.2905,4.2295,4.2092,4.2092,4.2092,4.2092,4.2121,4.2266,4.2208,4.2337,4.3407,4.407,4.4748,4.5674,4.6317,4.6711,4.6561,4.6531,4.6531,4.6531,4.6531,4.6322,4.5633,4.5394,4.4885,4.3678,4.3379,4.329,4.329,4.329,4.329,4.329,4.329,4.3966,4.5551,4.5697,4.6276,4.7671,4.7206,4.6742,4.6444,4.5715,4.4787,4.3598,4.4158,4.4191,4.3598,4.3598,4.3687,4.3839,4.3839,4.3798,1.8806,0.0,0.0,2.88,0.0,3.6405,3.6332,3.7437,3.8693,3.9546,4.0174,4.0375,3.9823,3.9496,3.912,3.8542,3.8467,3.8341,3.804,3.8015,3.8015,3.8015,3.8015,3.7889,3.7638,3.7362,3.6985,3.6433,3.6132,3.5855,3.5508,3.5508,3.5508,3.5508,3.6358,3.6707,3.6405,3.7462,3.768,3.7155,3.8709,3.97,4.0114,4.2194,4.3678,4.4624,4.5178,4.5053,4.4443,4.4124,4.3776,4.3427,4.3137,4.2818,4.2528,4.2528,4.2557,4.2528,4.2208,4.2295,4.2498,4.2208,4.2092,4.2092,4.2092,4.2092,4.2092,4.2092,4.2175,4.2403,4.3098,4.3608,4.4164,4.5226,4.6181,4.68,4.68,4.6561,4.6279,4.6279,4.6052,4.5723,4.5364,4.5035,4.4496,4.3439,4.329,4.329,4.329,4.329,4.329,4.329,4.3615,4.4358,4.5588,4.602,4.6724,4.7935,4.7636,4.7272,4.6908,4.6874,4.598,4.4158,4.4489,4.4324,4.3598,4.3598,4.3687,4.3898,4.3898,4.3785,1.9661,0.0,2.5578,3.2365,3.5077,0.0,3.6784,3.7387,3.799,3.8467,3.9019,3.9295,3.8944,3.8793,3.8567,3.809,3.7914,3.7789,3.7613,3.7588,3.7538,3.7462,3.7513,3.7362,3.681,3.6581,3.6081,3.5408,3.5433,3.5458,3.5357,3.5357,3.5357,3.5357,3.5931,3.6229,3.6128,3.7354,3.7404,3.6279,3.8192,3.9488,4.0268,4.2126,4.3487,4.434,4.4632,4.4443,4.3979,4.3979,4.3979,4.3979,4.3863,4.3485,4.2992,4.2876,4.2528,4.2092,4.2092,4.2092,4.2092,4.2092,4.2092,4.2092,4.2092,4.2092,4.2092,4.2133,4.2269,4.2509,4.3119,4.3112,4.3348,4.4567,4.5866,4.683,4.695,4.6531,4.613,4.6249,4.5753,4.5244,4.5155,4.4586,4.3958,4.3379,4.329,4.329,4.329,4.329,4.329,4.329,4.4043,4.4812,4.5624,4.6375,4.7135,4.7968,4.8001,4.7736,4.7106,4.7669,4.7007,4.492,4.4887,4.4456,4.3598,4.3628,4.3747,4.3927,4.3956,4.3738,1.9158,0.0,2.8599,0.0,3.4776,3.5077,0.0,0.0,3.7312,0.0,3.7839,3.8366,3.8844,3.8467,3.809,3.8015,3.7613,3.696,3.5959,3.5834,3.5658,3.5228,3.5533,3.5608,3.5102,3.583,3.5931,3.4901,3.5232,3.5282,3.4806,3.4826,3.4826,3.4826,3.5332,3.5382,3.4951,3.6842,3.7073,3.5655,3.7237,3.9202,4.1355,4.1094,4.1321,4.2016,4.3488,4.4066,4.3979,4.3979,4.3979,4.3921,4.334,4.3079,4.2934,4.2411,4.2179,4.2092,4.2092,4.2092,4.2092,4.2092,4.2092,4.2092,4.2092,4.2092,4.2133,4.231,4.2392,4.2474,4.2938,4.3,4.3229,4.4176,4.4545,4.4855,4.5454,4.5484,4.5603,4.6202,4.5753,4.5125,4.4556,4.3898,4.3379,4.329,4.329,4.329,4.329,4.329,4.329,4.329,4.4043,4.4812,4.5624,4.6375,4.7135,4.7968,4.8001,4.7968,4.7868,4.7968,4.7272,4.5682,4.5649,4.4986,4.3598,4.3747,4.3956,4.4068,4.4212,4.4288,1.9585,2.4582,2.9289,0.0,3.3571,3.4022,3.4831,3.5454,3.5805,3.5805,3.6006,3.6533,3.7713,3.7462,3.6885,3.6257,3.5956,3.5629,3.5107,3.5031,3.4956,3.4705,3.4881,3.4931,3.4705,3.4876,3.4901,3.4726,3.463,3.465,3.468,3.468,3.468,3.468,3.5207,3.5382,3.5132,3.6375,3.7186,3.7584,3.7441,3.8536,4.0723,4.028,4.0718,4.1881,4.2215,4.215,4.1831,4.2208,4.2382,4.244,4.3253,4.3108,4.2557,4.2992,4.2702,4.2092,4.2092,4.2092,4.2092,4.2092,4.2092,4.2092,4.2092,4.2092,4.2133,4.2351,4.2474,4.2607,4.29,4.3061,4.327,4.3648,4.3738,4.4047,4.5065,4.5304,4.5274,4.5214,4.4945,4.4646,4.4377,4.3738,4.3409,4.3798,4.3529,4.329,4.329,4.329,4.329,4.329,4.4434,4.5332,4.566,4.6793,4.7638,4.7968,4.8001,4.8001,4.8001,4.8001,4.7504,4.6444,4.6013,4.5086,4.3598,4.3809,4.3985,4.4097,4.427,4.4412,0.0,0.0,2.7544,2.9603,3.0658,3.1587,0.0,0.0,3.4073,3.4731,3.4881,3.5353,3.6734,3.6408,3.573,3.5052,3.4781,3.4675,3.4525,3.4525,3.4449,3.4324,3.455,3.4675,3.4525,3.4399,3.4424,3.4655,3.4474,3.4424,3.47,3.4806,3.4881,3.4881,3.5282,3.5558,3.5708,3.6157,3.7396,3.93,3.8122,3.8534,4.035,3.9984,4.0465,4.157,4.1047,4.0554,4.0147,4.0815,4.1192,4.1512,4.3108,4.3253,4.2702,4.3631,4.3282,4.2324,4.2324,4.2237,4.2092,4.2092,4.2092,4.2092,4.2092,4.2092,4.2133,4.2392,4.2566,4.2769,4.301,4.321,4.329,4.329,4.329,4.3648,4.5005,4.5574,4.5603,4.4945,4.4825,4.4706,4.4377,4.3858,4.3648,4.4018,4.3618,4.329,4.329,4.329,4.329,4.329,4.4737,4.5697,4.5697,4.71,4.8001,4.8001,4.8001,4.8001,4.8001,4.8001,4.7636,4.6908,4.6179,4.5282,4.4251,4.4035,4.411,4.4423,4.4394,4.4468,0.0,1.9711,0.0,2.4004,2.5209,2.6691,0.0,0.0,3.2315,3.4906,3.5458,3.5633,3.6329,3.5529,3.4931,3.5382,3.5006,3.455,3.4022,3.3947,3.3746,3.3219,3.4098,3.4525,3.3997,3.4831,3.5207,3.4731,3.5132,3.5207,3.4751,3.5182,3.5458,3.5458,3.5483,3.578,3.6355,3.638,3.7508,3.9662,3.9262,3.9769,4.1018,4.0369,4.0137,4.0205,4.0176,4.0118,4.0147,4.0815,4.1482,4.2121,4.2789,4.3398,4.3892,4.3979,4.3544,4.2934,4.2934,4.2586,4.2092,4.2092,4.2092,4.2092,4.2092,4.2092,4.2175,4.2566,4.2688,4.2809,4.317,4.329,4.329,4.329,4.329,4.3648,4.5005,4.6292,4.701,4.6309,4.619,4.5771,4.4526,4.4287,4.4037,4.3439,4.3319,4.329,4.329,4.329,4.329,4.329,4.4737,4.5697,4.5697,4.71,4.8001,4.8001,4.8001,4.8001,4.8001,4.8001,4.7636,4.6908,4.6179,4.5875,4.5963,4.4712,4.4524,4.5307,4.4806,4.4615,0.0,0.0,0.0,2.2046,2.3201,2.4449,2.6214,2.7168,2.8172,2.988,3.0256,3.0733,3.2365,3.3796,3.4731,3.4931,3.4806,3.4525,3.3972,3.3897,3.3696,3.3144,3.342,3.3596,3.3395,3.3721,3.4022,3.4173,3.4374,3.455,3.468,3.4856,3.4981,3.4981,3.4981,3.5232,3.583,3.5479,3.6463,3.8815,3.8705,3.9326,4.0466,4.0641,4.0292,3.9509,3.9509,3.9276,3.8899,3.9131,3.9392,3.9712,4.0728,4.1541,4.2179,4.2615,4.2876,4.2934,4.2557,4.2266,4.2092,4.2092,4.2092,4.2092,4.2092,4.2092,4.2175,4.2433,4.2607,4.2769,4.305,4.321,4.329,4.329,4.3947,4.4736,4.5185,4.6352,4.71,4.6441,4.6279,4.613,4.5693,4.4885,4.4377,4.4556,4.3828,4.329,4.329,4.329,4.329,4.329,4.4737,4.5697,4.5697,4.71,4.8001,4.8001,4.8001,4.8001,4.8001,4.8001,4.7901,4.7765,4.6568,4.5937,4.5875,4.4716,4.4495,4.5261,4.4811,4.4615,1.5296,0.0,0.0,0.0,0.0,2.1315,2.305,2.3979,2.4983,2.67,2.7444,2.8398,3.0281,3.2416,3.3947,3.4148,3.4173,3.4048,3.3671,3.3621,3.3495,3.3162,3.3244,3.3345,3.3345,3.352,3.3771,3.4148,3.4173,0.0,3.4424,3.4449,3.4449,3.4449,3.4625,3.4856,3.5232,3.4856,3.5716,3.7675,3.8168,3.8992,4.0118,4.0786,4.0641,3.9799,3.9392,3.8812,3.8202,3.8202,3.8347,3.8638,3.9683,4.0641,4.1541,4.2411,4.2847,4.2963,4.2789,4.244,4.2092,4.2092,4.2092,4.2092,4.2092,4.2092,4.2175,4.2433,4.2596,4.2769,4.305,4.321,4.329,4.329,4.4347,4.5304,4.5304,4.6352,4.7189,4.6741,4.6651,4.6501,4.6052,4.5424,4.4915,4.4676,4.4077,4.3529,4.3319,4.329,4.3409,4.3654,4.4887,4.5805,4.6056,4.7236,4.8001,4.8001,4.8001,4.8001,4.8001,4.8001,4.8066,4.8195,4.6762,4.6098,4.6333,4.4875,4.4553,4.535,4.484,4.4615,0.0,0.0,0.0,0.0,0.0,0.0,1.9962,0.0,2.3025,2.577,2.762,2.9113,3.0331,3.1386,3.229,3.2918,3.3111,3.3093,3.3093,3.3093,3.3136,3.3111,3.3545,3.3872,3.3872,3.4349,3.4675,3.4675,3.4675,3.4449,3.3897,3.3872,3.3872,3.3872,3.4399,3.4675,3.47,3.4675,3.5259,3.6537,3.7787,3.8964,4.0118,4.0815,4.1105,4.1018,3.977,3.8841,3.8231,3.8202,3.858,3.9247,3.9828,4.0873,4.2208,4.3456,4.3515,4.3079,4.3747,4.3137,4.2092,4.2092,4.2092,4.2092,4.2092,4.2092,4.2175,4.2566,4.2688,4.2809,4.321,4.329,4.329,4.329,4.4317,4.5274,4.5274,4.6322,4.7279,4.7309,4.7309,4.689,4.5544,4.5873,4.5592,4.3618,4.3898,4.4047,4.3379,4.329,4.3606,4.4396,4.5221,4.602,4.6759,4.7538,4.8001,4.8001,4.8001,4.8001,4.8001,4.8001,4.8066,4.8195,4.6795,4.6488,4.7412,4.5316,4.4783,4.5669,4.4925,4.4615,1.4431,0.0,0.0,0.0,0.0,0.0,0.0,0.0,2.0941,2.2552,2.4205,2.6063,2.8373,2.9051,2.9829,3.1562,3.2867,3.3671,3.3671,3.3671,3.352,3.3162,3.3219,3.3294,3.3294,3.3445,3.352,0.0,3.352,3.347,3.3319,3.3294,3.3294,3.3294,3.3445,3.3721,3.4123,3.3746,3.453,3.651,3.7395,3.8629,4.0147,4.1308,4.1541,4.1047,4.0205,3.9509,3.8899,3.8405,3.8318,3.8492,3.8667,3.9799,4.1424,4.1773,4.2353,4.3021,4.3195,4.276,4.2092,4.2092,4.2092,4.2092,4.2092,4.2092,4.2133,4.2257,4.2474,4.2809,4.321,4.329,4.329,4.329,4.3917,4.4586,4.4586,4.5633,4.6741,4.7219,4.7309,4.704,4.6172,4.5783,4.5214,4.4197,4.3738,4.3499,4.3319,4.329,4.3606,4.4396,4.5221,4.602,4.6759,4.7538,4.8001,4.8001,4.8001,4.8001,4.8001,4.8065,4.8227,4.842,4.7577,4.7362,4.775,4.5433,4.4726,4.5462,4.4868,4.4615,0.0,0.0,0.0,0.0,0.0,0.0,1.6823,1.8455,1.9987,2.0639,2.2297,2.433,2.664,2.7067,2.7871,3.0331,3.1537,3.234,3.2792,3.2842,3.2742,3.2416,3.2365,3.2365,3.2365,3.2365,3.2365,3.2365,3.2365,3.2466,3.2692,3.2717,3.2817,3.3111,3.3111,3.3244,3.3545,3.3606,3.4512,3.613,3.7222,3.8564,4.0147,4.1192,4.1628,4.1482,4.0815,4.0147,3.9538,3.887,3.8463,3.8202,3.8202,3.9218,4.0728,4.0989,4.1744,4.2644,4.2905,4.2586,4.2092,4.2092,4.2092,4.2092,4.2092,4.2092,4.2133,4.2216,4.2514,4.289,4.321,4.329,4.329,4.329,4.3798,4.4317,4.4317,4.5155,4.6082,4.677,4.713,4.71,4.6441,4.5992,4.5394,4.4466,4.3988,4.3618,4.3319,4.329,4.3732,4.4887,4.5442,4.6127,4.7236,4.7737,4.8001,4.8001,4.8001,4.8001,4.8001,4.813,4.8292,4.8483,4.7903,4.7551,4.7462,4.5718,4.4951,4.5053,4.4761,4.4615,0.0,0.0,0.0,0.0,0.0,0.0,1.64,1.8229,1.9786,1.9736,2.1415,2.3396,2.4958,2.5234,2.6063,2.8649,2.9202,2.9804,3.121,3.1386,3.1386,3.1386,3.1386,3.1386,3.1386,3.1386,3.1386,3.1386,3.1386,3.1612,3.2089,3.219,3.2441,3.2968,3.3086,3.3111,3.3111,3.3852,3.4703,3.5628,3.7063,3.8587,4.0118,4.0786,4.1453,4.2063,4.1395,4.0728,4.006,3.945,3.8812,3.8202,3.8202,3.8986,4.0176,4.0844,4.1512,4.2179,4.2789,4.2586,4.2092,4.2092,4.2092,4.2092,4.2092,4.2092,4.2133,4.2351,4.2688,4.3021,4.325,4.329,4.329,4.329,4.3738,4.4197,4.4197,4.4736,4.5364,4.595,4.6621,4.689,4.6322,4.6142,4.5681,4.4586,4.4377,4.4067,4.3469,4.3409,4.4018,4.5515,4.5697,4.6304,4.7869,4.8001,4.8001,4.8001,4.8001,4.8001,4.8001,4.813,4.8324,4.8483,4.8003,4.7481,4.6921,4.6109,4.5365,4.4716,4.4649,4.4615,0.0,0.0,0.0,0.0,0.0,0.0,1.6597,1.8229,1.9685,1.9233,2.0589,2.2046,2.2799,2.2949,2.3276,2.4249,2.5536,2.757,3.0909,3.1386,3.1386,3.1386,3.1386,3.1386,3.1386,3.1386,3.1386,3.1386,3.1386,3.1436,3.1537,3.1964,3.2265,3.2365,3.2842,3.3111,3.3111,3.3283,3.4121,3.5628,3.6457,3.7997,4.0118,4.0786,4.1453,4.2063,4.1395,4.0728,4.006,3.945,3.8812,3.8202,3.8202,3.8986,4.0176,4.0844,4.1512,4.2179,4.2789,4.2586,4.2092,4.2092,4.2092,4.2092,4.2092,4.2092,4.2175,4.2555,4.2809,4.3021,4.325,4.329,4.329,4.329,4.3379,4.3499,4.3499,4.4007,4.4556,4.4676,4.5244,4.5633,4.5514,4.5065,4.4796,4.5065,4.4646,4.4257,4.4137,4.4107,4.4504,4.5578,4.5697,4.6304,4.7869,4.8001,4.8001,4.8001,4.8001,4.8001,4.8001,4.826,4.8452,4.8515,4.8632,4.8379,4.7699,4.6346,4.5635,4.5466,4.4857,4.4615,0.0,0.0,0.0,1.73,0.0,0.0,0.0,1.8229,1.9309,1.9058,1.9459,2.0263,2.1644,2.09,2.0676,2.2422,2.4033,2.5861,2.8184,2.9227,2.9754,2.9754,2.9754,2.9754,2.9754,3.0005,3.0281,3.0583,3.0583,3.0708,3.0984,3.126,3.1662,3.219,3.2491,3.2792,3.3111,3.3539,3.4371,3.5628,3.6398,3.7918,4.0118,4.0437,4.1134,4.2063,4.1744,4.1221,4.0554,3.9915,3.9276,3.8667,3.8347,3.8986,4.0089,4.0147,4.0989,4.215,4.244,4.2353,4.215,4.244,4.2353,4.2092,4.2092,4.2092,4.2175,4.2566,4.2769,4.293,4.321,4.329,4.329,4.329,4.329,4.329,4.329,4.3559,4.3798,4.3798,4.4077,4.4526,4.5185,4.4736,4.4436,4.4766,4.4257,4.3928,4.4334,4.4373,4.488,4.6124,4.6269,4.6724,4.7902,4.8001,4.8001,4.8001,4.8001,4.8001,4.8001,4.8324,4.8578,4.8736,4.8892,4.8815,4.8477,4.6955,4.6075,4.5703,4.4925,4.4615,0.0,0.0,0.0,0.0,0.0,1.6898,0.0,0.0,0.0,1.8531,1.8155,1.8454,0.0,0.0,0.0,2.0702,0.0,0.0,0.0,2.5418,0.0,2.7971,2.8097,2.8097,2.8097,2.8222,2.8524,2.9101,2.9151,2.9402,2.9955,3.0382,3.1009,3.1863,3.2014,3.229,3.2784,3.3562,3.4395,3.5224,3.6172,3.7709,3.9679,3.9952,4.0699,4.1715,4.1976,4.157,4.0699,4.0263,3.9683,3.8957,3.8405,3.8899,3.9857,3.9392,4.0263,4.1715,4.186,4.1918,4.2005,4.2615,4.2498,4.2092,4.2092,4.2133,4.2269,4.2607,4.2769,4.289,4.321,4.329,4.329,4.329,4.329,4.329,4.329,4.329,4.3319,4.3469,4.3379,4.3678,4.4915,4.4556,4.4227,4.4466,4.3917,4.3786,4.4611,4.4695,4.5235,4.6655,4.6828,4.7134,4.7935,4.8001,4.8001,4.8001,4.8001,4.8001,4.8001,4.8324,4.8642,4.8984,4.9018,4.9018,4.9018,4.7665,4.6616,4.5906,4.5162,4.475,0.0,0.0,0.0,0.0,1.7752,0.0,1.6801,0.0,1.7426,1.6876,0.0,0.0,0.0,0.0,0.0,0.0,0.0,0.0,1.7993,1.9535,2.2573,2.7519,2.8097,2.8097,2.8097,2.6816,2.6214,2.6826,2.6876,2.7128,2.7645,2.9528,3.0683,3.0783,3.1235,3.1512,3.1587,3.2147,3.2874,3.375,3.5103,3.6586,3.8161,3.9513,4.0176,4.0379,4.157,4.1076,3.945,3.9915,3.9392,3.8318,3.8231,3.8667,3.9305,3.9218,3.9683,4.0408,4.1018,4.1221,4.1308,4.1976,4.215,4.2092,4.2092,4.2351,4.2648,4.2688,4.297,4.325,4.329,4.329,4.329,4.329,4.329,4.329,4.329,4.329,4.3469,4.4077,4.3708,4.3529,4.4287,4.3858,4.3838,4.5005,4.4616,4.4479,4.5287,4.5364,4.5765,4.6719,4.6828,4.7134,4.7935,4.8001,4.8001,4.8001,4.8001,4.8001,4.8001,4.8324,4.8642,4.8984,4.9018,4.9018,4.9018,4.8206,4.7394,4.665,4.5906,4.5229,0.0,0.0,0.0,0.0,0.0,0.0,1.7601,0.0,1.7247,0.0,0.0,0.0,0.0,0.0,0.0,0.0,1.7704,0.0,0.0,0.0,2.0932,2.303,0.0,0.0,2.4205,2.3929,2.3929,2.4481,2.541,2.6248,2.6801,2.8599,2.9891,3.0608,3.0834,3.1085,3.1386,3.1938,3.2895,3.4286,3.517,3.6678,3.8685,3.9642,4.0321,4.0728,4.1686,4.1424,4.0292,4.0147,3.9567,3.8754,3.8347,3.8609,3.916,3.8754,3.9479,4.0728,4.0989,4.1337,4.1773,4.2411,4.2382,4.2221,4.2653,4.2685,4.2566,4.2809,4.301,4.317,4.325,4.329,4.329,4.329,4.329,4.329,4.329,4.329,4.3379,4.3648,4.3469,4.3379,4.3648,4.3469,4.3618,4.4586,4.4539,4.4863,4.604,4.6213,4.6557,4.7404,4.7471,4.7638,4.7968,4.8001,4.8001,4.8001,4.8001,4.8099,4.826,4.842,4.8642,4.8984,4.9018,4.9018,4.9018,4.8244,4.7736,4.7428,4.6684,4.6177,2.0688,0.0,0.0,0.0,0.0,0.0,0.0,0.0,0.0,0.0,0.0,0.0,0.0,0.0,0.0,0.0,0.0,1.77,0.0,1.7678,0.0,0.0,0.0,0.0,0.0,2.123,2.1375,2.2117,2.3627,2.4657,2.5116,2.7544,2.9139,2.9679,3.0156,3.0583,3.0959,3.1486,3.2592,3.4242,3.5006,3.6508,3.8582,3.9623,4.0263,4.0641,4.1657,4.1512,4.0554,4.0234,3.9625,3.887,3.8405,3.8492,3.887,3.8376,3.9218,4.0612,4.0757,4.1482,4.2382,4.2644,4.2598,4.2536,4.2923,4.2825,4.2607,4.29,4.3021,4.313,4.325,4.329,4.329,4.329,4.329,4.329,4.329,4.329,4.3349,4.3529,4.3409,4.3349,4.3529,4.3409,4.3469,4.3917,4.4461,4.5215,4.6313,4.682,4.7329,4.7968,4.8001,4.8001,4.8001,4.8001,4.8001,4.8001,4.8001,4.8164,4.8483,4.8515,4.8642,4.8984,4.9018,4.9018,4.9018,4.8477,4.8206,4.8206,4.7462,4.6989,0.0,0.0,0.0,2.1568,0.0,0.0,0.0,0.0,1.8028,0.0,0.0,0.0,0.0,0.0,0.0,0.0,0.0,0.0,0.0,0.0,0.0,0.0,0.0,0.0,0.0,1.9287,1.8554,1.9811,2.0966,2.1619,2.1644,2.6289,2.8448,2.7419,2.8976,2.9829,2.9854,3.0382,3.1349,3.2791,3.4176,3.5597,3.7046,3.9157,3.9799,3.9363,4.1279,4.1018,3.9305,3.9857,3.9363,3.8231,3.8202,3.8202,3.8231,3.8202,3.8667,3.9334,3.9915,4.1366,4.2876,4.2295,4.2623,4.3169,4.2597,4.2718,4.2981,4.2981,4.317,4.329,4.329,4.329,4.329,4.329,4.329,4.329,4.329,4.329,4.3469,4.4167,4.3738,4.3499,4.4167,4.3708,4.329,4.3319,4.4621,4.5625,4.5714,4.6984,4.7883,4.8001,4.8001,4.8001,4.8001,4.8001,4.8001,4.8001,4.8001,4.8164,4.8483,4.8515,4.8642,4.8984,4.9018,4.9018,4.9018,4.8984,4.8951,4.8951,4.821,4.7496,0.0,0.0,2.3301,2.2694,0.0,0.0,0.0,0.0,0.0,0.0,0.0,0.0,0.0,0.0,0.0,0.0,0.0,0.0,0.0,0.0,0.0,0.0,0.0,0.0,0.0,0.0,1.6484,1.7046,1.848,2.0112,2.1945,2.5008,2.7218,2.8323,2.9302,3.0024,3.0507,3.1074,3.2381,3.4386,3.5221,3.637,3.7787,3.8987,3.9392,3.9247,4.0321,4.0176,3.9218,3.9421,3.8986,3.8202,3.8202,3.8202,3.826,3.8696,3.9247,3.9944,4.1047,4.186,4.2498,4.3137,4.3073,4.2831,4.3612,4.3448,4.3021,4.317,4.325,4.329,4.329,4.329,4.329,4.329,4.329,4.329,4.329,4.329,4.3349,4.3589,4.3439,4.3349,4.3589,4.3838,4.4309,4.5331,4.633,4.7353,4.8391,4.8632,4.8693,4.8729,4.8299,4.8001,4.8001,4.8001,4.8001,4.8001,4.8001,4.8164,4.8483,4.8952,4.9145,4.9018,4.9492,4.9492,4.9018,4.9018,4.9018,4.8984,4.8748,4.8511,2.7419,2.659,0.0,2.4808,2.3502,0.0,2.1265,0.0,2.1214,0.0,0.0,0.0,0.0,0.0,0.0,0.0,0.0,0.0,0.0,1.4365,0.0,0.0,0.0,0.0,0.0,1.4804,1.5209,1.5658,1.7074,1.8681,0.0,2.3381,2.538,2.6239,2.7748,2.9011,3.0016,3.0566,3.2316,3.517,3.5555,3.6589,3.8231,3.8899,3.9189,3.9247,3.9828,3.9886,3.9509,3.9305,3.8957,3.8522,3.8289,3.8202,3.8289,3.8957,3.9741,4.0612,4.1715,4.2237,4.2557,4.3497,4.3374,4.3054,4.4086,4.379,4.313,4.325,4.329,4.329,4.329,4.3469,4.3589,4.3349,4.3469,4.3589,4.3349,4.329,4.329,4.329,4.329,4.329,4.329,4.3868,4.463,4.5686,4.7129,4.8402,4.9147,4.9374,4.9392,4.9127,4.8431,4.8001,4.8001,4.8001,4.8001,4.8001,4.8033,4.8328,4.8852,4.9419,4.9747,4.9796,4.9999,4.9864,4.939,4.912,4.9018,4.9018,4.9018,4.9018]}]]